ECMWFNIL_850_dewp_000.txt.gz
Dewpoint
13 13 13 13 12 12 12 12 12 13 14 14 15 15 14 14 14 14 14 13 12 11 11 11 11 11 12 12 11 11 12 12 12 12 11 10 10 10 11 11 11 11
13 13 13 13 11 11 11 11 12 12 12 12 13 14 14 14 14 13 14 13 12 12 11 11 11 11 11 12 11 11 12 12 12 12 11 10 10 11 11 11 11 11
13 14 13 13 12 11 11 12 12 12 12 11 11 12 12 13 14 13 13 12 12 12 12 11 12 11 11 12 12 12 12 12 12 12 12 11 10 10 10 11 11 11
13 13 13 13 13 13 12 12 12 12 12 12 11 11 10 10 11 12 11 10 10 11 12 12 12 12 12 12 12 12 12 12 11 12 12 11 11 11 10 11 11 11
11 13 13 13 13 13 12 11 11 12 12 12 12 12 8 5 7 9 9 9 9 10 12 12 12 12 12 12 12 12 12 11 11 11 11 11 11 11 11 11 11 11
11 12 13 13 12 12 11 12 12 11 12 13 13 13 10 6 6 8 8 8 11 12 13 13 12 12 12 12 12 12 12 11 11 11 12 12 12 11 11 11 11 11
9 11 12 12 12 11 11 12 11 8 10 13 14 14 12 9 8 8 7 7 10 12 12 11 9 9 10 11 10 10 11 11 11 11 12 12 12 11 11 11 11 11
7 7 10 11 12 12 12 12 10 5 8 14 15 14 13 10 9 9 7 6 7 9 9 7 3 2 5 7 8 9 10 11 11 12 12 11 11 11 11 11 11 11
6 6 9 12 12 12 11 10 7 5 9 14 15 14 12 10 8 8 6 5 5 7 7 6 3 0 1 4 6 8 8 8 10 11 12 12 11 11 11 11 11 11
8 7 9 12 12 12 11 6 4 7 10 13 14 12 10 8 7 7 5 1 -0 2 2 2 1 1 2 3 4 5 4 3 7 10 11 11 11 10 9 10 10 10
13 13 13 13 14 14 11 5 2 5 9 11 12 11 10 8 4 2 1 0 -0 0 1 0 0 1 2 3 4 3 2 2 7 10 11 11 10 7 6 7 9 10
18 18 17 17 17 14 8 3 2 2 4 7 8 9 9 7 3 -3 -1 4 5 5 4 2 -0 0 2 3 4 4 2 1 6 11 12 11 10 7 6 8 9 10
17 17 15 16 17 16 10 2 1 1 -0 1 2 3 3 3 3 0 -0 4 5 4 5 4 2 1 3 4 4 4 3 2 5 10 11 11 10 9 9 10 10 10
15 16 16 15 17 17 13 3 1 1 -1 -2 -0 1 1 1 2 2 1 2 3 3 3 5 4 2 3 5 3 3 4 4 5 8 10 11 11 11 10 10 10 10
18 18 18 17 18 18 13 5 2 1 -1 0 0 0 1 2 3 4 3 1 2 2 3 5 5 3 3 4 3 3 5 6 5 6 9 11 11 11 11 11 11 10
19 18 17 17 18 17 14 8 6 3 1 1 1 0 1 3 4 6 5 2 1 4 5 6 5 3 3 5 4 4 6 7 6 6 8 10 11 11 11 10 10 11
18 18 17 17 17 17 14 11 8 6 3 2 2 2 2 2 2 5 6 3 1 5 7 7 5 3 3 5 4 4 7 9 8 7 8 9 10 10 10 9 10 10
18 18 18 17 17 17 16 13 11 8 6 4 4 4 4 2 0 3 6 3 0 4 8 8 5 4 4 5 4 5 8 10 10 9 10 9 9 8 9 10 10 10
18 18 18 18 18 17 16 15 13 10 8 7 6 6 6 1 -2 3 7 5 1 4 9 8 5 5 7 7 7 8 10 11 11 11 11 10 8 8 9 10 11 10
19 18 18 18 17 17 16 16 14 12 10 8 7 7 5 1 0 2 6 6 4 5 8 8 5 7 9 9 10 11 10 10 10 10 10 10 9 9 10 11 11 11
19 19 18 18 18 17 16 16 15 13 12 10 8 6 4 2 2 2 4 8 9 8 8 6 5 7 10 11 12 12 9 7 8 9 9 10 10 10 10 11 11 10
19 19 18 18 18 17 16 15 14 13 13 12 10 9 7 5 4 2 4 9 11 9 8 7 6 9 11 12 11 9 7 4 5 8 10 10 11 11 10 10 10 9
19 19 18 18 18 17 16 15 14 13 13 12 12 11 11 9 6 4 5 10 12 11 9 8 7 8 11 11 8 6 4 2 4 7 10 11 11 10 10 10 9 9
18 18 18 18 17 17 16 15 14 13 12 12 12 12 12 10 9 9 10 13 13 11 10 9 9 10 10 8 4 2 2 3 5 7 10 11 11 10 8 7 7 7
17 17 17 17 17 17 16 14 13 12 12 12 12 13 12 12 12 12 13 13 13 12 11 9 10 11 9 5 2 2 2 4 6 8 9 10 10 9 7 7 6 6
16 17 17 17 17 16 15 14 13 12 12 12 12 13 13 13 12 12 13 12 12 12 11 9 9 10 8 4 4 4 4 6 7 7 7 7 7 8 8 8 7 8

ECMWFNIL_850_dewp_003.txt.gz
Dewpoint
11 12 13 14 16 17 17 17 17 16 16 16 16 16 16 15 15 14 13 13 13 13 13 13 12 11 12 12 11 10 12 12 11 12 12 12 12 11 11 11 11 12
11 12 12 13 15 16 16 17 17 16 16 16 16 16 15 15 14 14 14 13 13 13 13 13 12 11 12 12 12 11 11 12 12 11 12 12 12 12 12 12 11 12
12 11 11 13 14 15 16 17 17 16 16 16 16 15 15 15 15 14 14 13 13 13 13 13 13 12 12 12 12 12 12 12 12 12 12 13 12 12 12 12 12 11
14 11 10 12 14 15 16 16 16 16 15 15 15 15 15 15 14 14 14 13 13 14 14 13 13 13 13 12 12 12 12 12 12 12 12 12 12 12 12 12 12 12
16 12 11 12 14 16 16 16 16 16 15 15 15 14 13 11 11 11 11 12 13 13 13 13 13 13 12 13 12 12 12 12 12 11 11 11 11 11 11 11 12 12
17 13 12 12 13 16 17 16 16 16 15 15 14 12 11 9 7 5 5 8 10 12 12 13 13 12 10 12 12 12 12 12 12 12 11 11 11 11 11 11 11 12
17 15 12 13 15 16 16 16 16 15 15 15 13 10 9 8 4 1 -1 1 4 6 8 10 12 9 6 9 12 12 12 12 11 11 11 11 12 12 11 11 11 11
18 16 13 13 15 16 16 16 15 14 13 13 11 8 6 3 -0 -1 -1 -2 -3 -2 -0 5 8 6 1 4 8 10 12 13 12 12 11 11 12 11 11 11 11 11
18 17 15 14 15 16 16 15 13 12 11 11 9 6 2 -1 -2 -1 1 1 -2 -4 -4 0 3 3 2 1 2 6 9 11 12 12 13 12 12 12 12 11 11 11
17 17 16 15 14 14 14 13 12 11 10 9 7 3 -1 -1 -1 -2 0 2 1 -2 -4 -2 1 2 2 1 0 2 5 8 11 11 11 12 10 10 11 12 11 11
18 17 17 14 13 15 14 12 11 10 9 8 5 1 -2 -1 1 -1 -1 2 4 2 -2 -2 -1 1 2 1 2 3 3 6 10 11 10 9 6 7 11 12 12 12
18 18 16 12 13 16 15 12 11 11 9 6 3 1 -2 -2 1 1 -0 1 4 5 2 -0 -1 0 3 1 3 8 7 5 9 12 11 9 5 7 12 12 11 11
18 18 15 10 12 16 15 13 12 10 6 2 1 2 -0 -1 1 2 1 1 2 4 3 2 -1 0 4 3 3 9 8 4 7 11 12 11 7 8 11 12 10 10
18 18 16 13 12 14 12 12 12 9 4 -1 0 2 0 -1 1 2 2 2 2 4 3 4 2 0 4 5 3 4 5 3 6 9 10 10 7 7 10 11 10 11
18 19 18 16 14 12 10 10 11 8 4 -0 1 4 3 0 0 2 3 3 3 4 4 5 4 1 3 5 4 2 3 5 5 6 6 6 5 6 9 10 11 12
19 19 19 17 15 13 10 9 9 8 4 1 2 7 7 3 -1 1 3 3 3 3 4 5 5 2 2 3 4 5 5 6 5 4 5 6 5 6 8 10 11 12
19 19 19 18 17 15 14 13 12 11 9 6 5 9 9 4 -1 1 2 2 3 2 2 3 4 4 4 3 3 6 6 6 7 6 6 7 6 6 8 9 10 11
20 20 19 18 17 17 16 16 15 15 14 13 12 11 9 3 -0 1 1 1 2 1 2 4 6 7 7 4 4 6 6 6 7 8 7 7 7 7 8 9 9 10
20 20 19 18 17 17 17 17 17 17 16 15 15 12 8 4 2 2 1 0 0 2 4 7 8 8 8 6 5 6 7 6 7 8 8 8 7 8 9 9 9 9
19 19 18 17 17 17 18 18 17 17 17 16 15 12 9 7 4 2 1 0 1 4 6 8 10 10 9 8 5 5 6 7 8 8 8 8 8 9 10 10 10 10
18 18 18 17 18 18 18 18 17 17 17 17 15 12 9 6 4 3 3 3 5 6 7 9 11 11 10 8 5 4 6 8 9 9 8 9 10 10 11 11 11 11
18 18 18 17 18 18 18 18 17 17 17 17 15 13 9 7 6 6 6 6 6 6 7 9 11 11 9 8 6 6 7 9 10 9 9 10 11 10 10 11 11 11
18 18 18 18 18 18 18 17 17 17 16 16 15 14 12 11 10 10 9 8 7 8 8 10 12 12 10 9 9 9 8 9 11 10 10 11 11 9 9 10 11 10
17 17 18 18 18 17 16 16 16 16 16 16 15 15 14 13 13 12 11 9 10 12 11 11 12 12 10 10 11 10 8 9 11 10 10 10 10 8 8 9 9 7
15 17 18 17 16 16 15 16 15 16 16 16 15 15 15 14 13 13 12 12 12 13 13 13 13 12 11 11 12 10 8 9 10 10 9 9 8 8 8 8 8 7
14 16 16 15 15 15 16 16 15 16 16 15 14 15 14 14 14 14 13 13 13 14 14 13 13 13 12 12 11 10 9 9 9 8 8 9 10 9 7 6 6 7

ECMWFNIL_850_dewp_006.txt.gz
Dewpoint
13 13 14 15 15 16 17 16 15 15 16 15 12 12 13 12 13 14 13 13 12 9 7 5 3 4 5 3 2 5 7 9 11 12 11 11 11 11 11 11 11 11
13 11 12 13 15 17 17 16 13 13 15 15 14 13 12 12 12 13 13 13 11 9 6 4 0 -1 0 0 -1 0 3 5 9 12 12 11 11 12 12 12 12 11
14 12 12 12 14 16 17 16 14 14 15 15 14 13 12 12 12 12 12 11 10 7 5 1 -2 -3 -1 1 5 6 5 3 6 10 12 12 12 11 11 12 12 12
15 14 13 12 12 14 14 14 15 16 16 14 13 12 12 11 11 11 11 9 7 7 4 -1 -1 2 1 3 9 11 9 5 8 10 11 11 11 10 11 11 11 11
15 15 15 12 11 12 12 13 15 16 15 13 11 12 11 10 11 11 9 8 7 7 2 -1 2 6 7 6 8 10 8 6 9 10 9 10 11 10 9 9 9 9
15 16 15 12 12 12 11 11 13 15 14 12 11 12 11 10 10 10 10 9 7 4 0 0 4 7 9 8 6 6 5 6 8 9 7 8 10 10 10 10 10 10
16 16 16 13 13 13 11 10 12 13 14 12 12 11 11 11 11 10 10 10 7 2 -0 2 4 6 8 8 6 5 4 5 8 10 10 10 11 11 11 10 10 10
17 17 16 15 14 13 11 10 11 12 13 12 12 12 11 12 11 10 10 9 6 2 -0 1 4 7 7 6 5 5 5 4 5 8 10 11 11 12 12 10 8 7
17 17 17 16 15 14 12 11 10 10 11 12 12 12 11 12 11 10 9 8 7 4 2 2 4 7 8 6 4 5 5 4 3 4 6 7 9 9 10 8 6 5
17 17 17 17 16 15 13 11 10 10 10 12 12 12 12 12 12 10 9 8 8 6 4 3 2 4 7 6 5 5 4 3 2 3 4 6 9 9 9 9 9 9
17 17 17 17 17 16 14 11 10 10 10 11 12 12 12 12 11 11 9 8 8 7 4 3 1 1 4 4 3 3 2 2 2 2 4 6 8 10 11 11 11 12
17 17 17 17 17 17 16 13 11 10 10 11 11 12 12 12 11 11 10 9 8 6 3 3 3 2 2 2 1 0 1 2 2 2 3 5 5 7 8 7 6 10
17 16 16 17 17 16 16 14 12 12 11 10 11 12 12 11 11 10 9 9 9 6 2 3 4 4 4 3 1 -0 1 3 4 3 3 3 2 5 7 6 3 6
17 16 16 16 16 16 16 14 13 13 13 11 10 11 12 11 10 10 9 8 9 6 2 2 5 5 5 4 2 1 0 2 5 4 4 4 5 7 9 9 7 8
16 16 16 16 16 16 15 14 13 13 13 12 10 10 11 11 10 9 9 8 8 7 3 3 5 6 6 5 4 2 1 2 4 4 4 4 6 8 9 8 8 9
16 17 17 16 16 15 14 14 13 13 13 13 11 9 9 10 11 10 10 9 8 7 5 4 5 6 5 5 5 4 2 3 4 4 4 4 5 7 8 6 4 5
16 17 17 16 15 15 15 14 14 14 13 13 13 11 10 11 13 12 11 10 8 7 4 4 5 5 5 5 5 5 3 2 3 3 4 5 5 6 6 4 4 4
16 18 18 17 16 16 16 16 15 14 14 14 14 13 12 13 13 13 11 10 9 8 5 4 4 5 5 6 6 6 4 3 3 4 4 5 5 5 5 5 5 5
16 17 18 18 17 17 17 17 17 16 15 14 14 13 13 14 14 13 12 11 10 9 7 5 5 5 5 7 8 7 5 4 4 5 5 5 6 6 6 6 6 6
15 16 16 16 17 17 18 18 17 17 15 15 15 15 15 15 15 14 13 12 10 10 10 9 7 6 6 8 8 8 7 7 6 5 5 6 7 7 7 7 7 7
14 14 14 15 16 17 17 18 17 17 17 16 16 16 16 16 15 15 14 13 12 12 11 10 9 9 8 8 9 9 8 8 7 6 6 6 7 8 8 7 8 8
14 14 14 14 14 15 16 17 18 18 18 18 17 17 16 16 16 15 14 13 13 12 12 11 11 11 10 10 10 9 8 8 8 7 6 6 7 8 9 9 9 10
15 15 15 15 14 15 16 17 18 19 18 18 18 17 17 16 16 15 15 14 13 13 12 11 11 11 11 10 10 8 9 9 9 7 6 7 8 9 9 10 10 10
16 16 16 16 15 16 18 19 19 19 19 18 18 18 17 16 16 16 15 14 14 13 12 11 11 11 11 10 10 10 10 10 9 8 8 8 10 11 11 11 10 10
17 17 17 17 17 18 19 19 19 19 19 19 18 18 18 17 16 15 15 15 15 14 13 12 12 12 12 12 12 12 12 11 10 9 9 9 11 11 11 11 10 9
18 18 18 18 19 19 19 18 18 18 18 18 18 18 17 17 16 15 14 14 15 15 14 13 13 13 13 13 13 12 12 12 12 10 9 10 11 11 10 9 8 7

ECMWFNIL_850_dewp_009.txt.gz
Dewpoint
11 12 12 12 13 14 15 16 15 13 13 12 12 13 12 12 12 11 12 13 13 13 13 13 12 10 8 5 5 6 7 4 -0 -0 -2 -3 1 6 9 10 11 11
12 12 12 11 12 14 15 15 14 12 12 12 12 12 12 12 12 12 12 13 13 13 13 12 8 3 1 2 3 4 6 4 0 3 4 2 3 7 8 8 9 10
13 13 12 11 12 14 14 15 13 12 12 12 12 12 12 12 12 12 13 13 13 13 13 11 4 -4 -6 -1 1 2 4 2 -1 3 7 6 6 8 9 8 8 9
13 13 13 12 13 14 14 14 13 13 13 12 12 13 12 12 12 12 13 14 14 13 13 11 5 -3 -7 -4 -2 0 1 -0 -1 3 7 8 9 9 10 10 9 9
13 13 13 12 13 14 14 14 13 13 12 11 12 12 12 12 12 12 13 14 14 13 13 12 6 -4 -8 -5 -3 -2 -2 -2 0 4 7 8 9 10 11 11 10 10
14 14 13 12 13 13 13 13 13 12 11 10 11 12 12 11 12 12 13 13 13 13 13 12 6 -4 -6 -3 -3 -2 -1 -1 1 5 6 7 9 10 9 10 10 9
14 14 13 12 12 12 12 13 13 12 10 10 11 12 12 12 12 13 13 13 13 13 12 10 5 -1 -5 -3 -2 -2 -1 -0 2 4 6 7 9 9 8 7 7 8
15 14 13 12 11 10 10 12 12 12 10 10 11 12 12 12 12 13 13 13 13 13 11 9 6 3 -2 -3 -1 -1 -1 1 2 4 4 6 8 8 7 7 7 7
15 14 13 13 12 10 9 10 11 12 11 10 11 12 12 12 12 12 13 13 13 12 11 9 8 6 1 -2 -2 -0 0 1 2 3 4 5 6 7 8 9 9 8
16 14 13 13 13 11 9 9 10 11 11 10 11 11 12 12 12 12 12 12 13 12 11 10 9 7 4 1 -1 0 1 1 2 3 4 4 4 4 7 8 8 6
16 14 13 12 13 12 9 8 9 10 11 10 10 10 11 12 13 12 12 12 13 13 12 11 10 7 5 3 1 1 2 1 2 3 3 4 3 3 4 5 5 3
16 14 12 12 12 11 10 9 9 10 10 10 9 9 10 11 12 12 12 12 13 13 12 11 10 8 6 4 3 2 3 3 2 2 3 3 3 2 2 2 1 1
16 14 11 11 11 10 10 10 9 10 10 10 9 9 9 10 11 12 12 12 12 13 13 12 10 9 7 6 5 3 3 4 3 1 2 3 3 2 2 1 -0 -1
15 13 11 10 10 10 11 11 11 11 11 11 11 10 9 9 10 11 12 12 13 13 13 12 11 10 9 7 6 4 4 4 4 1 1 3 3 3 3 3 2 0
15 13 11 11 10 10 11 12 13 13 13 13 13 12 11 10 10 11 12 13 13 13 13 13 12 11 10 9 7 5 4 5 5 2 1 3 4 4 4 4 4 4
15 14 13 12 12 11 12 14 15 15 15 15 14 13 12 12 12 13 13 13 13 13 14 13 13 12 11 10 8 6 4 5 6 4 1 2 4 4 4 4 5 5
16 15 14 13 12 13 14 15 16 16 16 16 15 15 14 14 14 13 13 14 14 14 14 14 13 13 12 11 9 7 5 5 6 5 2 2 4 4 4 4 5 6
17 16 15 14 14 15 16 17 17 17 17 17 16 16 15 15 15 14 14 14 14 15 15 14 14 13 12 12 10 8 8 8 8 6 3 2 4 4 4 4 6 8
17 17 16 16 15 16 17 17 17 17 17 17 17 16 16 16 15 15 15 15 15 15 15 15 14 13 13 12 11 11 11 10 9 7 4 3 3 4 4 4 6 8
17 17 17 16 16 17 17 17 17 17 17 17 17 17 16 16 16 16 16 16 16 16 16 15 15 14 13 12 12 12 12 11 10 7 5 4 4 4 4 5 6 8
17 17 17 16 17 17 17 17 17 17 17 17 17 17 16 16 16 16 16 16 16 16 16 15 15 14 14 13 13 13 11 10 10 8 6 5 4 5 6 6 8 8
16 16 16 17 17 17 17 17 17 17 17 17 17 17 17 16 16 16 16 16 16 16 16 15 15 15 14 12 12 12 11 10 10 9 7 6 6 7 7 7 8 9
15 15 16 17 17 17 17 17 17 17 18 18 17 17 17 17 16 16 16 16 16 16 16 16 15 14 13 13 12 12 11 10 10 9 7 7 7 8 9 9 9 9
15 15 16 17 17 17 17 17 18 18 18 18 18 17 17 17 17 16 16 16 16 17 16 16 15 14 13 13 12 12 11 10 9 9 9 8 7 8 9 9 9 8
14 15 16 17 17 17 17 18 18 19 18 18 18 18 18 17 17 17 17 17 16 17 16 15 15 14 14 13 13 12 11 10 10 10 10 9 8 8 8 8 8 8
14 15 16 16 17 17 17 18 18 18 18 18 18 18 18 18 18 18 17 17 17 16 16 15 15 14 14 13 13 12 11 11 11 11 10 10 9 8 8 8 8 9

ECMWFNIL_850_dewp_012.txt.gz
Dewpoint
12 10 8 9 10 10 12 13 13 13 13 13 13 12 11 11 13 14 13 14 14 14 12 11 11 11 11 11 10 10 8 6 2 -3 -6 -6 -2 3 6 7 7 7
11 10 8 8 9 9 11 12 13 12 13 13 12 11 10 11 13 13 13 13 14 13 12 11 11 11 11 11 11 10 8 6 3 -2 -5 -5 -3 2 6 6 6 7
10 9 9 8 8 9 10 12 13 13 13 13 12 11 11 12 13 13 13 13 13 12 11 11 11 11 12 11 11 10 7 6 4 0 -2 -3 -3 -0 4 6 7 9
9 9 10 10 9 9 10 11 13 13 13 13 13 12 12 12 13 13 13 12 13 12 11 11 11 12 12 11 11 10 7 4 5 3 0 -0 -2 -2 2 6 8 9
8 8 11 11 11 10 10 11 12 12 12 13 13 13 13 13 12 13 13 12 12 12 11 11 12 12 12 10 7 6 4 2 3 3 1 0 -0 -0 3 6 8 9
10 9 10 12 12 10 10 11 12 12 12 13 13 13 13 13 12 12 12 12 12 12 12 11 12 13 12 8 2 -0 -1 -2 -0 1 -1 -0 1 1 4 7 8 9
13 10 10 12 13 12 11 12 12 12 12 13 13 13 12 12 12 12 12 12 12 12 12 12 12 13 11 8 2 -4 -4 -3 -2 -2 -2 -1 1 1 3 5 8 9
14 13 11 11 13 13 12 12 12 12 12 13 13 13 12 12 12 12 12 12 12 12 12 12 13 12 12 10 4 -5 -5 -3 -3 -2 -2 -1 0 0 1 3 5 8
15 14 13 12 12 13 13 13 13 12 12 13 13 13 12 12 12 12 12 13 13 13 13 13 13 13 12 12 6 -3 -5 -3 -3 -2 -1 -0 1 1 1 2 3 5
16 15 14 13 13 12 13 13 13 13 13 13 13 13 12 11 12 12 12 13 13 13 13 13 13 13 13 13 8 -1 -5 -2 -2 -1 -0 0 1 1 2 3 3 3
16 16 15 14 13 12 12 13 14 14 13 13 13 13 12 12 12 12 12 12 13 12 13 13 13 13 13 13 10 3 -3 -2 -1 -1 -0 0 1 2 3 3 3 2
16 16 15 15 14 12 11 12 14 14 13 13 13 12 11 12 13 12 12 11 12 13 13 13 13 13 13 13 11 6 1 -1 0 0 1 0 1 2 3 3 3 2
16 16 15 15 14 13 12 12 14 14 14 13 12 12 11 12 12 12 11 11 12 13 14 14 14 14 13 13 12 9 5 2 1 2 2 1 1 1 3 3 2 2
16 15 15 14 14 14 13 13 13 14 14 14 13 12 11 11 11 12 12 12 13 14 14 14 14 14 14 13 12 11 8 4 3 4 3 2 1 1 3 4 3 2
16 16 15 14 14 15 14 13 14 15 15 15 14 13 11 11 12 13 13 14 14 14 14 15 14 14 14 14 13 12 10 7 5 5 5 4 2 1 2 3 3 3
16 16 16 15 15 15 14 14 15 16 16 16 15 14 13 13 14 14 14 14 14 14 15 15 15 14 14 14 14 13 12 9 7 6 6 5 4 3 2 3 3 3
16 16 16 16 15 15 15 15 16 17 17 17 16 16 15 15 15 15 15 14 14 14 15 15 15 14 14 14 14 14 12 10 8 7 7 6 5 5 3 2 3 4
16 16 16 16 16 15 15 16 17 17 18 17 17 16 15 15 15 15 15 15 15 15 15 15 15 15 14 14 14 14 13 12 10 8 8 8 6 6 5 2 2 3
16 16 16 16 16 16 16 17 17 18 18 18 18 17 16 15 16 16 15 15 14 14 14 14 15 15 15 15 15 15 14 13 12 9 9 9 8 7 7 4 2 3
16 16 16 16 16 17 17 18 18 18 18 18 17 17 16 16 16 16 15 15 15 14 14 14 14 14 15 15 15 15 14 13 12 10 9 10 9 8 8 6 3 2
16 16 16 16 17 17 18 18 18 18 18 18 17 17 17 17 16 16 16 15 15 15 15 15 14 14 15 15 16 15 15 14 12 11 10 11 10 9 8 7 4 2
16 16 16 17 17 17 18 18 18 18 18 17 17 17 17 17 17 16 16 16 16 16 15 15 15 15 15 16 16 16 15 14 13 12 11 12 11 9 8 7 5 3
16 15 16 17 17 17 17 17 18 18 17 17 17 17 17 17 17 16 16 16 16 16 16 16 15 16 16 16 17 16 16 14 13 12 12 11 10 8 8 8 6 4
16 16 16 17 17 17 17 17 17 17 17 16 17 17 17 17 17 17 17 17 17 16 16 16 16 16 16 17 17 16 16 15 13 13 13 11 9 8 8 8 6 4
16 16 16 16 16 17 17 17 17 16 16 16 17 17 17 17 17 17 17 17 17 17 17 17 17 17 17 17 17 16 16 15 13 13 13 11 9 8 9 8 7 6
16 16 16 16 16 16 17 17 16 16 16 17 17 17 17 17 17 17 17 17 17 17 17 17 17 17 17 17 16 16 15 14 13 13 12 10 9 9 9 8 8 9

ECMWFNIL_850_dewp_015.txt.gz
Dewpoint
15 14 14 14 14 13 13 13 13 13 12 12 12 12 12 12 12 14 14 14 14 14 14 13 13 13 12 11 10 11 11 10 10 9 9 8 3 -0 2 3 6 8
15 15 14 14 14 13 12 12 12 13 13 12 12 12 12 12 12 13 14 14 14 14 13 13 13 13 12 11 10 11 11 11 10 9 9 6 1 -4 -2 1 5 8
15 15 15 14 14 13 12 12 12 13 13 13 12 12 12 12 13 13 14 13 13 14 13 13 13 13 12 11 11 11 11 11 9 8 6 3 -3 -6 -5 -0 5 8
15 14 15 14 14 13 13 12 12 12 13 13 13 13 12 12 13 13 13 13 13 14 13 13 13 13 12 11 11 11 11 11 9 8 6 2 -3 -6 -6 -1 5 7
14 14 14 14 14 13 13 12 12 11 12 13 13 13 13 13 13 13 13 12 13 14 14 13 13 12 11 11 11 11 11 10 9 9 8 4 0 -3 -5 -2 3 5
14 14 14 14 14 14 13 12 10 10 11 11 13 13 13 13 13 12 12 11 12 13 14 13 13 12 11 10 11 11 10 9 8 8 7 5 2 -0 -2 -3 0 2
15 14 14 14 14 14 13 12 10 9 9 10 12 13 13 13 13 13 12 11 11 13 14 13 12 11 10 10 10 11 10 9 8 8 7 5 3 1 -0 -2 -2 -0
14 14 14 14 15 14 13 11 10 8 8 9 10 12 13 13 13 13 12 12 12 12 13 13 12 11 10 10 10 10 10 9 7 6 5 5 3 1 -1 -1 -1 -1
14 14 14 15 15 15 13 10 8 7 7 8 9 11 12 13 13 13 13 13 12 12 13 13 12 11 10 10 10 10 10 9 7 4 1 1 0 -1 -1 -1 -0 0
15 15 15 15 15 14 12 9 7 7 7 8 9 10 12 13 13 13 13 13 13 13 13 13 12 11 10 10 10 10 10 10 8 3 -3 -4 -2 -2 -1 -1 -0 1
15 15 15 15 15 14 13 10 8 8 8 8 9 10 11 13 13 13 13 14 13 13 13 13 12 12 11 10 10 11 11 11 10 6 -2 -5 -3 -3 -2 -1 -0 1
15 15 15 15 15 15 14 13 10 9 8 9 10 10 12 13 13 13 13 13 13 13 13 13 13 12 12 11 11 11 11 12 12 9 3 -4 -4 -2 -2 -1 0 1
15 15 15 15 15 15 15 14 13 11 8 9 10 11 12 13 13 13 12 13 13 14 13 13 13 13 12 12 12 12 12 12 12 12 7 -0 -4 -2 -1 -0 1 1
14 15 15 15 15 15 15 15 15 13 11 9 10 11 12 13 13 13 12 12 13 14 14 14 14 14 13 13 13 12 13 13 13 13 10 3 -2 -1 -0 0 1 2
15 15 15 15 15 15 15 15 15 15 13 11 10 10 12 13 13 13 13 13 13 14 14 14 14 14 14 13 13 13 13 13 13 13 12 7 1 -0 1 2 2 2
16 15 15 15 15 15 15 16 16 16 15 14 12 10 10 11 13 14 14 13 13 13 14 14 14 14 13 13 14 14 14 14 13 13 13 10 5 2 3 4 4 3
16 16 16 16 16 16 16 16 16 16 16 15 14 12 9 9 11 13 14 14 13 13 14 14 14 13 13 13 14 14 14 14 14 14 13 12 9 5 5 6 6 4
16 16 16 16 16 16 16 16 17 17 16 16 15 14 11 9 10 11 13 14 14 14 14 14 12 12 13 14 14 15 15 15 15 14 14 13 12 9 6 7 7 5
16 17 16 16 16 16 17 17 17 17 17 16 16 15 13 11 9 9 11 13 14 14 13 12 11 12 13 14 14 15 15 15 15 15 14 14 14 11 8 7 8 7
17 17 16 16 16 16 17 17 17 17 17 16 16 16 15 13 10 9 10 11 13 13 13 12 12 11 12 13 14 15 16 16 15 15 15 14 14 13 10 8 8 8
16 16 16 16 17 17 17 17 17 17 17 17 17 17 16 13 11 10 9 9 11 12 13 13 12 11 12 13 14 16 16 16 15 15 15 14 14 14 12 9 9 9
16 16 16 16 17 17 17 17 17 17 17 17 17 17 16 15 13 12 11 10 10 11 12 12 11 11 12 13 15 16 16 16 15 15 15 14 14 14 12 11 10 10
15 16 16 16 17 17 17 17 17 17 17 17 17 17 17 16 14 14 13 11 9 9 11 11 11 11 12 14 15 16 16 16 16 16 15 15 15 14 13 12 12 11
15 15 16 16 16 17 17 17 17 17 17 17 17 17 17 16 15 15 14 11 9 9 10 10 10 11 12 14 16 16 17 16 16 16 15 15 15 14 13 12 12 12
14 15 15 15 16 16 17 17 17 17 17 17 17 17 17 16 16 16 15 13 11 10 10 11 12 12 13 15 16 16 17 16 16 16 15 15 15 14 13 13 12 12
14 15 15 15 15 15 16 16 16 17 17 17 17 17 17 17 17 16 16 15 14 13 12 13 14 14 15 16 17 17 17 16 16 16 16 15 15 14 14 13 13 12

ECMWFNIL_850_dewp_021.txt.gz
Dewpoint
12 11 11 11 10 10 10 10 9 9 9 8 9 9 10 10 10 11 11 11 11 11 12 13 14 15 15 15 14 13 13 13 12 11 9 8 7 6 5 4 3 3
12 13 12 12 12 12 12 11 11 10 10 9 10 10 10 11 11 11 12 12 12 12 12 13 14 14 15 15 15 14 14 13 12 11 9 7 6 4 3 1 -1 -2
12 13 13 13 12 13 13 13 12 11 11 10 10 10 11 11 11 11 12 12 12 12 12 13 13 14 15 15 15 15 14 13 12 10 8 6 4 3 2 0 -2 -4
12 12 12 12 12 13 13 13 13 12 11 11 10 11 11 11 11 12 12 12 12 12 12 13 13 13 14 15 15 15 14 13 12 10 8 6 3 2 2 0 -2 -5
11 11 12 12 12 13 13 13 13 12 12 11 11 11 10 10 11 11 12 12 12 12 12 13 13 13 14 14 14 15 14 13 12 10 9 7 3 1 1 0 -1 -5
11 11 12 12 12 12 12 13 13 13 12 12 11 11 11 11 11 11 11 12 12 11 12 12 13 13 13 14 14 14 13 12 12 10 9 8 5 3 1 -0 -1 -4
9 11 11 12 12 12 13 12 12 12 12 12 12 12 12 12 11 11 11 11 12 12 11 12 12 12 12 13 13 13 13 12 12 11 10 8 7 5 2 0 -1 -3
9 10 10 11 12 13 13 13 12 12 12 12 12 12 12 12 12 11 11 11 12 12 11 12 12 12 12 13 12 12 12 12 11 11 10 9 7 5 3 1 -0 -2
10 10 10 11 12 12 12 13 13 13 12 12 12 13 13 12 12 11 11 11 11 12 11 12 12 12 12 12 12 12 12 12 11 10 10 9 7 5 3 2 0 -2
11 11 11 11 12 12 13 13 13 13 12 12 12 13 13 12 12 12 11 11 11 11 11 11 12 12 12 12 12 12 12 11 11 10 10 9 8 6 4 2 0 -2
11 11 12 12 12 13 13 13 13 13 13 12 13 13 13 13 13 13 12 11 10 10 11 11 11 11 11 12 12 11 11 11 11 10 10 9 9 7 6 3 0 -2
10 11 12 12 12 12 12 12 13 13 13 12 13 13 13 13 13 13 12 11 10 10 10 10 11 11 11 11 12 11 11 10 11 11 10 10 9 9 8 6 2 -2
10 10 10 11 11 11 11 12 12 13 13 12 12 13 13 13 13 13 12 11 11 10 9 10 10 10 10 11 12 11 11 10 10 11 11 11 10 9 9 8 6 2
10 10 10 10 10 10 10 11 11 12 12 12 12 13 13 13 13 13 12 12 11 11 10 9 9 10 10 10 11 11 11 11 10 11 11 11 10 9 9 9 8 7
10 10 10 10 11 11 10 11 11 12 12 12 12 13 13 13 13 13 13 13 12 11 11 10 9 9 9 10 10 11 11 11 10 10 10 10 11 10 9 9 9 9
11 11 11 11 11 11 11 11 11 12 12 12 12 13 13 13 13 14 14 14 13 12 11 10 9 8 8 9 10 10 11 11 11 10 10 10 11 10 10 9 10 11
11 11 11 11 12 12 11 11 11 12 12 12 12 13 13 13 14 14 14 14 13 12 11 11 9 7 7 8 9 10 11 11 11 11 10 10 11 11 11 10 10 11
12 12 12 11 12 12 12 12 12 12 12 12 12 13 13 13 14 14 14 14 14 13 11 10 9 7 7 8 8 9 11 11 11 12 12 11 11 11 11 10 10 11
12 12 12 12 12 12 12 12 12 12 12 12 12 13 13 13 14 14 14 14 14 13 11 10 8 7 7 8 8 9 10 11 11 12 12 12 12 11 11 11 11 11
12 12 12 12 12 12 13 12 12 12 12 12 13 13 13 13 14 14 14 14 14 13 11 9 8 7 7 8 8 9 10 11 11 12 12 13 13 13 12 12 11 11
12 12 12 12 12 12 13 13 12 12 12 13 13 13 13 14 14 14 14 14 14 13 12 11 10 8 7 8 8 9 10 11 12 12 12 13 13 13 13 12 12 12
12 12 12 13 13 13 13 13 13 13 13 13 13 13 14 15 15 14 14 14 14 14 13 14 13 10 6 7 8 9 11 12 13 13 13 12 13 13 14 13 13 12
12 12 13 13 13 13 13 13 13 13 13 13 13 13 13 14 15 15 15 15 15 14 14 14 14 12 8 8 9 10 11 13 14 14 14 13 13 13 14 14 13 12
11 12 12 13 13 13 13 13 13 13 13 13 13 14 14 14 15 16 17 17 15 15 14 14 15 14 12 11 12 12 12 13 14 15 15 14 14 14 14 14 14 13
11 12 12 13 13 13 13 13 14 13 14 14 14 14 14 15 15 17 18 17 16 16 16 15 15 15 14 14 14 14 14 14 15 15 15 15 15 15 15 14 14 14
11 12 12 12 12 13 13 14 14 14 14 14 14 15 15 16 17 17 17 17 17 17 17 16 15 15 15 15 15 15 15 15 16 16 15 15 15 15 15 15 14 14

ECMWFNIL_850_dewp_024.txt.gz
Dewpoint
10 10 11 11 10 9 9 8 8 8 8 8 8 8 8 8 9 9 9 9 10 12 12 12 12 13 14 14 14 15 15 14 13 14 16 16 15 13 11 10 11 12
9 9 10 11 10 9 9 8 8 8 8 8 8 8 7 8 8 8 9 9 10 12 12 12 12 13 14 15 14 14 15 15 14 14 16 15 12 11 9 8 8 8
9 9 10 10 9 8 9 8 8 8 8 8 8 8 8 8 8 8 9 9 10 11 12 12 12 13 14 15 14 14 15 15 14 14 15 13 11 9 7 7 9 8
8 9 10 9 8 9 10 10 9 8 8 8 8 9 9 9 8 8 9 9 10 11 12 12 12 13 14 14 13 13 14 14 14 14 15 14 11 8 5 5 9 10
6 8 8 7 8 10 10 11 10 10 9 9 9 9 9 9 9 9 9 10 10 11 11 12 12 12 13 13 13 13 13 13 13 13 15 15 13 9 5 2 5 8
5 6 7 7 8 9 11 11 11 11 11 11 11 10 10 9 9 9 10 10 10 11 11 12 12 11 12 13 13 13 13 12 12 12 14 15 14 11 6 3 2 3
4 5 5 6 7 8 9 10 11 11 11 11 11 11 10 10 9 9 10 10 10 11 11 11 11 11 11 12 13 13 13 12 12 12 14 15 15 12 8 5 3 2
3 3 4 4 6 7 8 9 9 10 10 11 11 11 10 10 10 9 10 10 11 11 11 11 11 10 10 11 12 13 13 12 11 12 12 13 15 13 8 8 6 3
2 2 3 3 4 5 6 7 8 9 9 10 10 10 10 10 10 10 10 11 11 11 11 11 11 11 10 11 12 12 13 12 11 10 10 11 13 11 8 9 7 4
2 2 3 2 3 4 4 5 6 7 7 7 9 10 10 9 10 11 11 11 11 11 11 10 10 11 11 11 11 12 12 13 12 10 10 10 11 10 9 9 8 6
3 3 3 3 2 3 3 4 5 7 7 6 7 8 9 10 10 10 11 12 11 11 11 10 10 10 10 11 11 11 12 13 12 11 10 10 10 10 9 9 9 7
6 5 5 5 4 4 5 6 7 7 8 7 7 7 9 10 10 10 11 11 11 11 11 11 9 9 10 10 11 11 11 12 13 12 10 9 10 10 9 9 9 7
7 7 7 7 7 7 8 8 8 8 8 9 9 8 9 10 10 10 10 10 11 12 12 11 10 9 9 10 10 11 11 11 12 12 11 9 9 9 9 9 8 8
6 7 7 7 8 8 9 9 9 9 9 11 11 10 9 10 10 10 10 10 11 12 12 12 12 10 9 9 9 10 11 11 12 12 12 10 9 9 9 8 8 8
9 9 8 8 8 9 9 9 10 10 10 12 12 11 10 10 11 11 11 11 11 12 12 12 12 12 9 8 8 9 10 11 11 12 12 11 9 9 9 9 8 8
10 9 9 8 8 8 9 9 10 11 11 12 12 12 11 11 12 12 12 11 11 12 12 13 13 12 10 8 7 8 9 10 11 11 12 12 11 9 9 9 9 8
10 9 9 9 8 9 9 9 10 11 12 12 13 12 12 11 12 12 12 13 13 12 12 13 13 12 11 8 6 6 8 9 10 11 12 12 12 11 9 9 10 10
10 10 9 9 9 10 10 11 11 11 12 13 13 13 13 12 12 13 13 13 14 14 13 13 13 12 11 9 6 5 7 8 9 10 10 11 12 12 10 9 10 10
10 10 9 9 10 10 11 12 11 11 12 12 12 13 13 13 13 13 14 15 14 15 15 13 13 13 12 11 9 6 5 7 8 9 9 10 11 12 12 10 10 10
10 10 10 10 11 11 12 12 11 11 11 11 13 13 14 16 16 15 17 18 16 16 17 16 14 13 13 12 11 9 7 6 7 8 9 9 10 11 12 12 11 10
9 9 9 10 11 11 12 12 11 11 11 11 13 13 14 17 17 16 18 19 17 17 18 18 16 14 13 13 13 11 9 8 8 8 8 8 9 10 11 12 12 12
8 9 9 10 11 11 12 12 11 11 11 12 13 14 15 17 17 17 18 19 18 17 18 18 18 17 14 13 13 12 11 9 8 8 8 8 9 9 10 11 12 12
9 9 9 10 11 12 11 11 11 11 12 13 13 14 15 16 16 17 18 18 18 17 17 18 18 18 15 14 13 12 11 8 6 7 8 8 8 8 9 11 11 12
10 10 10 11 11 11 11 11 12 12 13 13 13 14 15 15 16 17 18 18 18 18 17 18 18 17 17 16 14 13 11 9 7 7 7 7 7 8 9 10 11 12
10 10 10 10 10 10 11 12 13 13 13 14 14 14 15 16 17 18 17 17 18 18 18 18 18 18 17 17 15 14 13 11 9 8 8 7 7 8 8 9 11 12
9 9 9 10 10 11 12 12 12 13 14 14 14 15 16 16 17 18 17 18 18 18 18 18 18 18 18 18 17 16 15 14 13 11 9 8 7 7 8 10 11 13

ECMWFNIL_850_dewp_027.txt.gz
Dewpoint
7 8 8 8 8 8 10 12 14 14 12 12 14 13 10 8 10 14 16 14 11 9 11 11 11 12 13 13 14 14 15 15 15 14 13 13 16 16 15 16 14 13
6 7 7 7 8 8 8 9 12 13 11 10 12 14 14 12 9 10 12 11 9 9 10 11 11 13 13 12 14 15 15 15 14 14 13 13 15 16 15 16 15 13
7 6 7 7 7 8 8 9 10 11 11 10 9 11 15 15 13 9 8 9 9 8 9 11 12 13 12 12 13 15 15 15 14 14 14 14 15 15 16 16 15 14
7 7 7 8 8 8 9 9 9 9 10 10 8 8 11 14 15 13 9 8 9 9 9 10 11 12 12 12 13 14 15 15 15 14 14 14 13 14 16 16 16 15
7 8 8 8 9 10 10 9 8 8 7 7 8 8 8 11 14 14 12 9 8 9 9 9 10 11 11 12 13 14 15 14 15 14 14 14 14 13 15 16 16 16
8 8 8 8 8 9 10 9 7 8 7 6 7 8 8 7 9 12 13 11 9 9 10 11 10 9 11 11 12 14 14 14 15 14 13 14 14 14 14 16 16 15
6 7 7 7 8 8 8 8 7 7 7 6 7 7 7 7 7 9 10 11 11 10 11 12 11 9 10 11 11 13 13 13 15 15 14 13 14 14 14 15 16 16
6 6 6 6 7 7 7 7 7 7 6 6 6 6 7 7 7 8 9 11 12 12 11 12 11 10 10 11 11 11 12 12 14 15 13 12 13 14 12 13 15 15
5 5 5 5 5 6 7 7 6 6 5 5 6 6 6 7 8 9 9 10 11 12 11 10 11 10 9 10 10 10 11 12 12 13 13 12 14 15 13 12 13 13
3 4 3 3 4 4 5 5 5 6 5 4 5 6 6 7 7 9 9 10 10 11 11 10 10 9 9 9 10 10 11 11 11 13 13 12 14 15 14 11 11 11
2 3 2 2 2 3 3 3 4 6 5 3 3 5 6 8 7 7 9 9 9 9 10 10 9 9 8 8 9 10 11 11 11 12 13 13 13 14 15 13 10 9
0 2 2 2 2 2 3 3 4 8 10 8 4 2 5 8 8 7 7 8 8 8 9 9 9 9 9 8 8 10 11 11 11 11 12 12 12 13 14 13 11 9
1 -0 0 1 2 2 4 5 5 10 13 13 10 7 6 8 10 8 6 6 7 6 7 8 9 9 9 8 8 9 10 10 10 10 11 12 12 12 13 14 13 10
4 2 -1 -0 1 1 2 3 5 9 13 15 14 12 10 10 12 12 8 6 7 7 8 8 9 9 10 9 8 8 9 11 10 10 12 13 12 11 12 15 15 13
10 8 5 3 3 3 1 1 4 8 11 13 15 15 13 12 14 15 14 11 9 8 9 9 9 9 9 9 9 8 8 11 11 10 11 14 14 12 12 14 17 16
14 12 10 8 7 6 4 1 4 7 8 11 14 16 16 14 14 17 18 16 14 12 10 10 9 9 9 9 9 9 8 9 11 11 10 12 15 15 13 13 16 17
14 13 12 10 8 7 7 6 6 7 8 10 12 15 16 16 15 16 18 18 18 16 13 12 10 8 9 9 8 9 9 8 9 11 11 11 13 14 14 13 14 17
14 12 12 11 9 9 9 9 9 10 10 11 11 12 14 15 15 15 15 17 19 18 16 16 14 10 8 9 9 8 9 9 8 10 12 11 10 12 13 12 12 15
14 13 11 11 10 10 10 11 11 11 11 12 12 12 13 13 13 13 13 14 17 17 17 17 16 13 10 10 10 8 8 9 9 10 12 12 11 10 11 12 11 12
15 13 12 11 11 11 11 12 11 10 10 11 12 13 13 13 13 14 13 13 14 16 17 17 17 16 14 12 11 10 9 9 10 10 11 12 13 11 10 10 10 10
16 14 13 13 12 12 12 11 11 11 11 12 14 15 15 15 15 15 15 15 15 16 17 17 17 18 17 14 12 11 11 11 11 11 11 11 13 13 13 11 9 8
16 15 14 13 13 13 12 12 12 12 13 14 15 17 18 17 17 17 17 17 16 16 16 17 18 19 18 17 15 14 13 12 12 12 12 11 11 12 13 14 12 9
17 16 15 14 13 13 12 12 13 14 14 15 15 17 19 19 18 18 18 19 18 17 16 16 17 19 18 18 17 16 15 13 12 13 13 13 12 11 11 13 14 14
18 17 15 14 13 12 12 13 15 15 15 15 15 16 18 19 19 19 18 19 19 18 17 16 16 18 18 18 18 17 16 15 14 13 13 14 13 12 12 11 12 15
18 17 16 15 14 14 15 15 16 16 15 15 15 16 17 18 19 19 19 18 18 18 18 17 16 17 18 18 18 18 18 17 16 16 15 14 13 13 13 11 11 15
17 17 17 17 16 15 15 16 15 16 16 16 16 17 18 18 18 19 19 19 19 18 18 18 17 18 18 17 17 18 18 18 18 17 16 14 13 14 14 13 14 16

ECMWFNIL_850_dewp_030.txt.gz
Dewpoint
8 7 7 8 8 8 10 11 12 13 14 14 14 13 12 13 14 14 12 11 9 9 10 10 10 11 11 12 13 13 14 15 15 15 14 13 11 11 12 10 7 11
8 7 6 7 7 7 7 8 9 11 13 12 13 14 13 13 13 14 13 12 11 9 9 10 10 10 10 11 12 13 13 14 15 15 14 13 12 11 12 12 7 7
7 7 7 6 6 5 5 7 8 9 12 12 12 14 16 15 14 14 14 14 13 11 10 9 10 10 10 11 12 12 13 13 14 15 15 14 13 12 12 13 11 7
5 5 5 5 5 5 5 6 7 9 11 13 13 14 15 17 16 16 15 15 15 14 11 9 9 9 10 11 12 12 13 13 14 15 15 14 13 13 13 13 14 11
4 4 5 5 5 5 5 5 7 9 10 12 14 14 14 15 16 16 16 15 15 14 13 12 9 8 9 11 12 12 12 13 14 14 15 14 14 14 13 13 14 14
4 4 4 5 5 5 6 5 6 9 10 11 13 14 14 14 14 16 16 16 15 14 14 13 10 9 9 9 11 12 12 12 13 14 14 14 14 14 14 13 12 13
4 4 5 5 5 5 6 6 7 9 10 11 12 13 13 13 13 13 15 16 16 15 14 13 11 9 8 9 9 10 11 11 12 14 14 14 14 14 13 13 13 12
5 5 5 5 5 6 6 7 8 9 9 11 13 12 12 13 12 11 13 15 16 15 14 13 12 11 9 10 10 9 9 10 11 13 14 14 14 14 13 13 13 12
7 6 6 6 6 6 6 7 8 9 10 11 13 13 13 12 11 11 11 12 14 14 13 12 12 12 12 12 11 9 9 9 10 12 13 14 14 13 13 13 13 13
8 7 6 6 6 6 7 7 7 8 9 11 12 13 13 12 11 11 11 10 11 12 13 11 10 11 12 13 12 11 9 9 9 10 12 13 13 12 12 12 12 13
8 7 7 6 6 6 6 7 7 8 8 10 12 13 12 12 12 11 11 10 10 10 11 10 10 11 12 13 13 12 11 9 9 9 10 12 12 12 12 12 12 12
6 7 8 7 5 6 6 6 7 8 8 9 11 12 12 12 12 11 10 10 9 8 9 9 10 10 11 11 12 13 12 11 9 9 9 10 12 12 12 12 12 12
6 4 7 8 6 6 7 8 8 9 10 11 12 12 12 12 12 11 10 8 7 6 7 8 9 10 10 11 11 12 13 12 10 9 8 9 11 12 12 13 13 13
9 4 4 5 5 6 7 9 10 10 12 13 13 14 14 13 12 12 11 9 8 7 5 6 8 9 10 11 11 11 12 12 11 10 9 9 9 11 12 13 13 13
12 8 5 4 5 6 6 8 10 11 12 14 14 14 14 14 14 14 13 12 10 9 7 8 8 8 9 10 10 10 11 12 12 11 11 11 10 10 12 13 13 13
15 13 10 7 5 5 6 6 8 10 12 13 14 15 14 14 15 16 16 15 14 12 11 10 10 10 9 8 8 9 9 11 12 12 12 12 12 11 12 14 14 13
15 14 13 11 8 6 5 5 6 8 11 12 14 14 14 14 15 15 16 16 16 15 14 12 11 10 9 7 7 7 7 9 10 11 13 13 13 13 13 14 14 14
16 15 14 13 11 9 7 6 6 7 9 11 12 13 14 15 15 15 15 15 17 17 16 15 12 10 8 8 7 6 6 8 9 10 13 14 14 14 13 14 14 14
17 16 15 14 13 11 10 8 7 7 8 10 11 12 14 14 14 14 14 14 15 16 16 16 14 12 10 9 9 9 8 8 9 9 11 12 13 14 14 14 14 14
17 17 16 15 14 13 12 12 10 8 8 9 11 12 13 13 13 13 13 13 13 13 15 15 15 15 14 13 12 11 11 10 10 10 10 10 12 13 14 14 14 14
17 17 17 16 16 15 15 14 13 12 11 11 12 13 13 12 12 13 13 13 13 13 14 15 15 16 16 16 15 14 13 12 12 12 11 11 11 12 14 14 14 14
17 17 17 17 17 17 16 15 15 14 14 13 13 14 15 14 13 13 14 14 15 15 15 15 15 16 17 16 16 16 16 14 14 14 13 12 12 12 13 14 15 15
17 17 17 17 17 17 17 17 16 16 16 15 15 16 16 16 15 14 14 15 15 16 15 15 15 16 16 17 17 17 17 16 15 15 15 13 12 13 13 13 14 15
16 17 17 17 17 18 18 18 17 17 17 17 17 16 17 17 17 17 16 16 16 16 16 15 15 15 16 16 17 18 18 18 17 16 16 15 14 14 14 14 14 15
16 17 17 17 18 18 19 18 18 17 17 18 17 17 17 17 18 18 18 18 17 17 17 17 16 16 15 15 16 18 18 18 18 18 17 16 16 16 16 15 15 15
17 17 17 18 19 19 19 18 18 18 18 18 18 18 17 17 18 18 19 19 19 18 18 17 17 17 16 16 16 17 18 18 18 19 18 17 18 18 17 16 16 16

ECMWFNIL_850_dewp_033.txt.gz
Dewpoint
7 6 5 5 4 4 4 4 6 8 9 12 13 13 12 11 11 11 10 10 10 10 10 9 10 11 12 13 13 13 14 14 14 14 14 13 11 10 10 9 9 8
7 6 5 5 4 4 4 5 5 7 8 10 11 12 12 12 11 10 9 10 10 11 11 11 10 11 11 12 13 13 13 13 13 13 14 14 12 11 10 9 10 9
6 6 5 4 4 4 4 5 6 7 8 9 11 11 11 12 11 10 9 9 10 10 10 11 11 10 10 11 11 12 12 13 12 12 13 13 13 12 11 10 10 10
6 6 5 4 4 4 4 5 7 8 8 9 10 10 10 11 12 11 10 10 10 10 9 10 10 10 10 10 10 11 11 12 12 12 12 13 13 12 12 11 10 10
5 5 5 5 4 4 5 5 7 8 8 8 8 9 9 10 11 11 11 11 10 10 10 10 10 10 9 9 10 10 10 11 12 12 12 12 13 12 12 12 11 11
7 6 5 4 4 4 4 5 6 7 7 6 6 7 7 9 10 11 11 11 11 11 11 10 10 10 10 9 9 9 10 10 11 11 12 12 13 12 13 13 12 11
8 7 5 5 4 4 4 3 4 5 5 5 5 5 6 8 9 11 12 12 12 12 12 11 10 10 10 9 9 8 9 10 10 10 11 11 12 12 13 13 13 12
9 8 7 6 5 5 4 3 4 4 4 4 5 5 5 7 8 10 12 13 13 13 12 12 11 10 10 9 9 8 8 9 10 10 10 11 11 12 12 12 13 13
11 10 9 8 8 7 6 4 4 3 4 4 4 5 5 6 8 9 11 13 14 14 13 12 11 11 10 9 8 8 8 8 9 9 9 10 10 11 11 11 12 12
13 11 10 10 9 8 7 5 4 4 4 4 4 5 6 6 8 9 11 12 13 14 14 13 11 10 10 9 8 8 8 7 8 8 8 9 9 9 10 11 11 11
12 12 12 11 9 8 7 6 5 4 4 5 5 5 6 7 8 10 12 12 12 11 12 12 11 10 9 8 7 7 7 7 8 8 8 8 8 8 9 9 10 10
12 12 12 10 9 8 7 6 6 5 5 5 5 5 6 7 8 10 11 11 11 10 9 9 9 9 9 7 7 7 7 7 8 8 8 8 8 8 8 8 9 10
13 11 10 9 8 8 7 7 7 7 6 6 5 6 7 7 8 9 10 10 9 9 8 7 7 8 8 8 8 8 7 7 7 7 8 8 8 8 8 8 8 9
12 10 8 8 8 8 8 7 7 7 7 7 6 6 7 8 8 8 9 9 8 8 8 8 7 8 8 8 8 8 8 8 7 7 7 7 8 8 8 8 8 8
14 11 9 8 8 8 8 7 7 7 8 8 8 7 7 8 9 9 9 9 10 9 9 9 9 9 8 7 7 7 7 8 7 7 7 7 7 8 8 8 8 8
16 14 11 9 9 8 7 7 7 7 8 9 9 8 8 9 10 11 10 10 10 10 10 10 10 9 8 7 7 6 7 7 7 7 7 7 7 8 9 9 8 8
17 16 14 11 9 8 7 7 7 7 8 9 10 9 9 9 10 12 11 11 11 11 11 11 10 9 9 8 8 8 8 8 8 8 8 8 8 8 8 8 9 9
18 17 16 14 11 10 8 6 6 8 9 9 10 10 9 9 10 11 11 11 11 11 11 11 10 9 9 9 9 9 9 9 10 10 10 10 10 10 9 9 9 10
18 17 17 16 14 12 10 9 8 9 9 9 9 10 9 9 7 8 9 11 12 11 10 10 9 9 9 10 10 10 10 11 11 11 11 11 11 11 11 11 11 11
17 17 17 17 16 15 14 13 11 10 9 8 9 10 11 10 8 7 7 9 10 10 10 9 9 8 9 10 11 11 12 12 12 12 12 12 12 12 12 13 13 13
17 17 17 16 16 16 16 15 14 12 11 11 11 11 11 9 9 8 6 6 7 9 11 10 9 9 10 11 12 12 13 13 14 14 14 14 14 13 13 14 14 14
17 17 17 16 16 16 16 16 15 15 13 13 13 13 12 11 10 10 9 8 8 10 11 11 10 11 12 13 13 14 15 15 16 16 16 16 15 15 15 15 15 15
17 17 17 16 16 16 16 16 16 16 15 14 14 14 14 13 13 12 12 11 11 11 11 11 11 13 14 15 15 16 17 17 17 17 17 17 16 16 16 16 16 16
16 16 17 17 17 16 16 16 16 16 16 16 15 15 15 14 14 14 14 14 13 13 13 13 13 14 15 16 16 17 17 18 18 18 18 18 18 18 17 17 17 16
16 16 16 17 17 17 16 16 16 16 16 16 16 16 15 15 15 15 15 15 15 14 14 14 15 15 16 16 16 17 17 18 19 19 19 19 19 18 18 18 17 17
15 16 16 17 17 17 17 17 17 17 17 17 17 17 16 16 16 16 16 15 15 15 15 15 15 16 16 16 16 17 17 18 18 18 19 19 19 19 19 19 18 18

ECMWFNIL_850_dewp_036.txt.gz
Dewpoint
13 12 12 12 11 10 9 8 8 8 8 7 6 5 5 6 8 10 12 11 10 9 9 9 10 11 12 13 13 13 12 13 13 14 14 14 13 13 12 10 10 9
13 12 11 11 11 11 10 9 8 7 7 6 5 4 5 6 7 10 11 11 10 9 9 9 9 9 10 12 13 13 13 12 12 13 13 13 14 14 13 11 10 10
13 12 12 11 11 11 10 10 9 8 7 5 5 4 6 6 6 9 10 10 10 9 9 9 9 9 9 10 11 12 12 12 12 12 12 13 13 13 13 12 11 10
14 13 12 11 10 9 9 9 9 8 7 6 4 4 6 6 6 7 8 9 9 9 10 9 10 10 10 10 11 11 11 11 11 12 12 12 12 13 13 13 12 11
14 13 12 10 9 9 9 9 8 6 6 5 4 3 5 7 6 6 7 8 8 8 8 9 9 10 10 10 11 11 11 10 10 11 11 11 11 12 12 13 12 11
14 14 13 11 10 9 8 6 4 4 4 3 3 4 5 6 7 6 6 7 7 7 7 7 8 9 9 9 10 10 10 10 10 10 10 10 11 11 12 12 12 12
14 14 13 12 11 10 8 5 4 3 3 3 3 4 5 6 7 7 7 7 7 7 6 7 7 8 8 8 9 9 9 10 10 10 10 10 10 10 11 11 12 12
14 13 12 12 12 12 10 8 6 4 3 3 3 3 4 5 6 7 7 7 7 6 6 6 7 7 7 7 8 8 8 8 9 9 9 10 10 10 10 10 11 11
13 12 11 12 13 12 11 10 8 6 5 4 4 3 3 4 5 6 6 6 6 6 6 6 6 6 7 7 7 7 7 7 7 8 8 9 9 9 9 9 10 11
14 13 12 12 13 12 12 11 9 8 7 5 5 4 4 4 5 5 5 5 5 5 5 5 5 6 6 7 7 7 7 7 6 6 7 7 8 8 8 9 10 10
14 13 12 12 12 11 11 10 10 9 8 7 6 5 4 4 5 5 4 4 4 4 4 5 5 5 6 6 7 7 7 7 7 7 7 6 7 7 7 8 8 9
15 14 13 12 11 11 10 9 9 9 8 7 6 6 5 4 5 5 4 4 3 4 4 4 5 6 6 6 7 7 8 8 8 7 7 7 7 6 6 7 7 7
15 14 13 12 11 10 9 9 8 9 9 7 6 6 5 5 5 4 4 3 3 4 4 4 5 6 7 7 8 8 8 8 8 7 8 7 7 6 6 7 7 6
16 15 13 12 12 11 10 9 9 9 8 7 7 6 6 5 4 4 3 3 4 4 4 5 5 6 7 8 8 9 8 9 8 8 8 7 6 6 6 7 7 7
16 16 15 14 13 13 12 11 10 10 9 8 8 7 6 5 4 4 4 4 4 4 4 5 6 6 6 6 7 7 7 7 7 8 8 7 7 6 7 7 7 7
17 16 16 15 14 14 13 12 12 12 11 10 9 8 7 6 5 5 5 4 4 4 5 5 6 6 5 5 5 6 6 7 7 7 7 8 9 9 9 8 8 8
17 17 16 16 16 15 14 13 13 13 12 11 11 9 9 7 7 6 5 4 4 5 5 5 5 5 4 5 5 6 7 8 8 9 9 10 10 11 10 10 10 10
17 17 17 17 16 16 16 15 14 14 14 13 12 11 10 9 8 7 6 5 5 5 5 5 5 4 4 5 5 6 7 8 9 10 11 11 11 11 11 11 11 11
18 18 18 18 17 17 17 16 16 15 14 14 13 12 11 10 9 8 6 6 6 5 5 4 4 3 4 4 5 6 8 9 10 11 11 12 12 12 12 12 12 12
18 18 18 18 18 18 18 17 17 16 15 14 13 13 13 12 10 9 8 7 6 5 4 4 3 2 2 4 4 6 8 10 11 12 12 12 12 12 13 13 12 13
18 18 18 18 18 18 18 17 17 16 15 14 14 14 13 12 11 10 9 8 7 7 7 6 4 4 5 5 7 8 9 12 13 13 13 13 13 13 13 14 13 14
18 18 18 18 18 18 18 18 17 17 16 15 14 14 14 13 12 11 11 10 9 10 10 8 6 7 9 9 9 11 12 13 14 14 14 15 15 15 15 15 15 15
18 18 18 18 18 18 18 18 18 17 17 16 15 15 14 13 13 12 11 11 11 12 11 10 9 11 12 12 12 13 14 15 15 15 15 15 15 16 15 16 16 16
17 18 17 18 18 18 18 17 18 17 17 17 16 16 15 14 13 12 12 12 11 11 11 12 12 13 14 14 14 14 15 15 15 15 15 15 16 16 16 16 16 16
17 17 17 17 17 17 17 17 17 17 17 17 17 16 16 15 15 14 13 13 12 12 12 12 13 13 14 15 15 16 16 16 16 16 16 16 16 16 16 16 17 17
17 17 17 17 17 17 17 17 17 17 17 17 17 17 16 16 16 15 15 14 14 13 13 13 13 14 14 15 15 16 16 17 17 17 17 17 17 17 17 17 17 17

ECMWFNIL_850_dewp_039.txt.gz
Dewpoint
15 16 15 14 13 12 11 11 11 10 10 9 9 8 7 7 7 7 7 7 7 7 8 9 9 9 10 12 12 12 12 12 13 13 14 14 14 14 13 13 12 11
15 15 15 15 14 12 12 11 11 11 10 10 9 8 7 7 7 7 7 7 7 7 8 9 10 9 9 10 12 12 12 12 12 12 13 13 13 13 13 13 13 12
15 15 15 15 14 13 12 11 11 11 11 10 9 9 8 8 7 7 6 7 7 7 8 9 10 9 9 9 10 11 11 11 12 12 12 12 13 13 13 14 13 13
16 15 15 14 14 13 12 12 12 11 11 11 10 9 8 8 8 7 6 6 7 7 7 8 9 9 9 9 9 10 10 11 11 12 12 12 12 13 13 14 14 13
16 15 15 14 14 13 13 12 11 11 11 11 10 9 9 9 9 7 6 6 7 7 7 7 8 8 9 9 9 9 9 10 10 11 12 11 12 12 12 13 14 14
15 15 15 14 14 14 14 12 11 10 10 10 10 9 8 8 9 8 6 5 6 6 7 7 7 8 9 9 9 9 10 9 10 10 11 10 11 11 11 12 13 13
15 15 15 14 14 14 13 12 11 10 9 9 10 9 8 8 8 7 5 5 6 6 6 6 6 7 8 9 9 10 10 10 10 10 10 10 10 10 10 11 11 12
15 14 14 14 14 14 13 12 11 10 10 10 10 9 8 7 6 6 5 4 5 6 6 5 5 5 6 7 8 8 9 9 9 9 9 9 9 10 10 10 10 11
14 14 14 14 14 14 13 12 10 10 10 10 9 8 7 7 5 5 5 4 4 5 6 6 5 5 5 6 6 7 7 7 7 7 7 8 8 8 8 8 9 9
15 14 14 14 14 14 13 11 10 10 10 9 8 7 6 6 5 5 5 5 5 5 5 5 6 5 5 5 6 6 6 6 6 6 6 6 6 6 6 7 7 8
15 15 15 15 15 14 13 12 11 10 9 7 6 6 5 4 4 5 5 5 4 4 4 5 5 5 4 4 4 5 5 5 5 5 6 5 5 5 6 6 6 6
15 15 15 15 15 14 14 13 12 11 9 7 6 5 5 5 4 4 4 3 3 3 3 4 4 5 4 4 4 4 4 5 4 5 5 5 6 6 6 6 6 6
15 15 15 15 15 15 14 13 13 11 9 7 6 5 5 5 4 4 4 3 3 3 3 3 4 4 4 4 4 4 4 4 5 5 5 5 6 6 6 6 6 6
15 15 15 15 15 15 14 14 13 13 11 9 7 6 5 4 4 4 3 3 3 3 2 3 4 4 4 4 4 4 4 4 4 5 5 5 5 6 6 7 6 6
15 15 16 15 15 15 15 14 14 14 13 11 9 7 5 4 4 4 3 3 3 3 3 3 3 3 3 3 3 3 3 4 4 4 5 5 5 5 6 6 6 6
15 16 16 16 16 15 15 15 15 15 14 13 12 10 7 6 5 5 4 4 4 3 3 3 3 2 3 3 3 3 4 4 4 4 5 5 6 6 6 6 6 6
16 16 16 16 16 16 16 15 15 15 15 14 13 12 9 7 6 6 5 5 4 4 4 4 3 3 2 2 3 3 4 4 4 4 5 6 7 7 7 6 7 7
16 16 16 16 16 16 16 16 16 16 15 15 14 13 11 9 8 7 6 5 6 5 4 4 4 3 3 3 3 4 4 5 5 6 7 7 8 8 8 8 9 9
16 16 16 16 17 17 17 17 16 16 16 16 15 14 13 12 10 8 7 6 7 6 6 5 4 4 4 4 4 4 4 5 6 8 9 9 10 10 10 10 10 11
16 16 16 17 17 17 17 17 17 17 16 16 16 15 14 13 12 10 8 7 7 7 7 7 6 5 5 5 4 4 5 7 8 9 10 11 11 11 11 12 12 12
16 17 17 17 17 17 17 17 17 17 17 17 17 16 16 15 14 12 10 8 7 7 8 7 6 5 5 5 5 6 6 9 10 11 11 12 12 12 12 13 13 14
17 17 17 17 17 17 17 17 17 18 17 17 17 17 17 16 16 14 12 10 9 8 9 8 6 5 6 6 6 7 9 10 11 12 12 12 12 12 13 13 14 14
16 17 17 17 17 17 17 17 18 18 18 18 18 18 17 17 16 15 14 12 11 9 9 8 6 5 7 7 8 9 11 12 12 12 13 12 12 13 13 14 14 14
16 16 17 17 17 17 18 18 18 18 18 18 18 18 18 17 17 16 16 14 13 11 10 10 8 7 7 8 9 10 11 12 12 13 13 13 13 13 14 14 14 15
16 16 17 17 17 17 18 18 18 18 18 18 18 18 17 17 17 17 16 16 15 14 13 13 12 11 11 11 10 11 12 12 13 14 14 14 14 14 14 14 15 15
16 16 17 17 17 17 17 17 17 18 18 17 18 18 18 18 18 17 17 17 16 16 15 15 14 14 14 13 13 13 13 13 14 14 14 14 15 15 15 15 15 16

ECMWFNIL_850_dewp_045.txt.gz
Dewpoint
14 14 13 13 13 13 12 10 9 9 9 9 10 10 10 9 9 8 8 9 10 11 11 11 11 12 12 12 11 10 10 11 12 13 13 13 13 13 13 13 14 14
14 14 14 14 13 13 12 11 10 10 10 10 10 10 10 10 9 9 9 9 10 10 10 10 11 11 12 12 11 10 10 10 10 11 12 13 12 12 12 13 13 14
15 14 14 14 14 13 13 12 11 11 11 11 11 11 10 10 10 9 9 9 9 10 10 10 10 10 11 11 11 11 10 10 10 10 11 12 12 12 12 12 13 13
15 15 14 14 14 13 13 13 12 12 12 12 11 11 10 10 10 10 9 9 9 9 10 10 10 10 10 11 11 12 11 10 10 9 10 11 11 12 12 12 12 12
14 14 14 14 14 14 14 13 13 13 12 12 11 11 11 10 10 10 10 9 9 9 9 9 10 10 10 11 11 11 11 11 10 10 9 9 10 10 11 11 12 12
14 14 14 14 14 14 14 13 13 12 12 12 11 11 11 11 11 11 10 10 9 9 9 9 9 10 10 11 11 11 11 11 11 10 9 9 9 9 9 10 10 10
14 14 14 14 14 14 14 14 13 12 12 12 11 11 11 11 11 10 10 10 10 9 9 8 8 9 9 10 10 10 10 10 10 10 9 9 8 8 8 9 9 9
14 14 14 14 14 14 14 14 14 13 12 12 12 11 11 11 11 10 10 10 10 9 9 8 8 8 9 9 9 9 9 10 9 9 9 8 8 9 9 9 9 9
14 14 14 14 14 14 14 14 14 13 13 12 12 12 11 11 11 11 10 10 9 9 9 8 8 8 8 8 8 8 9 9 9 8 8 8 8 8 8 8 8 8
14 14 14 14 14 14 14 14 14 14 13 12 12 12 11 11 11 11 10 10 10 9 8 8 8 7 7 7 7 7 7 8 8 8 8 8 8 7 7 7 7 6
14 14 14 14 14 14 14 14 14 14 13 12 12 12 11 10 10 10 10 10 10 9 8 8 7 7 7 6 6 6 6 6 7 7 7 7 6 6 6 6 6 6
14 14 14 14 14 14 14 14 14 14 13 12 12 11 10 9 9 9 9 9 9 8 7 7 7 7 6 6 5 5 5 5 6 6 6 6 5 5 5 5 5 5
14 13 13 13 14 14 14 14 14 14 13 12 12 11 10 9 8 8 8 8 7 7 6 6 6 6 6 5 5 4 4 4 5 5 5 5 5 5 5 5 5 4
13 13 13 13 13 14 14 14 14 14 13 13 12 12 11 9 8 7 7 7 7 6 5 5 5 5 5 4 4 4 3 4 4 4 5 5 5 5 4 4 4 4
13 13 13 13 13 13 13 14 14 14 14 13 13 12 11 10 9 8 7 7 6 5 5 5 4 4 3 3 2 2 3 3 3 3 4 4 4 4 4 3 3 3
13 13 13 13 13 13 13 13 14 14 14 14 13 13 12 11 10 9 8 7 6 6 5 5 4 3 2 2 2 2 2 2 2 3 3 3 3 3 3 3 3 3
13 13 13 13 13 13 13 13 13 13 14 14 14 14 13 12 11 11 9 7 7 6 6 5 3 2 2 2 2 2 2 2 2 2 2 2 2 2 2 2 2 2
13 13 13 13 13 13 13 13 13 14 14 14 14 14 14 13 13 12 10 9 8 7 6 6 4 2 2 2 2 2 2 2 3 2 2 2 2 2 2 2 2 2
13 13 13 13 13 13 13 13 13 14 14 14 14 14 14 14 14 13 12 11 10 8 7 7 4 2 2 2 2 2 2 2 3 3 2 2 2 2 2 2 3 3
14 14 13 13 13 13 13 13 13 14 14 14 14 14 14 14 14 14 14 13 11 10 9 8 6 4 2 3 2 2 2 2 3 3 3 3 2 3 3 3 3 4
14 14 14 13 13 13 13 13 13 13 14 14 14 14 15 15 15 15 15 14 13 12 10 9 7 5 4 3 3 3 3 3 3 4 3 3 3 3 3 3 4 5
14 14 14 13 13 13 13 13 14 13 13 14 14 14 15 15 15 15 15 15 14 13 13 10 7 6 5 4 4 4 5 5 4 5 5 4 4 4 4 4 5 6
14 14 13 13 13 14 14 14 14 14 14 14 14 15 15 15 15 15 15 15 15 15 14 12 9 7 6 5 6 6 7 6 6 6 6 5 4 5 5 5 6 6
14 13 13 13 13 13 14 14 14 14 14 14 14 15 15 15 15 16 16 16 16 16 15 14 12 11 9 8 9 9 9 9 8 8 8 7 6 6 6 6 6 6
13 13 13 13 13 13 13 14 14 14 14 14 15 15 15 15 16 16 16 16 16 16 16 15 15 14 12 11 12 12 12 12 12 12 11 9 8 8 8 8 8 8
13 13 14 14 14 14 14 14 14 14 15 15 15 15 16 16 16 16 17 17 17 17 17 17 17 16 15 14 14 14 14 14 15 14 13 12 11 11 11 11 12 12

ECMWFNIL_850_dewp_048.txt.gz
Dewpoint
12 11 11 10 10 10 10 10 8 8 8 7 7 6 7 9 11 12 11 10 12 12 12 13 13 13 13 13 13 13 12 12 12 12 13 13 13 14 14 14 14 14
12 12 12 12 13 12 12 10 9 9 8 8 8 7 7 8 10 11 10 10 11 12 12 12 13 13 13 13 13 13 13 13 12 11 12 12 13 13 14 14 14 14
13 13 14 14 14 13 12 11 9 9 10 9 8 8 8 8 9 10 10 10 11 11 11 12 13 13 13 13 13 13 13 12 11 10 11 12 12 12 13 14 15 15
14 14 14 14 14 14 13 12 11 10 11 10 8 8 8 9 9 10 10 10 10 11 11 11 12 12 12 12 12 13 13 11 10 11 12 13 12 11 11 13 14 15
13 14 14 14 14 14 14 13 13 12 12 11 9 9 9 9 10 10 10 10 10 11 11 11 11 11 12 12 12 13 13 11 11 12 12 11 10 9 10 11 12 13
13 14 14 14 14 15 14 14 13 13 12 11 10 10 10 10 10 10 10 10 11 11 10 11 11 11 11 12 12 13 12 12 12 11 10 10 9 9 10 11 11 11
13 13 14 14 14 14 15 14 14 13 13 13 12 11 11 11 11 10 10 10 10 10 10 11 10 10 10 11 12 12 11 12 12 10 9 11 10 9 9 10 11 10
13 13 13 14 14 14 14 14 14 13 13 13 13 13 12 11 11 10 10 9 10 10 10 10 10 10 10 10 12 12 11 11 10 8 8 9 9 9 8 9 10 9
13 13 13 13 14 14 14 15 14 13 13 13 13 13 12 11 11 10 10 9 9 9 10 9 10 10 10 10 10 10 10 10 9 7 7 8 8 8 8 9 11 10
12 13 13 13 14 14 15 15 15 15 14 13 13 14 13 11 10 10 10 9 9 9 9 9 9 9 9 9 9 9 9 8 8 7 7 7 7 8 8 10 12 11
12 13 13 13 13 14 15 15 16 16 15 13 12 14 14 11 10 10 10 9 9 9 9 9 9 9 9 9 8 7 7 7 7 7 7 7 7 7 8 9 9 9
12 13 13 13 13 14 16 16 16 17 16 14 12 13 14 12 10 9 9 9 9 9 9 8 9 9 8 8 8 8 6 6 6 6 6 6 7 7 7 6 6 6
11 12 13 13 13 14 16 17 17 17 17 16 13 12 13 13 11 9 8 9 9 9 9 9 9 9 8 8 8 8 6 5 5 5 5 6 6 6 6 5 5 5
12 12 12 13 13 13 15 16 17 17 17 17 15 12 13 13 12 10 8 9 9 9 9 10 10 9 9 8 8 7 6 5 4 4 5 5 5 5 5 5 5 5
13 13 12 12 13 13 13 15 16 16 17 17 15 12 12 13 13 13 10 8 8 9 9 9 9 9 8 8 7 6 6 4 3 3 3 4 4 4 4 5 5 5
13 13 12 12 12 13 13 13 14 15 15 15 14 12 12 12 13 14 13 10 8 8 8 8 8 8 7 6 5 5 5 4 3 2 2 3 3 4 4 4 4 4
13 12 12 12 12 12 13 13 13 14 14 14 14 13 13 13 13 13 14 13 11 9 8 7 6 6 5 4 4 3 3 3 3 2 2 2 2 3 4 3 3 3
12 12 12 12 12 12 12 12 13 13 14 14 14 13 13 13 13 13 13 14 14 13 11 9 6 4 3 3 2 2 2 3 2 2 1 2 2 2 2 2 3 2
12 12 12 12 12 12 12 12 13 13 13 14 14 14 14 13 13 13 13 13 14 14 13 11 9 5 2 2 1 1 2 2 2 2 2 2 2 2 2 2 1 2
12 12 12 12 12 12 12 12 12 13 13 13 14 14 14 14 13 14 13 13 13 13 11 11 10 7 2 2 2 1 2 2 2 2 2 2 2 1 1 1 1 1
12 12 12 12 12 12 12 12 12 13 13 13 14 14 14 14 14 14 14 13 13 13 12 11 9 6 3 2 2 2 2 2 3 3 3 2 2 2 2 1 1 0
12 12 12 13 13 13 13 13 13 13 13 13 14 14 14 14 13 14 14 14 13 13 13 11 9 6 4 2 2 2 3 3 3 3 3 3 2 2 2 1 1 0
12 12 12 12 13 13 13 13 13 13 13 13 13 14 15 15 13 13 14 14 13 13 13 12 9 7 5 3 2 3 3 4 4 4 4 3 2 2 2 2 1 1
12 12 12 13 13 13 13 13 13 13 13 13 13 14 15 15 14 13 13 14 14 13 13 12 10 9 7 5 4 5 5 5 5 5 5 4 2 2 2 2 1 1
12 12 12 13 13 13 13 13 13 13 13 13 13 13 14 14 14 14 14 14 14 14 14 13 12 12 10 7 6 7 7 7 7 8 7 6 4 4 3 3 2 2
12 12 12 13 13 13 13 13 13 13 13 13 13 13 13 14 14 15 15 16 16 16 15 14 13 14 13 10 8 8 9 9 10 10 9 7 5 5 5 5 4 2

ECMWFNIL_850_dewp_051.txt.gz
Dewpoint
1 1 -0 0 1 3 9 13 12 8 5 8 11 11 10 10 10 13 16 16 13 12 11 12 13 13 13 12 12 12 12 11 14 15 14 13 14 15 17 17 17 17
5 5 4 4 4 5 9 12 13 12 8 5 10 14 14 12 9 8 12 15 14 13 12 11 12 13 12 12 12 12 12 11 11 14 14 13 13 15 16 17 17 17
8 8 7 7 8 8 10 12 12 11 10 7 7 13 15 15 13 9 6 10 13 14 13 12 11 12 13 13 12 12 12 11 11 13 14 12 11 13 16 17 17 17
9 9 9 9 11 11 11 13 13 10 10 11 10 12 14 15 15 13 7 7 10 13 14 13 11 12 13 13 13 12 11 11 10 12 12 10 10 11 14 16 17 17
11 10 11 10 12 14 14 14 15 13 12 14 14 13 14 16 16 14 8 7 9 10 12 12 11 11 12 13 13 12 11 12 12 11 10 10 10 11 12 14 15 15
12 12 12 12 12 14 15 15 15 15 14 15 15 15 15 16 16 14 9 8 9 10 12 13 11 10 12 12 13 12 11 13 15 13 10 10 11 12 14 15 15 13
13 13 13 13 13 14 15 15 15 15 16 16 16 16 16 17 16 14 12 9 8 10 13 14 12 10 12 12 12 12 12 12 15 15 13 10 11 11 13 16 16 13
12 13 12 12 14 15 16 15 14 15 16 17 17 16 17 17 16 14 13 11 10 9 12 14 13 10 12 14 12 11 12 11 13 14 13 9 10 11 11 13 14 13
12 13 12 12 14 16 16 16 15 15 15 16 16 16 17 17 16 15 14 12 11 11 10 12 13 12 12 14 13 10 10 11 13 14 13 9 8 10 10 10 11 11
13 13 13 13 15 16 16 16 16 16 16 16 15 16 16 17 16 16 15 12 10 11 10 9 11 12 10 11 12 10 9 10 12 14 14 11 7 9 10 9 9 10
13 14 15 15 15 16 16 16 17 16 17 16 15 15 16 16 16 16 15 13 10 10 10 9 8 9 8 9 10 11 9 9 10 11 12 11 8 9 10 10 11 12
14 15 16 16 16 16 16 16 16 16 17 17 17 16 16 16 16 15 14 14 12 10 10 9 8 8 8 8 11 12 11 9 10 10 9 9 8 8 8 8 9 10
15 14 16 16 16 16 16 16 16 16 16 16 17 17 16 16 16 15 13 12 11 10 10 9 8 8 8 7 9 12 13 11 11 12 11 10 9 8 9 10 9 9
16 15 15 16 17 16 16 16 16 16 15 16 17 17 16 16 16 16 14 13 12 10 10 10 8 8 8 8 7 9 12 13 12 12 14 14 13 11 11 12 13 14
16 16 15 15 16 16 16 16 16 16 16 15 16 17 17 16 16 16 16 16 15 12 10 10 10 8 8 8 7 6 9 12 12 11 12 15 15 15 14 13 12 13
16 17 16 15 15 16 16 16 17 17 16 16 16 17 17 16 16 16 16 17 17 15 13 11 11 10 8 6 7 6 6 9 10 9 9 11 13 14 14 14 13 12
17 17 17 16 15 15 15 15 16 17 17 16 17 17 17 17 16 16 16 17 17 17 15 13 13 13 11 7 5 6 6 5 7 8 6 6 8 10 9 9 10 11
17 17 17 16 14 14 13 13 16 17 17 17 17 18 18 17 17 17 16 17 17 17 16 15 15 14 12 8 5 5 6 6 5 6 6 6 6 7 5 4 4 6
17 17 17 15 14 13 12 12 14 16 18 18 18 18 18 17 16 16 16 16 17 17 17 17 16 16 13 8 6 5 5 6 6 5 6 9 10 7 4 2 -0 1
17 17 16 15 14 13 13 12 13 14 16 18 18 18 18 17 16 16 16 15 16 17 18 17 17 17 15 9 5 4 4 5 5 5 5 10 13 12 8 3 1 -0
17 17 16 15 15 14 13 13 12 12 14 16 18 18 17 16 15 16 16 15 15 16 18 18 16 17 17 13 7 4 3 3 4 5 4 6 9 10 8 4 2 1
17 17 16 16 15 14 13 12 12 12 13 15 17 18 18 17 15 15 16 16 15 15 17 17 17 16 17 15 10 4 3 4 3 4 4 3 3 4 3 2 2 1
18 17 16 16 14 14 13 12 12 12 12 13 16 17 19 18 17 16 17 17 16 14 14 16 17 16 15 13 10 6 4 4 4 4 4 3 2 2 2 1 1 0
17 17 16 15 14 13 12 12 12 12 12 13 14 16 18 19 18 17 17 18 17 15 12 13 15 15 14 11 9 6 5 4 5 5 5 4 3 2 2 2 1 0
18 17 16 14 13 12 12 13 13 13 13 12 13 15 17 18 18 18 18 18 18 17 14 11 12 15 14 11 8 7 6 6 6 7 6 6 4 3 3 2 0 0
19 18 16 14 13 12 12 13 14 14 14 13 12 14 16 17 17 18 18 18 17 18 17 14 12 13 14 12 9 7 7 7 8 9 8 6 4 4 4 3 1 -0

ECMWFNIL_850_dewp_054.txt.gz
Dewpoint
1 1 2 1 2 3 4 5 5 3 2 1 0 0 1 3 5 8 9 10 10 10 11 11 12 12 12 12 11 12 13 14 14 15 13 13 13 13 16 17 17 17
-0 1 1 2 1 2 2 4 5 4 2 1 1 3 3 4 6 8 8 7 8 9 10 10 11 11 12 12 11 11 11 11 11 13 12 11 12 13 15 17 17 17
-1 -1 0 1 1 2 2 3 4 4 4 3 4 7 10 10 9 9 8 5 5 7 10 10 11 11 11 11 11 11 11 10 10 11 11 11 11 11 13 16 17 17
-1 -2 -1 -1 -0 0 1 2 3 3 5 6 6 6 10 13 13 12 11 8 5 5 8 10 11 11 10 11 11 11 11 11 10 10 11 10 9 10 11 13 16 17
3 1 0 -1 -1 0 1 2 2 3 5 7 8 7 7 11 14 14 13 12 8 5 6 9 11 11 10 10 10 11 11 11 11 10 10 10 9 9 9 11 12 14
6 5 4 3 2 3 4 4 3 5 6 7 9 9 9 10 13 14 14 14 11 8 5 7 9 10 10 10 10 11 11 11 11 11 10 9 9 9 9 11 11 10
7 7 6 7 6 7 8 8 8 8 9 9 10 11 11 11 12 14 14 15 14 11 8 7 7 8 9 10 10 10 10 10 11 13 12 9 9 10 10 13 15 13
8 8 8 8 8 9 10 10 11 11 11 12 12 12 13 13 13 13 14 14 15 14 12 10 9 7 7 8 9 9 10 9 10 12 12 10 9 9 9 11 14 14
9 9 9 9 9 9 10 10 12 13 13 12 13 14 14 14 14 14 13 13 14 14 13 12 11 9 7 7 8 9 9 10 10 11 11 11 9 8 8 10 11 12
11 11 10 10 10 9 10 11 13 14 14 13 14 15 15 15 15 15 14 13 14 15 14 14 12 11 9 7 7 8 8 9 10 10 10 10 9 8 8 9 10 10
11 12 11 11 11 11 12 14 15 16 15 14 14 15 15 16 16 15 15 14 14 15 15 15 13 12 9 8 7 7 7 8 9 9 9 9 10 9 8 8 8 8
12 12 12 12 11 12 14 15 17 17 17 15 14 14 15 16 16 16 15 14 14 14 15 15 14 13 11 8 7 7 7 7 7 7 8 9 9 9 7 6 7 7
13 12 12 12 12 13 15 16 16 17 17 16 16 15 15 16 16 16 15 14 13 13 14 15 15 14 12 9 7 7 7 8 8 8 8 8 9 8 6 5 6 6
14 12 13 14 14 14 15 15 16 16 17 17 16 16 16 16 16 16 16 15 14 13 14 15 15 14 13 11 9 7 8 9 9 10 10 10 9 8 7 7 6 7
14 14 14 14 15 15 14 15 16 16 16 17 17 17 17 16 16 17 17 16 15 15 14 15 15 14 13 12 10 7 8 9 10 11 11 12 11 11 11 9 9 10
15 15 14 14 15 15 14 14 15 16 16 16 16 16 17 17 16 16 17 16 16 16 16 15 15 14 12 11 10 8 7 7 9 10 11 11 12 13 14 13 12 12
16 15 15 14 14 14 14 14 15 16 16 16 16 16 16 17 16 16 16 17 16 17 16 15 14 13 11 10 11 10 8 7 7 8 9 11 12 13 14 14 13 13
16 16 15 15 14 14 14 14 14 15 16 16 16 16 16 16 16 16 16 17 17 17 17 16 14 12 11 10 10 10 9 7 6 7 8 10 11 12 13 13 11 11
16 15 15 14 14 13 13 14 14 15 16 16 16 16 16 16 16 16 16 16 17 17 18 17 15 13 11 11 10 10 9 8 7 7 7 9 10 11 12 12 10 8
16 16 15 14 14 14 14 14 14 14 15 16 16 16 16 16 16 16 16 16 16 16 17 17 17 15 14 13 12 9 9 8 7 7 7 8 9 11 12 12 11 10
17 16 15 15 14 14 14 14 14 14 15 16 16 16 16 16 16 16 16 16 15 16 16 17 17 17 16 16 13 11 9 9 8 8 7 8 10 12 14 13 12 11
17 17 16 16 16 15 15 15 15 14 14 15 16 16 17 16 17 17 17 16 16 15 16 17 17 17 17 17 15 12 11 12 11 10 9 8 10 12 14 14 13 12
18 17 17 17 16 16 15 15 15 15 15 15 16 17 17 17 17 18 18 18 17 16 16 16 16 17 17 17 16 15 14 15 14 12 9 8 8 9 11 12 13 11
18 18 17 17 17 17 16 16 15 15 15 15 15 16 18 18 18 18 18 18 18 17 16 15 15 16 16 17 16 16 16 15 15 13 11 8 7 6 6 7 8 7
18 18 18 18 18 17 17 17 16 16 16 15 15 16 18 18 18 18 18 18 18 18 17 15 14 15 16 16 15 15 16 16 16 15 13 10 6 5 4 4 4 3
19 19 19 18 18 18 18 18 18 17 17 16 16 16 17 17 18 18 19 19 19 18 18 16 15 15 15 15 14 14 14 14 15 15 13 10 7 4 4 3 3 2

ECMWFNIL_850_dewp_057.txt.gz
Dewpoint
3 6 7 5 5 4 3 4 4 3 2 2 1 1 2 4 6 7 7 7 8 9 9 10 10 11 11 12 13 15 15 15 13 12 12 13 13 13 14 15 17 17
2 3 4 4 3 3 2 2 2 1 0 -0 -1 -1 0 1 2 2 3 3 6 8 9 9 9 10 11 11 11 12 13 13 12 12 12 12 13 13 13 14 16 17
3 2 2 3 2 2 1 1 1 1 1 1 -0 0 -1 -0 1 1 1 2 3 5 8 9 9 9 10 11 10 11 10 10 11 11 11 10 11 11 12 12 14 17
2 2 1 1 1 1 1 1 1 1 1 1 1 1 0 -1 -0 0 2 2 2 3 5 8 9 9 9 10 10 10 10 10 10 10 10 10 10 10 11 12 12 15
-0 1 1 1 1 1 1 1 1 1 1 1 1 1 1 -1 -1 1 3 4 5 4 3 5 8 9 9 10 9 9 9 9 9 9 9 9 9 9 9 10 11 13
-1 -1 -0 1 1 1 1 1 1 1 1 1 1 1 -0 -1 -0 2 3 6 7 6 6 4 5 7 9 10 10 9 9 9 9 9 8 9 9 8 8 8 9 10
1 0 -1 -0 0 1 1 1 1 1 1 1 0 -0 -0 -0 2 3 4 6 8 8 7 6 4 5 7 8 9 9 9 9 9 9 8 9 8 9 8 8 9 9
4 3 1 -1 -1 -1 -0 -1 -0 -0 -0 0 -0 -1 -2 -2 1 3 5 7 8 8 8 7 7 5 5 6 7 9 9 9 9 9 8 8 8 8 8 8 8 8
8 6 4 2 -0 -2 -1 -2 -2 -1 -1 -1 -2 -2 -2 -2 -1 2 4 6 7 8 8 7 8 6 6 6 6 6 8 9 9 9 8 8 8 7 8 8 9 8
10 8 7 5 3 2 1 -1 -1 -1 -2 -2 -2 -2 -2 -2 -1 1 4 6 7 8 8 7 7 7 6 6 6 6 6 7 8 8 8 8 8 7 7 8 8 8
13 11 9 7 6 5 3 3 2 1 -0 -1 -1 -0 0 1 2 4 6 8 8 8 8 7 7 7 6 6 6 6 6 6 7 8 8 9 8 8 7 7 8 7
15 13 11 9 7 7 6 5 5 4 4 4 3 3 4 5 5 6 8 9 8 9 9 8 8 8 7 7 6 6 6 6 6 7 8 8 8 8 7 7 7 7
17 15 13 10 9 8 7 7 7 7 7 6 6 7 8 9 9 9 9 9 9 10 10 9 9 9 8 8 7 7 6 6 6 6 7 8 7 7 7 7 6 5
17 16 14 12 11 9 9 8 8 8 9 9 9 9 10 11 11 11 11 10 11 11 11 11 11 10 9 8 8 8 8 7 7 6 6 7 7 7 7 7 6 5
17 17 16 14 13 11 11 10 10 10 10 11 11 11 11 12 12 12 12 12 12 12 12 12 12 12 11 9 8 9 9 9 8 6 6 5 6 6 7 6 6 6
18 17 17 16 15 13 11 11 11 11 12 12 12 12 12 13 13 14 14 14 13 13 13 13 13 13 12 10 9 9 9 10 9 8 7 6 6 6 6 5 5 5
19 18 17 17 15 14 13 12 12 12 13 13 13 13 14 14 14 14 15 15 14 14 14 14 13 13 12 10 9 9 10 10 10 10 8 7 7 7 6 5 5 5
19 18 18 17 16 15 14 13 13 13 13 14 14 14 14 15 15 15 15 15 15 15 15 14 14 13 12 10 9 9 10 10 10 10 10 9 9 8 7 6 5 5
19 19 18 17 17 16 15 14 14 14 14 15 14 15 15 15 16 15 15 16 16 16 15 15 14 14 13 11 10 9 9 10 10 11 11 10 10 8 8 8 7 7
19 18 18 17 17 16 16 15 15 14 14 15 15 15 15 16 16 16 16 16 16 16 16 16 15 14 13 12 11 10 9 9 10 10 10 10 10 9 8 9 9 8
18 18 18 18 17 17 16 16 15 15 15 15 15 15 15 16 16 16 16 16 16 16 16 16 15 14 14 13 12 11 10 9 10 10 10 10 10 11 10 9 9 9
18 18 18 18 17 17 17 17 16 16 15 15 16 16 16 16 16 16 16 16 16 16 16 16 16 16 15 14 13 12 10 11 11 11 11 11 11 11 11 10 10 9
18 18 18 18 17 17 17 17 17 16 15 15 16 16 16 16 16 16 16 16 16 16 16 16 16 16 16 15 14 13 12 12 12 12 12 11 12 12 12 11 11 10
18 18 18 18 17 17 17 17 17 16 16 15 16 16 16 16 16 16 16 16 16 16 16 16 16 16 16 16 15 15 14 13 12 12 12 12 12 12 13 13 12 11
18 18 17 17 17 17 17 17 17 16 16 16 16 16 16 16 16 16 16 16 16 16 15 15 16 16 16 16 16 16 15 14 14 14 14 13 13 13 13 13 12 12
17 18 17 17 17 17 17 17 17 17 17 16 16 16 16 16 16 16 16 16 16 16 16 16 15 16 16 16 16 17 16 16 16 15 15 14 13 13 14 13 12 11

ECMWFNIL_850_dewp_060.txt.gz
Dewpoint
7 7 9 11 12 11 10 7 7 6 6 7 7 7 8 8 8 9 9 9 10 10 10 11 11 11 12 13 13 13 14 14 14 13 13 13 14 14 13 14 15 15
7 6 7 10 11 11 10 7 6 5 4 4 5 5 7 8 8 9 9 9 9 9 10 10 11 11 11 12 12 12 13 13 13 12 12 13 13 13 13 14 15 15
6 6 7 8 8 8 8 6 5 4 2 2 2 2 4 6 7 8 8 8 8 8 9 9 10 10 11 11 11 11 12 12 12 12 12 12 12 13 13 14 14 14
5 5 6 6 5 5 6 6 5 3 2 1 1 0 1 2 3 4 4 4 4 6 8 9 9 9 10 11 11 11 11 11 11 11 11 11 11 12 12 13 13 13
4 5 5 5 4 3 5 5 4 3 2 1 -0 -0 -1 -0 0 0 1 1 1 3 5 7 9 9 9 10 10 11 10 10 10 11 11 10 10 10 11 11 12 13
4 4 5 4 4 3 4 4 3 3 2 1 0 -0 -0 -0 -0 -0 -0 0 0 0 2 4 6 8 9 10 10 9 10 9 9 10 9 10 9 9 10 10 11 11
3 3 3 4 4 3 2 2 2 2 1 1 1 0 0 1 -0 -0 -0 -1 -1 -0 1 3 4 6 8 9 10 10 9 9 9 9 9 9 9 8 8 9 9 9
4 2 1 2 3 3 2 1 1 1 1 1 1 1 0 0 -0 1 -0 -1 -1 -1 0 2 4 5 6 7 8 9 9 9 9 9 9 9 9 8 8 8 8 8
8 6 2 0 1 2 2 2 1 1 1 1 1 1 0 0 1 1 0 -1 -1 -1 -0 1 3 5 6 6 6 7 8 9 9 9 9 9 8 8 7 8 8 8
11 9 7 4 0 -1 0 0 1 1 1 1 1 1 1 1 1 1 1 -0 -1 -1 -1 0 2 4 6 6 6 5 6 6 7 8 9 9 8 8 8 8 7 7
13 11 10 7 3 0 -2 -1 -0 -1 0 0 0 0 1 0 0 0 -0 -0 -1 -1 -1 0 1 2 4 5 5 5 5 5 5 7 8 8 8 8 8 8 8 7
14 13 11 10 7 3 0 -1 -0 -1 -1 -0 -1 -0 -0 -0 -0 -0 -1 -1 -2 -2 -1 -0 1 2 3 4 5 6 6 6 6 5 6 7 8 8 8 8 8 7
15 14 14 12 10 7 4 2 1 1 0 -0 -2 -2 -2 -2 -2 -2 -2 -2 -2 -2 -2 -1 1 2 3 4 6 7 7 7 6 6 6 6 6 7 8 8 7 7
15 15 15 14 13 11 8 6 5 3 2 1 0 -1 -2 -2 -2 -2 -2 -2 -2 -2 -2 -1 1 3 4 5 6 8 9 9 8 6 6 6 6 6 7 8 7 7
16 16 16 15 15 13 12 10 8 6 5 4 3 2 0 -1 -1 -1 -1 -1 -1 -1 -1 -0 2 4 5 6 7 8 9 9 9 8 6 6 6 6 7 7 7 7
16 16 16 16 16 15 15 13 11 10 8 7 6 5 4 2 2 1 1 1 1 2 2 3 4 5 6 7 7 8 9 9 9 9 8 6 6 6 6 7 6 6
17 17 17 17 17 16 16 16 14 13 11 9 8 7 6 6 4 4 4 4 4 4 5 5 6 6 7 7 8 8 10 10 10 9 9 8 8 7 6 5 5 6
17 17 17 17 17 17 17 17 16 15 14 12 11 9 9 8 7 6 6 6 6 6 7 7 8 8 8 7 8 9 10 11 11 10 10 9 9 9 7 6 6 5
18 18 18 18 18 18 18 18 17 16 15 14 13 11 10 10 9 9 8 8 8 8 9 9 9 9 9 8 8 9 10 11 12 11 10 9 10 9 9 8 7 6
18 18 18 18 18 18 18 18 18 17 16 15 14 13 12 12 11 10 10 10 10 10 10 11 10 10 9 9 9 9 10 12 12 12 11 11 10 10 10 9 8 7
18 18 18 18 19 19 19 19 18 18 17 16 16 15 14 13 12 12 12 12 11 11 12 12 12 11 10 9 9 9 11 12 12 12 12 12 12 11 11 10 10 9
17 17 18 18 19 19 19 19 19 18 18 17 16 16 15 14 14 14 13 13 13 13 13 13 12 11 11 10 9 10 12 13 13 13 13 13 12 12 11 11 11 10
17 17 17 18 18 19 19 19 19 19 18 18 17 16 16 15 15 14 14 14 14 14 14 14 13 12 11 11 10 11 13 14 14 14 14 14 13 12 11 11 11 10
17 17 17 17 18 18 18 18 18 19 18 18 17 17 16 16 15 15 15 15 15 15 15 15 14 13 12 12 12 12 14 15 15 14 14 14 13 12 11 11 10 10
16 16 16 17 17 18 18 18 19 18 18 18 18 17 17 16 16 16 16 16 16 16 16 16 15 14 14 13 13 13 15 15 16 15 15 14 13 12 11 10 10 10
16 16 15 16 17 17 18 18 18 18 18 18 18 17 17 17 16 16 16 16 16 16 16 16 16 15 15 14 14 14 15 16 16 16 15 14 13 12 11 10 10 9

ECMWFNIL_850_dewp_063.txt.gz
Dewpoint
8 9 9 9 8 8 9 10 10 10 10 11 10 8 9 9 9 10 10 10 10 10 10 10 11 12 11 12 13 13 13 14 14 14 14 14 13 13 12 13 12 12
7 7 8 8 8 7 8 8 8 8 8 10 10 8 8 8 9 9 10 10 9 9 10 10 10 11 11 12 12 12 12 13 13 14 14 13 13 13 13 12 12 13
7 7 7 7 7 7 6 6 7 7 7 8 9 9 8 8 8 9 10 10 10 9 10 10 10 10 11 11 11 11 11 12 13 13 13 12 12 13 13 13 13 14
7 6 7 7 6 6 5 6 7 7 6 7 7 8 8 8 8 9 9 9 9 9 10 10 10 10 11 11 11 11 11 11 12 13 13 12 12 12 13 13 13 14
7 6 6 6 7 6 6 6 6 6 6 5 6 6 7 7 8 8 9 9 9 9 9 9 10 10 10 11 11 11 11 11 11 12 12 11 12 12 12 13 12 12
6 6 6 6 7 6 6 6 4 4 4 3 4 5 4 5 6 7 8 8 8 8 7 7 8 9 9 10 10 11 11 11 12 12 11 10 11 10 11 11 11 11
6 6 6 7 6 6 6 5 4 4 2 2 2 2 2 3 3 4 4 4 3 3 3 3 4 6 8 9 9 10 10 11 12 12 11 10 10 10 10 10 10 10
7 5 6 6 7 7 7 6 5 4 2 2 2 1 1 1 1 1 1 1 0 0 0 0 0 1 3 6 8 9 9 10 10 11 11 11 11 10 10 10 9 9
10 7 5 5 7 7 7 6 6 5 3 3 2 1 1 0 0 0 0 0 -0 -0 -0 -0 0 -1 -0 2 4 6 8 9 10 10 10 11 10 10 10 10 10 8
13 11 7 5 5 6 6 6 6 6 6 4 2 2 1 0 1 0 0 1 0 1 1 -0 1 -0 -1 0 2 4 5 6 7 9 9 10 10 9 9 10 10 9
14 13 11 8 4 3 4 5 6 6 6 6 4 3 2 1 1 0 1 1 0 1 1 1 1 -1 -1 -1 -1 1 3 4 5 6 7 8 9 10 10 10 10 9
15 14 13 11 8 4 2 3 5 6 6 6 5 4 3 2 1 1 1 1 0 1 1 0 1 1 0 -1 -2 -0 1 3 5 5 6 6 7 8 9 9 10 9
15 15 14 13 12 9 6 2 2 3 5 6 5 6 4 3 2 1 1 1 0 1 1 0 0 0 0 -0 -2 -1 0 2 3 5 5 6 6 6 7 8 8 8
15 15 15 14 14 13 11 8 5 2 2 3 4 5 5 4 2 2 1 1 1 0 0 0 0 0 -0 -0 -2 -2 -1 1 2 3 5 6 6 6 6 6 7 7
15 15 15 15 15 14 14 13 11 8 5 4 3 3 3 4 3 2 2 1 0 -0 -0 -0 -0 -1 -1 -1 -1 -2 -1 -1 0 3 4 5 6 6 6 6 6 6
16 15 15 16 15 15 15 14 14 13 11 9 7 5 3 3 3 4 3 2 0 -1 -1 -1 -1 -1 -2 -2 -2 -2 -2 -1 -0 2 4 5 7 7 7 7 6 6
16 16 16 16 15 15 15 15 15 15 14 13 12 10 8 6 5 4 4 3 2 0 -1 -1 -1 -2 -2 -3 -2 -2 -2 -1 -0 2 4 6 7 8 8 8 7 6
16 16 16 16 16 15 15 15 15 15 15 15 14 13 12 11 9 7 5 4 4 3 2 2 1 0 -0 -0 -0 -0 -0 1 2 4 5 7 8 8 9 9 9 8
16 16 16 16 16 16 16 15 15 15 15 15 15 15 14 14 13 11 10 8 7 6 5 5 4 4 3 2 2 2 3 3 4 6 7 8 8 9 9 9 9 9
16 16 16 16 16 16 16 16 16 16 16 16 16 16 16 15 15 14 13 12 11 9 8 7 6 6 5 5 5 5 5 5 6 8 9 9 10 10 10 10 10 10
16 16 16 16 16 16 16 16 16 16 16 16 16 17 17 17 17 16 15 15 13 12 11 9 8 7 7 7 7 7 7 8 8 9 10 11 11 11 11 11 10 10
17 17 17 17 17 16 17 17 17 17 17 17 17 17 17 18 17 17 17 16 15 14 13 11 9 9 8 8 8 8 9 9 10 11 12 12 12 12 12 11 11 10
17 17 17 17 17 17 17 17 17 17 17 18 18 18 18 18 18 18 18 17 16 15 14 13 11 9 9 9 9 9 10 10 11 12 13 13 13 12 13 12 12 11
18 18 18 18 18 18 18 18 18 18 18 18 18 18 18 18 18 18 18 18 17 16 14 13 11 10 10 10 10 10 11 11 12 13 14 14 14 13 14 14 13 12
18 18 18 18 18 18 18 18 18 18 18 18 18 18 18 18 18 18 18 18 17 17 16 14 13 11 11 10 10 11 11 12 13 14 14 14 14 14 14 14 14 13
17 17 18 18 18 18 18 18 18 18 18 18 18 18 18 19 18 18 18 18 18 17 17 15 14 12 11 11 11 11 12 13 14 14 14 14 14 14 14 14 14 13

ECMWFNIL_850_dewp_066.txt.gz
Dewpoint
11 10 10 10 10 10 10 9 8 9 11 12 13 13 13 12 11 10 10 10 11 11 12 12 12 12 12 12 12 14 14 14 14 14 14 14 14 14 14 13 13 14
12 11 10 9 10 9 9 8 8 8 9 11 12 12 13 12 10 10 10 10 10 11 11 11 11 11 12 12 12 12 13 13 13 14 14 13 14 14 14 14 13 13
12 12 10 9 8 8 7 7 8 8 9 10 11 12 12 12 10 9 10 10 10 11 11 10 10 11 11 12 12 12 12 13 13 13 13 14 13 13 13 13 14 13
11 11 10 9 8 7 7 7 7 8 8 9 9 11 11 11 10 9 9 9 10 10 10 10 10 10 11 11 11 11 11 12 12 13 13 13 13 13 13 13 13 13
9 10 11 10 8 7 6 6 6 6 7 7 8 9 10 11 11 10 9 8 9 10 10 10 10 10 10 10 11 11 11 11 11 12 12 12 13 13 13 13 13 13
10 9 10 10 9 7 6 5 5 5 6 6 6 8 9 10 10 10 9 9 9 9 9 9 10 10 10 10 10 10 11 11 11 11 11 10 11 11 11 11 11 11
12 10 9 9 9 8 6 5 5 5 5 6 6 7 9 9 9 9 10 9 9 9 9 9 9 9 9 9 9 9 10 10 10 10 10 10 10 10 10 10 10 10
13 12 10 10 9 8 7 5 5 4 4 5 5 6 8 9 8 8 9 8 8 8 9 9 9 7 6 6 6 7 8 9 10 10 10 10 9 9 9 9 9 9
13 13 12 11 10 9 7 6 5 4 4 4 4 4 6 7 7 7 7 7 7 7 8 7 5 3 2 1 1 2 4 5 7 8 9 9 10 10 10 10 10 9
14 13 13 13 12 10 8 6 5 4 4 3 3 3 4 5 6 7 7 6 6 5 4 3 1 0 -0 -0 -0 -0 -0 1 4 5 7 8 9 9 10 10 10 10
14 13 13 13 13 13 10 8 6 5 4 3 2 3 3 3 5 6 6 6 4 3 2 0 -0 -0 -0 -0 -0 -0 -0 -0 1 2 4 5 6 7 8 9 10 10
14 14 14 14 13 13 13 11 9 6 5 4 3 3 2 2 3 4 5 5 4 3 2 1 0 -0 -0 1 1 1 0 -0 0 -0 2 4 4 5 6 7 7 8
14 14 14 14 14 14 14 13 12 9 6 4 3 4 4 3 3 3 3 4 4 4 4 3 2 1 1 1 1 1 1 1 1 -0 -1 0 2 4 5 6 6 6
14 14 14 14 14 14 14 14 14 12 10 7 4 3 3 4 4 3 3 3 3 4 4 4 4 3 2 1 0 1 1 1 0 0 -1 -2 -1 1 2 5 6 6
14 14 14 14 14 14 14 14 15 14 13 11 8 5 2 2 3 4 4 4 3 3 3 4 4 3 3 2 1 1 1 1 0 -0 -1 -1 -1 -1 -0 2 4 6
14 14 14 14 14 14 15 15 15 15 15 14 12 10 7 4 3 3 3 3 2 2 2 2 2 2 2 1 2 1 1 0 0 -1 -1 -1 -2 -1 -1 -0 3 5
15 15 14 15 15 15 15 15 15 15 15 15 14 14 12 10 9 6 5 3 3 2 2 1 1 0 0 0 0 0 0 0 -0 -2 -1 -1 -2 -2 -2 -1 2 4
15 15 15 15 15 15 15 15 15 15 15 15 15 15 14 14 13 12 10 9 8 7 6 5 3 2 0 0 -0 -0 -0 -0 -0 -1 -1 -2 -2 -2 -1 0 2 4
15 15 15 15 15 15 15 15 16 15 15 15 15 15 15 15 15 14 14 13 13 12 11 10 8 6 4 4 3 2 2 2 2 2 2 1 1 1 1 2 4 5
16 16 15 15 15 15 16 16 16 15 16 15 15 15 15 15 15 15 15 15 15 14 14 13 12 9 8 7 6 5 5 5 5 5 5 4 4 4 4 5 5 7
16 16 16 16 16 16 16 16 16 16 16 16 16 16 15 15 15 15 15 15 15 15 15 15 14 13 12 10 8 7 7 7 7 7 7 6 6 6 6 7 7 8
16 16 16 16 16 16 16 16 16 16 16 16 16 16 16 16 16 16 16 16 16 16 16 16 16 15 14 13 11 10 10 10 10 9 8 8 8 7 7 8 8 9
17 17 16 16 16 16 16 16 16 16 16 16 16 16 16 16 16 16 16 16 16 16 17 17 17 16 15 14 13 12 13 12 11 10 9 9 8 9 8 9 10 10
17 17 17 17 17 16 16 16 16 16 16 16 16 16 16 16 16 16 17 17 17 17 17 17 17 17 17 16 15 14 14 13 12 11 11 10 10 10 10 10 11 11
18 18 18 17 17 17 17 17 17 17 17 17 17 17 17 17 17 17 17 17 17 17 17 17 18 18 18 17 17 16 15 14 13 12 12 11 10 10 10 11 11 11
17 18 18 18 18 18 18 18 18 18 17 17 17 17 17 17 17 17 17 17 17 17 17 17 17 18 18 18 18 17 16 15 14 13 12 11 11 11 11 11 11 11

ECMWFNIL_850_dewp_069.txt.gz
Dewpoint
9 9 10 11 11 11 11 11 12 11 11 12 13 13 13 13 13 13 12 11 11 11 12 12 13 13 13 12 12 13 15 15 15 15 14 14 14 14 14 14 13 13
8 9 10 10 10 10 11 11 11 11 10 10 12 13 13 13 13 13 12 11 10 11 11 11 12 12 12 12 12 12 13 14 15 15 14 14 14 14 14 14 14 13
9 9 9 10 9 10 10 11 11 11 10 10 10 12 13 13 13 13 12 10 10 11 11 11 12 12 12 12 12 12 12 13 14 14 14 14 14 14 14 14 14 14
11 9 9 9 9 9 10 10 11 11 10 9 9 10 12 13 13 13 12 10 10 10 10 11 11 11 11 12 12 12 12 12 12 13 13 14 14 13 13 13 13 13
13 11 9 9 9 9 9 10 10 10 9 8 8 9 10 12 12 12 12 11 10 10 10 10 11 11 11 11 11 11 11 11 11 12 12 13 13 13 13 13 13 13
13 13 11 9 9 9 9 9 9 9 9 8 7 8 9 10 11 11 12 11 10 10 9 10 10 11 10 11 11 10 10 11 10 11 11 11 12 12 12 12 12 12
14 14 13 11 9 8 8 8 8 8 8 8 8 7 7 8 9 9 10 11 11 11 10 10 10 10 10 10 10 10 10 10 10 10 10 10 10 10 11 11 10 10
14 14 14 13 11 9 8 8 8 8 7 7 7 7 6 7 7 7 9 10 11 11 11 10 10 10 10 10 10 9 9 9 9 9 9 9 9 9 10 10 10 9
14 14 14 14 13 12 10 8 7 7 7 7 6 6 6 6 5 5 7 8 9 10 10 10 10 10 10 10 9 8 7 7 6 7 7 8 8 9 9 9 9 9
14 14 14 14 14 13 12 11 9 8 7 6 6 6 5 5 5 5 6 7 7 8 8 8 9 9 10 9 7 5 3 3 2 2 3 5 6 7 8 8 8 9
14 14 14 14 14 14 14 13 11 10 8 7 6 6 5 5 5 4 4 5 5 6 6 6 7 8 9 8 5 2 1 1 1 1 1 1 2 3 5 6 7 7
14 14 14 14 14 14 14 14 13 13 11 9 7 6 5 5 4 4 3 3 3 3 4 4 5 6 7 5 2 1 1 1 1 1 1 0 0 0 2 3 4 5
14 14 14 14 14 14 14 14 14 13 13 12 11 8 6 5 5 4 3 2 2 2 2 2 2 3 2 2 1 0 0 1 1 1 1 1 1 0 0 0 1 3
14 14 14 14 14 14 14 14 14 14 13 14 13 12 10 6 4 4 3 3 2 1 1 1 1 1 1 0 0 0 0 0 0 1 1 1 1 0 0 0 -0 0
14 14 14 14 14 14 14 14 14 14 14 14 14 14 13 11 8 5 4 3 3 3 2 2 2 2 1 1 1 0 0 0 0 1 1 0 1 0 0 0 -0 -1
14 14 14 14 14 14 14 14 14 14 14 14 14 14 14 14 13 10 7 5 3 3 3 3 3 2 1 1 1 1 1 1 1 1 1 1 1 1 -0 0 -0 -1
14 15 14 14 14 14 14 14 14 14 14 14 14 14 14 15 15 14 12 9 6 4 3 3 2 2 1 1 1 1 1 1 1 1 1 1 1 0 -0 -0 -1 -2
15 15 15 15 15 15 14 14 14 14 14 14 14 15 15 15 15 15 14 13 11 8 6 4 2 -0 -0 -1 -1 -0 -0 0 0 0 -0 -0 -0 -0 -1 -2 -2 -2
15 15 15 15 15 15 15 15 14 15 15 15 15 15 15 15 15 15 15 14 14 13 11 9 7 3 2 2 1 1 1 1 1 1 -0 -1 -2 -1 -1 -1 -1 -1
16 15 15 15 15 15 15 15 15 15 15 15 15 15 15 15 15 15 15 15 15 14 14 13 12 9 7 7 6 6 6 6 6 6 5 3 2 1 1 1 1 1
16 16 16 16 16 16 16 15 15 15 15 15 15 15 15 15 15 16 15 15 15 15 15 15 14 13 12 11 11 10 11 11 11 10 9 9 7 5 4 3 3 3
16 17 17 16 16 16 16 16 16 16 16 16 16 16 16 16 16 16 16 16 15 15 15 15 15 15 15 14 14 14 14 14 14 13 13 12 10 8 6 5 5 5
17 17 17 17 17 17 16 16 16 16 16 16 16 16 16 16 16 16 16 16 15 16 15 15 15 15 15 16 16 16 16 16 16 15 14 14 12 10 8 7 6 6
17 17 17 17 17 17 17 17 16 16 16 16 16 16 16 16 16 16 16 16 16 16 16 16 16 16 16 16 16 16 17 17 17 16 16 15 13 11 10 9 8 7
17 17 17 17 17 17 17 17 17 17 16 16 16 16 16 16 16 16 16 16 16 16 16 16 16 16 16 16 16 17 17 17 17 17 17 15 13 12 11 10 9 8
16 16 17 17 17 17 18 18 17 17 17 17 16 17 16 16 16 16 16 16 16 16 16 17 17 17 17 17 17 17 17 17 18 18 17 15 14 12 12 11 9 8

ECMWFNIL_850_dewp_072.txt.gz
Dewpoint
11 9 10 10 10 11 13 13 13 14 14 15 15 16 16 15 14 15 15 13 13 12 12 13 13 13 14 13 13 14 15 16 17 17 15 13 15 16 16 16 16 16
11 9 8 9 9 10 11 12 13 14 13 13 14 16 16 15 13 13 13 13 12 12 12 12 13 13 13 14 13 13 13 13 16 18 16 13 15 16 16 16 15 15
13 10 8 8 9 10 11 11 11 12 13 13 13 15 16 15 14 13 13 13 13 13 12 11 12 13 12 13 13 13 14 13 15 18 16 14 15 16 17 17 17 16
14 12 9 7 9 10 11 12 11 10 12 13 13 13 14 15 16 14 13 13 13 12 12 12 12 12 12 12 13 13 13 13 13 16 16 14 14 15 16 17 17 17
14 13 12 9 9 10 10 11 11 10 11 13 13 13 12 13 14 15 14 13 12 11 12 12 11 11 11 11 12 12 12 13 14 13 13 14 14 15 16 16 16 16
13 14 14 12 9 9 9 9 10 10 11 12 13 12 12 11 11 14 15 14 13 13 13 13 11 11 11 10 11 12 12 14 15 14 12 13 14 15 17 16 15 14
14 13 13 13 12 10 9 9 9 9 10 12 12 11 10 10 10 12 13 13 14 15 15 14 12 11 11 10 10 11 11 13 14 13 12 13 13 13 15 15 14 13
14 14 14 13 13 12 10 10 10 9 8 10 11 9 8 8 9 11 12 12 13 14 14 13 12 10 11 11 10 11 11 12 13 12 12 12 12 12 12 13 13 11
14 14 14 13 13 13 13 12 11 10 8 8 9 9 8 7 7 10 12 10 11 12 12 11 11 10 11 12 10 10 9 11 13 13 11 11 12 11 12 12 11 10
15 15 15 14 14 14 15 15 14 12 10 7 7 10 10 7 5 8 9 8 8 9 9 9 10 10 11 12 11 10 9 9 10 9 8 8 8 9 11 12 11 11
16 16 16 15 15 15 15 15 15 14 13 8 6 9 10 9 6 5 6 5 5 7 8 8 9 9 9 11 11 11 9 8 7 3 2 2 2 4 6 7 8 9
17 16 16 16 15 16 15 15 15 15 14 12 9 7 8 8 6 5 4 4 4 5 6 7 7 8 8 8 10 12 11 9 6 2 0 0 0 1 1 1 2 3
17 17 17 16 16 15 16 16 15 15 15 14 13 10 9 8 7 5 4 4 3 4 5 6 6 7 7 6 8 10 11 9 6 4 3 2 1 1 2 4 4 3
16 17 17 17 16 16 15 15 16 15 15 15 15 13 12 11 10 7 4 3 4 3 3 4 4 4 5 5 5 7 9 8 5 3 4 5 3 1 3 5 6 6
16 16 16 16 16 15 14 15 15 15 15 15 15 14 14 14 13 12 8 4 3 3 3 3 4 4 3 4 3 5 6 6 3 1 1 3 3 2 4 3 3 5
17 16 15 15 15 14 14 14 14 15 15 14 14 14 14 14 14 14 13 10 6 3 3 2 3 3 2 2 2 1 2 3 2 1 1 1 1 1 3 3 2 4
17 17 16 15 15 14 14 14 14 14 14 14 14 14 14 14 14 14 14 14 12 8 5 3 3 2 1 0 0 1 0 1 1 1 1 1 1 0 1 2 2 3
16 17 17 17 16 15 14 14 14 14 14 14 14 14 14 14 14 14 14 14 14 14 11 8 5 2 1 0 -1 -0 1 0 1 2 3 3 2 2 0 1 2 2
17 17 17 17 18 17 15 15 15 15 15 14 14 14 14 14 14 14 14 14 14 15 14 13 9 3 -0 -0 -0 -0 1 1 2 3 4 4 4 2 1 1 1 1
17 17 17 17 18 17 17 16 15 15 15 15 15 15 15 14 14 14 14 15 14 15 15 14 13 8 2 0 -1 -1 -1 0 1 2 2 3 3 2 1 0 -0 -0
16 17 18 18 17 17 17 17 16 15 15 15 16 16 16 15 15 15 15 15 15 15 15 15 14 12 9 5 3 1 0 -1 -0 0 0 0 1 0 -1 -1 -2 -1
16 16 17 18 18 18 18 18 17 16 16 15 16 16 17 16 16 16 15 15 15 15 15 15 15 14 13 11 9 7 7 7 5 5 3 3 2 1 1 0 -0 -0
16 16 16 16 17 18 18 18 18 18 17 17 16 17 17 17 17 17 16 16 16 16 15 15 15 15 15 14 13 13 13 13 12 11 10 9 8 7 6 5 4 3
16 16 16 16 16 17 18 18 18 18 18 18 18 18 17 17 17 17 17 17 16 16 16 15 15 15 15 15 15 15 15 15 15 14 14 14 13 12 11 10 9 6
15 16 17 17 17 17 17 18 18 18 18 18 18 18 18 18 17 17 17 17 17 17 16 16 16 16 16 15 15 15 15 15 15 15 15 15 15 15 14 13 12 10
12 13 14 15 16 17 17 18 17 17 17 17 17 17 17 18 17 17 17 17 17 17 17 16 16 16 16 16 15 16 16 16 16 16 16 16 16 16 16 16 15 13

ECMWFNIL_850_dewp_075.txt.gz
Dewpoint
11 11 12 14 15 16 17 16 16 16 16 16 16 16 17 17 16 17 17 15 12 12 13 13 13 13 13 13 13 16 17 15 16 16 15 14 16 18 17 17 17 17
12 12 12 14 15 15 16 17 16 16 16 16 16 16 17 17 17 16 16 15 13 13 13 12 13 13 14 15 13 14 15 14 16 17 15 13 16 18 17 17 17 17
13 12 12 14 15 15 15 16 16 16 16 16 16 16 17 17 17 16 15 15 16 15 14 12 13 13 13 14 14 14 15 14 15 18 17 14 16 18 18 17 17 17
14 14 14 15 15 15 16 16 16 16 16 16 16 16 16 16 17 16 15 15 15 16 16 14 14 14 13 13 13 14 15 14 14 17 17 15 14 17 18 18 17 17
14 14 15 16 15 15 16 15 15 16 15 16 16 15 15 16 16 16 16 14 13 15 16 15 14 13 13 12 12 14 16 16 15 14 14 14 14 16 17 18 18 18
14 14 14 15 15 15 15 15 15 15 15 15 15 15 15 15 16 16 16 16 14 14 16 16 14 14 14 13 12 12 15 17 17 15 13 13 15 17 18 18 17 17
16 15 14 15 16 15 15 15 15 15 15 15 15 15 16 15 15 15 16 16 16 15 15 16 16 15 16 16 13 11 13 15 17 17 16 14 14 16 17 18 17 16
17 16 15 16 16 15 15 15 15 15 15 15 14 15 15 16 16 15 15 16 16 16 16 15 16 16 15 16 15 13 13 14 15 16 15 14 13 13 15 16 17 15
18 18 17 17 16 15 15 14 14 15 15 15 14 14 15 15 16 15 15 15 15 16 16 16 16 16 15 15 16 15 14 14 15 16 14 14 13 13 13 15 16 15
17 18 18 17 16 15 15 14 14 14 14 14 14 13 14 14 15 15 15 15 14 14 15 16 16 16 15 15 16 15 15 14 14 16 16 15 15 15 15 15 16 16
16 17 18 17 16 15 14 14 13 13 13 14 14 13 13 13 14 14 15 16 14 13 14 14 15 15 14 14 15 15 15 15 15 15 16 15 15 15 14 14 15 16
16 17 17 17 16 15 15 14 13 13 13 13 14 13 12 12 13 14 14 13 12 11 12 12 11 13 12 11 14 15 15 15 15 15 15 14 13 13 12 11 12 13
16 17 17 17 16 15 15 14 13 13 12 12 13 13 13 12 12 14 14 12 8 6 10 12 10 10 10 8 10 13 15 15 15 15 15 14 13 13 13 12 12 12
16 16 17 17 16 16 16 16 14 13 13 12 13 13 13 12 11 13 14 13 10 4 6 10 11 10 10 8 6 10 13 14 15 15 14 14 13 13 13 13 13 13
16 16 17 17 17 17 17 17 16 15 14 13 13 13 12 12 11 11 13 13 13 10 7 9 12 12 11 9 7 8 10 12 14 14 14 14 13 13 13 12 12 12
17 17 17 17 17 17 17 17 17 16 16 14 14 13 13 13 12 12 11 12 14 13 11 10 12 12 12 10 7 7 8 10 12 14 14 14 13 13 12 12 12 11
16 16 17 17 17 18 18 18 17 17 17 16 16 15 14 14 14 14 13 12 12 13 13 12 12 11 11 9 5 4 5 8 11 13 13 13 13 12 10 10 10 11
16 16 17 17 17 17 18 18 18 18 18 17 17 16 16 16 16 15 15 14 13 13 13 13 12 11 11 10 6 2 2 5 9 12 13 13 13 13 11 10 10 10
17 17 17 17 17 17 17 17 17 17 17 17 17 17 17 17 17 16 16 15 15 14 13 13 12 11 11 11 9 4 -0 0 3 8 11 12 12 13 13 13 12 11
17 17 17 17 17 17 17 17 16 16 16 17 17 17 17 17 17 17 17 16 16 15 15 14 14 13 12 12 11 7 2 -1 -0 1 4 7 10 11 13 14 14 14
16 16 16 17 17 17 17 17 17 16 16 16 17 17 17 17 17 17 17 17 16 16 16 16 15 14 14 14 13 11 6 2 1 -0 0 2 4 6 9 11 12 14
16 15 16 16 17 17 17 17 17 17 17 16 16 17 17 17 17 17 17 17 17 16 16 16 16 15 15 14 14 14 12 9 6 4 1 0 1 2 4 5 6 8
15 15 15 16 16 16 16 17 17 17 17 16 16 16 16 16 16 16 17 17 17 17 17 16 16 16 16 15 15 15 15 14 12 10 7 4 1 0 1 1 1 2
12 13 14 15 16 16 16 17 17 17 17 17 16 16 16 15 15 15 16 16 17 17 17 17 17 16 16 16 15 15 15 15 14 14 13 11 7 5 3 2 0 -0
9 11 12 13 14 15 15 16 17 17 17 16 16 17 16 16 16 16 16 16 16 17 17 17 17 17 17 16 15 15 15 15 15 15 15 14 13 11 10 8 6 4
6 8 9 9 10 12 14 15 16 16 17 17 17 17 17 17 17 16 16 15 15 16 17 17 17 17 17 17 16 15 15 15 15 15 15 15 15 15 14 14 13 11

ECMWFNIL_850_dewp_078.txt.gz
Dewpoint
8 7 10 14 16 16 15 12 11 12 13 14 15 15 16 16 15 16 16 14 12 12 13 13 13 14 14 14 14 15 14 14 15 14 13 13 14 15 17 17 16 16
9 8 8 10 14 15 15 13 13 14 13 15 16 16 15 16 16 16 17 16 13 12 12 12 13 13 13 14 14 14 13 13 15 15 13 13 14 15 17 17 16 16
9 8 8 9 12 14 15 14 14 15 14 14 16 16 16 16 16 16 17 16 14 13 12 11 12 12 12 14 14 13 13 13 14 15 14 15 15 15 17 17 17 16
9 9 9 10 13 14 14 15 15 15 15 15 14 15 17 16 16 16 16 15 14 16 15 12 11 12 12 13 13 13 13 13 14 15 15 15 14 15 17 17 17 17
11 11 11 11 14 16 15 15 16 16 16 15 14 15 16 16 16 17 16 14 13 15 16 14 12 12 12 11 13 14 14 14 14 15 15 14 14 14 16 17 16 17
14 14 13 13 15 16 15 16 16 16 16 16 15 15 16 16 16 17 16 15 12 11 14 15 13 12 12 11 11 13 13 14 15 15 14 13 14 14 16 17 16 16
17 16 16 16 16 15 15 16 16 16 16 16 15 15 15 15 15 16 17 16 14 12 14 16 14 13 13 13 11 11 12 14 16 16 15 13 12 13 16 17 17 16
16 16 17 17 16 16 15 15 15 15 15 16 15 15 16 15 15 15 16 17 16 15 15 16 15 14 14 15 13 10 10 12 15 16 15 14 12 11 13 16 17 17
16 16 16 17 17 16 15 15 15 15 15 15 15 15 15 15 15 15 16 16 16 16 16 16 16 15 14 15 15 13 10 11 15 16 14 13 12 11 11 12 14 15
17 16 17 17 17 16 15 15 15 15 15 15 15 15 15 15 15 16 16 15 15 15 16 16 16 16 15 15 15 15 13 11 14 16 15 14 12 11 12 12 11 12
18 17 17 18 17 16 15 15 14 14 15 15 15 15 14 15 15 15 16 16 15 14 15 15 15 16 16 15 14 14 14 11 11 13 14 15 15 14 14 15 15 14
18 18 18 18 17 16 15 15 14 13 13 14 15 14 14 14 14 14 15 16 16 15 14 14 13 14 15 15 14 15 15 12 11 12 12 12 14 14 13 13 14 13
17 17 17 18 18 17 16 15 15 13 13 13 14 14 14 13 14 14 14 14 15 15 15 14 13 13 13 13 13 14 16 15 14 14 12 11 11 12 11 11 11 9
17 17 17 17 17 17 17 16 15 13 13 13 13 13 14 13 13 13 14 14 14 14 15 15 14 12 12 12 11 11 14 16 16 15 14 13 12 12 12 13 13 11
17 17 17 17 18 17 17 17 16 14 13 13 12 13 13 13 12 12 13 14 14 14 14 14 14 14 12 10 9 8 9 13 15 15 15 14 14 14 13 13 13 13
17 17 17 17 18 18 18 18 17 15 14 13 13 13 13 13 13 12 12 12 13 14 14 14 14 15 14 11 8 6 6 8 12 14 15 14 15 15 14 13 13 13
17 17 17 17 17 17 17 17 16 16 16 15 14 14 13 13 13 12 12 12 12 13 14 15 15 14 14 13 10 8 6 6 7 10 13 14 14 15 14 14 13 13
16 17 17 17 17 17 16 17 17 17 16 15 15 15 14 13 13 13 12 12 12 12 13 14 15 14 14 13 12 10 8 6 6 7 10 11 13 13 14 14 13 12
16 17 17 17 17 16 16 17 17 17 17 16 16 15 15 15 14 14 13 13 12 12 12 12 13 14 13 13 12 11 10 8 7 6 7 9 11 12 12 12 12 11
16 17 17 17 17 16 16 17 17 17 17 17 17 16 16 15 15 15 14 14 13 13 13 13 13 13 12 13 12 12 11 10 9 8 7 7 9 11 12 12 12 12
15 16 16 16 16 17 17 17 17 17 17 17 17 16 16 16 15 15 15 15 15 14 14 13 14 13 13 13 12 12 12 11 11 11 10 8 8 9 10 11 12 12
14 14 15 16 16 16 16 16 16 16 16 16 17 17 16 16 16 15 15 14 14 15 15 14 14 15 15 14 14 13 13 12 12 12 12 12 10 9 7 7 7 9
11 12 12 14 15 15 16 16 16 16 16 17 17 17 16 16 16 15 15 14 14 14 15 15 14 15 16 15 15 15 14 14 14 13 13 13 13 12 10 7 4 3
7 8 8 9 11 14 15 15 16 16 16 17 17 17 17 16 16 16 16 16 15 15 15 15 15 16 16 16 16 16 16 15 15 15 14 14 14 14 14 12 10 7
1 4 6 6 7 11 14 15 15 16 16 16 16 17 17 17 16 16 16 16 16 15 15 16 16 16 16 17 17 17 17 16 16 16 15 15 15 15 15 15 14 13
-6 -3 0 3 4 7 10 13 14 15 16 16 16 17 17 17 17 17 17 16 16 16 16 16 17 16 17 17 17 17 17 17 17 17 16 16 16 16 16 16 15 15

ECMWFNIL_850_dewp_081.txt.gz
Dewpoint
7 9 12 13 14 15 14 13 13 14 13 11 13 15 14 14 15 14 14 14 12 13 14 13 14 14 14 14 14 15 15 13 13 13 12 12 13 15 16 15 15 15
8 7 9 11 13 15 15 14 12 12 12 11 12 14 14 14 15 14 14 15 13 12 13 13 13 13 13 13 14 15 14 14 14 13 13 13 14 15 16 15 16 16
8 8 8 8 11 15 16 14 13 12 11 12 12 14 14 14 15 15 15 16 14 12 12 12 13 12 12 13 14 14 13 13 14 13 13 13 14 16 16 16 16 16
8 9 8 8 8 12 14 14 13 12 12 12 13 15 16 15 15 16 15 15 15 13 11 11 12 12 12 13 13 13 12 13 14 14 13 13 13 15 16 16 16 17
8 9 8 8 8 9 11 13 13 13 14 14 14 15 16 16 15 16 15 14 15 15 14 12 12 11 12 12 13 13 12 13 13 14 14 13 13 14 16 17 17 17
10 10 9 9 9 10 10 11 12 13 14 15 14 14 15 16 16 16 15 14 14 15 16 16 14 11 10 11 12 12 13 13 13 13 13 13 13 13 15 16 17 17
13 12 11 10 11 13 14 14 13 12 14 15 15 14 14 16 17 16 16 15 13 13 15 16 15 13 11 10 10 11 12 13 13 14 13 12 13 13 14 15 16 16
16 15 13 13 13 14 16 16 15 14 14 15 16 15 14 15 16 16 16 16 15 13 13 13 14 14 13 10 9 10 11 12 13 14 13 12 12 13 13 15 17 17
17 16 15 15 14 14 16 17 16 15 15 16 16 16 16 15 15 15 16 16 16 15 13 13 14 15 15 13 11 9 10 11 11 12 13 14 13 12 12 13 16 17
17 17 17 17 16 16 16 16 16 15 16 16 16 16 16 15 15 15 15 15 16 16 15 15 15 15 15 15 13 11 10 10 10 10 12 14 14 13 12 12 13 14
18 18 18 18 17 17 17 16 15 15 15 15 15 16 16 15 15 15 15 15 15 15 15 15 16 15 15 15 15 14 12 11 10 10 11 13 14 13 12 11 11 11
18 18 18 17 17 16 15 15 14 15 15 15 15 15 15 15 15 15 15 15 15 15 14 14 15 15 15 15 15 15 13 12 11 11 11 13 13 13 12 11 10 10
17 17 17 17 17 17 15 14 14 14 14 15 15 15 14 14 15 15 14 14 14 15 14 13 13 13 13 14 14 13 12 12 11 10 10 11 12 12 11 10 9 9
17 17 17 17 17 17 16 15 14 13 14 14 15 15 14 13 14 14 14 14 14 14 14 13 12 11 11 11 12 10 9 9 10 10 10 10 10 10 10 9 8 8
17 17 17 16 17 16 15 14 14 14 14 14 15 15 15 13 13 14 14 14 14 13 13 13 12 11 9 8 8 8 7 7 8 8 9 9 9 9 8 8 8 8
16 16 16 16 16 16 15 14 14 15 14 14 15 16 15 14 14 14 14 13 13 13 13 13 13 12 11 9 6 5 5 6 6 7 7 7 7 7 6 7 7 8
16 16 16 16 16 16 16 15 15 15 14 14 15 15 15 14 14 14 13 13 13 13 13 13 12 12 12 11 9 7 6 5 4 4 5 5 6 5 5 5 5 6
16 16 16 16 16 16 16 16 16 15 15 15 15 15 15 14 13 14 13 13 13 14 14 14 13 13 12 12 12 11 10 9 8 6 6 6 5 4 4 4 5 5
16 16 16 16 16 16 16 17 16 16 16 16 16 16 15 14 13 13 13 13 13 13 14 15 15 15 14 13 13 13 12 12 11 10 9 8 7 6 5 5 5 5
15 15 15 16 16 16 16 16 17 17 16 16 16 16 15 15 13 13 13 13 13 12 13 13 14 15 16 15 15 14 14 13 13 12 12 11 10 9 8 7 6 5
15 15 15 16 15 16 16 16 17 17 16 17 17 16 16 15 15 14 14 13 13 13 13 12 13 13 14 15 15 15 15 14 13 13 13 12 12 11 10 10 9 8
14 14 15 15 15 15 16 17 17 16 16 16 16 16 16 16 16 15 15 15 14 14 14 13 13 12 12 13 13 14 15 16 15 14 13 12 12 12 11 11 11 10
11 12 13 14 14 14 15 16 17 16 16 16 16 16 16 16 16 16 15 15 15 15 15 14 14 14 14 13 13 13 14 15 16 16 15 14 13 13 12 12 12 12
3 5 7 9 9 10 12 14 16 16 16 16 16 16 16 16 16 16 16 16 15 15 15 15 15 15 14 14 14 13 13 13 14 15 16 16 15 15 14 14 13 13
-5 -3 -2 -1 2 4 7 10 13 15 15 16 16 16 16 16 16 16 16 16 16 16 16 15 15 14 13 12 12 13 13 13 13 13 14 14 15 15 15 15 15 15
-9 -7 -7 -6 -4 -2 0 3 7 10 12 14 14 15 15 16 16 16 17 17 17 17 17 16 15 13 12 12 13 14 15 15 15 15 15 15 15 15 16 16 16 16

ECMWFNIL_850_dewp_084.txt.gz
Dewpoint
9 9 10 13 14 14 14 14 14 14 15 15 15 14 13 14 14 13 13 13 13 13 13 14 14 14 15 15 15 14 13 13 12 12 11 12 12 13 14 14 14 15
7 7 9 12 14 15 15 14 14 14 14 14 14 12 13 14 14 13 13 13 12 12 14 13 13 14 15 15 15 15 15 13 12 12 11 11 12 12 14 15 15 15
7 7 9 11 13 14 14 14 14 14 14 13 13 13 12 13 14 13 13 14 13 12 13 13 13 14 14 14 15 15 15 14 13 13 12 12 12 12 15 15 15 15
7 8 9 10 11 11 13 14 15 15 14 13 13 13 13 13 14 14 13 14 14 13 12 12 13 13 13 14 14 14 15 14 14 13 13 13 13 14 15 16 15 16
8 8 9 10 10 10 12 14 14 14 14 13 12 13 14 14 15 15 14 14 14 14 12 11 12 12 13 13 13 14 14 14 14 14 14 13 13 14 15 16 16 16
8 8 8 9 9 9 11 13 14 13 13 13 12 13 14 15 15 16 15 14 14 14 13 11 11 11 12 12 13 13 14 13 13 14 14 14 14 14 15 16 17 17
12 11 10 10 10 9 10 12 13 13 13 13 14 14 15 16 16 16 16 16 15 14 13 12 11 11 11 11 11 12 13 13 13 14 14 14 14 14 14 16 17 17
14 13 13 12 12 11 11 11 12 13 13 14 14 15 16 16 16 16 16 16 16 15 14 12 11 10 11 11 10 10 11 12 13 14 14 13 13 13 13 15 16 16
14 14 13 13 13 13 12 11 12 14 15 15 14 14 15 16 16 16 16 17 16 15 14 13 11 10 10 11 10 9 10 10 12 13 13 13 13 12 13 13 14 15
14 15 14 14 14 13 13 12 13 15 16 16 15 15 15 15 15 15 15 16 16 15 15 14 13 11 10 10 10 10 9 9 10 11 11 12 12 12 12 13 13 13
14 15 15 15 15 14 13 13 14 15 16 16 16 15 16 16 16 15 15 15 14 15 15 15 15 13 12 10 10 10 10 9 9 9 9 9 10 10 11 11 12 12
16 16 16 16 16 15 15 15 15 15 15 15 15 15 15 16 16 16 16 15 14 14 14 14 15 15 14 13 13 13 12 11 9 8 8 8 8 8 8 9 10 10
16 15 16 16 16 15 15 16 16 15 15 15 15 14 14 15 15 16 16 15 15 14 14 14 14 14 15 15 15 15 14 14 12 10 8 8 7 7 7 7 8 8
16 16 16 17 16 16 16 16 16 16 16 15 15 14 14 14 15 15 15 15 15 15 14 14 14 13 14 14 15 15 15 15 14 12 11 9 8 8 7 6 6 6
16 16 16 16 16 16 16 17 17 16 16 16 15 14 14 14 14 15 15 15 15 15 14 14 14 13 13 13 13 13 13 14 13 12 11 11 10 9 9 8 7 6
16 16 16 16 17 17 17 17 17 17 17 16 15 14 14 14 14 15 15 15 15 15 15 14 14 13 13 13 12 12 12 12 12 11 10 10 11 11 11 11 10 8
16 16 17 17 17 17 17 17 17 17 17 16 15 14 14 14 15 15 15 15 14 15 15 15 14 14 13 12 13 12 12 12 11 10 9 9 9 10 10 10 11 11
16 16 17 17 17 16 16 16 16 16 16 16 15 15 14 14 15 15 15 15 14 14 14 14 14 14 14 13 13 13 13 13 13 12 11 9 8 8 8 8 8 9
16 16 16 16 16 16 16 16 16 16 16 16 16 15 14 15 16 16 15 15 15 14 14 14 14 14 14 14 14 14 14 14 14 14 14 13 12 11 10 9 8 8
16 16 16 16 16 16 16 16 16 17 17 17 16 16 15 15 16 16 15 15 15 14 14 14 13 13 14 14 14 14 14 14 15 15 15 15 14 14 13 12 12 11
15 15 15 16 16 16 16 16 16 17 17 17 17 16 16 16 16 17 16 15 14 14 14 14 14 13 14 14 14 14 14 15 15 15 15 15 15 14 14 14 13 13
13 14 15 15 15 15 16 16 16 16 16 16 16 17 17 16 16 17 17 15 14 14 13 13 14 14 14 14 14 15 15 15 15 15 15 15 15 15 15 14 14 14
10 11 12 13 13 12 13 14 15 16 16 16 16 17 17 16 16 17 17 16 15 14 14 13 13 13 14 14 14 14 15 14 14 14 14 14 14 14 14 14 14 14
5 5 5 7 7 6 8 10 13 14 15 16 16 16 16 17 17 17 17 17 16 15 15 14 14 14 14 14 14 14 13 13 13 13 13 13 13 13 14 14 14 14
-4 -4 -4 -2 -1 0 2 5 8 11 13 14 15 16 16 16 16 16 17 17 16 16 16 15 15 15 15 15 15 15 14 14 14 14 14 14 13 14 14 14 14 14
-9 -8 -8 -8 -6 -6 -4 -2 2 5 9 11 13 14 15 15 15 16 16 16 16 16 16 16 16 16 16 15 15 15 15 15 14 14 14 14 14 14 14 14 14 14

ECMWFNIL_850_dewp_087.txt.gz
Dewpoint
15 15 15 14 14 14 14 14 15 15 14 14 14 15 15 14 14 14 13 13 13 13 13 13 13 14 14 15 16 16 15 13 12 12 12 12 12 11 12 14 14 14
13 14 14 14 14 15 14 14 15 15 14 14 14 14 15 15 15 15 14 13 13 13 13 13 13 13 14 14 15 15 15 14 13 13 12 12 12 12 12 13 14 14
10 12 12 13 13 13 14 14 15 15 14 14 14 14 15 15 15 15 14 13 13 13 13 13 14 13 13 14 14 14 14 14 14 14 12 11 11 12 12 13 14 14
7 9 9 10 11 12 13 14 15 15 15 14 14 14 14 14 14 15 14 14 14 13 12 13 13 13 13 13 13 13 14 14 15 14 13 12 12 12 12 13 14 15
6 7 7 8 9 10 13 14 15 15 14 14 14 14 13 13 13 14 14 14 14 14 13 12 12 13 13 13 13 13 13 14 14 13 13 13 13 12 13 14 15 15
7 7 6 6 6 7 10 12 13 14 15 15 15 14 12 12 13 13 14 14 14 14 14 13 12 12 12 12 12 12 13 13 13 13 13 13 13 12 13 14 15 15
8 8 7 7 7 8 8 9 11 12 14 15 15 14 13 12 12 13 14 15 15 15 15 14 12 11 11 11 11 12 12 13 13 13 13 13 13 13 13 13 14 15
9 9 9 8 8 9 9 10 10 10 12 14 14 14 14 13 12 13 14 15 15 16 16 15 14 12 11 11 11 11 11 12 13 13 13 13 13 13 13 13 13 14
10 8 8 8 8 9 9 9 10 10 11 12 13 13 14 14 13 13 14 15 15 16 16 16 15 13 12 11 11 11 11 11 11 12 12 13 13 13 13 13 13 13
11 9 8 7 7 8 8 9 9 9 10 10 11 12 14 15 14 14 15 15 16 16 16 16 16 15 13 11 11 11 11 11 11 11 11 12 12 13 13 13 13 12
13 11 10 10 8 8 9 9 9 9 9 9 10 12 14 15 15 15 15 16 16 16 16 16 15 15 14 13 11 11 11 11 11 11 11 11 11 11 12 13 13 12
14 13 13 13 12 12 12 12 11 10 9 10 11 13 14 15 15 15 16 15 15 15 16 15 15 15 14 14 13 12 11 11 11 12 12 12 12 11 10 11 11 12
15 15 14 14 14 14 14 14 14 12 11 12 13 14 15 15 15 15 16 16 15 16 16 15 15 15 15 14 14 13 13 12 11 11 12 13 13 12 11 10 10 10
16 16 16 16 16 16 16 16 15 15 14 14 15 16 16 16 15 15 15 15 15 15 15 15 15 15 15 15 14 14 13 12 12 11 11 11 12 12 12 11 10 9
18 17 17 17 17 17 16 16 16 16 16 16 16 16 16 16 16 15 15 14 14 14 15 15 15 15 15 15 14 14 13 12 12 11 10 10 9 10 10 10 10 10
18 18 18 17 17 17 16 16 16 16 16 16 16 16 16 16 15 15 15 14 14 14 14 15 15 15 15 14 14 14 13 13 13 12 12 11 11 10 9 8 8 8
17 17 17 17 16 16 16 16 16 16 17 17 17 16 16 16 16 15 14 14 14 14 14 14 14 14 14 14 14 14 13 13 14 13 13 13 13 12 11 10 9 7
16 17 17 17 17 17 17 16 16 17 17 17 17 17 17 17 16 15 14 14 14 14 14 14 14 14 14 15 14 14 14 14 14 14 14 14 14 14 13 12 11 9
17 17 17 17 17 17 17 16 16 16 17 17 17 17 17 17 16 16 14 14 14 14 14 14 14 13 14 14 14 14 14 14 14 14 14 14 14 14 14 14 13 12
16 17 17 17 17 17 17 17 17 16 16 16 17 17 17 17 17 16 15 15 15 15 14 14 14 14 14 14 14 14 13 13 14 14 14 14 14 14 14 14 14 14
16 16 16 16 16 16 16 16 17 16 16 16 17 17 17 17 16 16 15 15 16 16 15 15 15 15 15 14 14 14 13 13 13 13 14 14 14 14 14 14 13 13
15 15 15 15 15 15 15 15 16 16 16 16 17 17 17 17 17 17 16 16 16 16 16 16 15 15 15 15 15 14 14 13 13 13 13 14 14 14 14 14 14 14
14 14 15 15 14 14 14 14 15 15 16 16 16 16 17 17 17 17 17 17 17 17 17 16 16 15 15 15 15 15 15 14 14 14 14 14 15 15 15 15 15 15
10 10 11 13 13 12 12 12 13 14 14 15 15 15 16 16 16 16 17 17 17 17 17 17 16 16 15 15 15 16 16 16 15 15 15 15 15 15 15 15 15 14
3 2 4 6 7 6 7 8 9 11 12 13 14 14 14 15 15 16 16 16 17 17 17 17 17 16 16 15 15 15 15 16 16 16 15 15 15 15 15 15 15 15
-6 -5 -5 -4 -3 -3 -1 2 4 6 9 10 11 11 12 12 13 14 15 15 16 16 16 16 16 16 16 16 16 15 15 16 16 16 16 16 15 15 15 15 15 15

ECMWFNIL_850_dewp_090.txt.gz
Dewpoint
11 12 13 14 14 15 14 14 14 14 14 14 14 14 15 15 16 15 14 13 13 13 13 13 13 13 13 13 14 15 15 14 13 12 11 12 12 12 12 12 13 15
10 11 13 13 14 14 14 14 14 13 13 13 13 14 14 15 15 15 15 14 13 13 13 13 13 13 13 14 14 14 15 14 13 12 12 12 12 12 11 11 12 14
9 11 12 12 12 13 14 14 14 13 13 13 14 14 14 14 15 15 15 15 14 13 13 13 13 13 14 14 14 14 14 15 14 13 13 12 11 11 12 11 12 13
7 9 10 11 12 13 13 14 14 13 13 12 13 14 13 14 14 14 15 15 14 14 14 13 13 14 14 14 14 14 14 14 14 14 13 12 12 11 11 11 12 13
5 6 7 10 12 13 14 14 13 13 12 12 13 13 13 13 13 13 14 14 15 15 14 14 13 13 14 14 14 14 14 14 14 14 13 13 13 12 12 12 12 13
5 5 5 7 10 11 12 13 12 12 12 12 13 13 13 13 12 12 13 14 14 15 15 15 14 14 13 13 13 13 13 13 14 14 13 13 13 13 13 13 12 13
6 5 6 7 8 9 9 10 11 11 12 12 13 14 14 14 13 12 12 13 14 15 15 16 16 15 14 13 12 12 13 13 13 14 13 13 13 13 13 13 13 13
9 7 7 7 8 7 6 7 8 10 11 12 12 14 15 15 14 12 12 12 14 15 15 16 16 16 16 15 13 12 12 12 13 13 13 13 13 13 13 13 13 13
12 11 10 9 8 7 6 6 7 8 10 10 11 13 14 15 15 14 13 13 14 14 15 16 16 16 16 16 15 14 12 12 12 12 13 13 13 13 13 13 13 13
14 13 13 11 10 8 7 7 7 7 8 8 9 10 12 13 14 14 14 14 14 14 15 15 16 16 16 16 15 14 13 12 12 12 12 12 12 12 13 14 14 13
14 14 14 14 12 10 8 8 8 8 8 8 8 8 9 10 12 14 15 15 15 15 15 15 15 15 16 16 15 15 14 13 13 12 12 11 12 12 12 12 13 13
14 14 15 15 14 13 12 10 9 8 9 9 9 9 8 8 9 12 14 15 15 15 15 15 15 15 15 15 15 15 14 14 13 13 12 12 12 12 12 12 12 11
15 15 15 15 15 15 15 14 12 10 10 11 11 10 10 9 9 11 14 14 15 15 15 15 15 15 15 15 14 14 15 14 14 13 13 12 12 12 13 13 13 12
15 15 15 15 14 15 15 16 15 14 14 14 13 12 11 11 12 13 14 14 15 15 15 15 15 15 15 15 15 15 15 14 14 14 14 13 13 13 13 13 13 12
16 16 16 15 15 15 15 15 16 16 16 16 16 15 13 13 13 14 15 15 15 15 15 15 15 15 15 15 15 15 15 14 14 14 14 14 13 13 13 13 13 13
17 17 16 16 16 16 15 15 15 16 17 17 16 16 15 14 14 15 15 15 15 15 15 15 15 15 15 14 15 15 15 15 15 14 14 14 14 14 14 14 13 13
17 17 17 17 17 17 16 16 15 16 17 17 17 16 16 16 15 15 16 16 16 16 15 15 14 14 14 14 14 14 15 15 15 15 15 14 14 14 14 14 14 14
17 17 17 17 17 17 17 16 16 16 17 17 17 17 17 16 16 16 16 16 16 16 16 15 15 14 14 14 14 14 14 15 15 15 15 15 14 14 14 14 14 14
17 17 17 17 17 17 16 16 16 16 17 17 17 17 17 17 16 16 16 16 16 16 16 15 15 14 14 14 14 14 14 14 15 15 14 14 14 14 14 14 14 14
16 16 17 17 17 17 16 16 16 17 17 17 17 17 17 17 17 16 17 17 17 17 16 15 14 14 14 14 14 14 14 14 14 14 14 14 13 14 14 14 14 14
16 16 16 17 17 17 17 17 17 17 17 17 17 17 17 17 17 17 17 17 17 17 16 15 14 14 14 14 15 15 14 14 14 14 14 13 13 13 13 14 14 14
15 16 16 16 16 16 16 16 16 16 16 17 17 17 17 17 17 17 17 16 16 16 16 16 15 15 15 15 15 15 15 15 15 14 14 14 14 13 13 14 14 14
15 15 15 15 15 15 15 15 15 15 15 16 16 16 16 17 17 17 17 17 16 16 16 16 16 16 16 16 15 15 15 15 15 15 14 14 14 14 13 13 14 14
14 14 14 14 14 14 13 13 13 14 14 14 15 15 15 16 16 16 17 17 17 17 17 17 16 17 16 16 16 16 15 15 15 15 15 15 15 14 14 14 14 15
12 11 11 12 12 12 11 10 10 11 11 12 13 13 14 14 15 15 15 16 16 16 16 17 17 17 16 16 17 16 16 16 15 16 16 16 16 15 15 15 15 15
5 4 5 6 7 6 6 6 7 8 8 9 10 11 12 13 13 13 14 14 15 15 15 15 15 16 16 16 16 16 16 16 16 16 16 16 16 16 16 16 16 16

ECMWFNIL_850_dewp_093.txt.gz
Dewpoint
11 11 12 14 14 14 14 14 15 15 15 15 15 15 15 15 16 16 16 15 14 13 13 13 13 14 13 13 14 14 15 15 15 14 13 12 13 13 13 13 13 13
10 10 11 12 14 14 14 14 14 14 14 15 15 14 14 15 16 16 16 16 15 14 13 13 13 13 14 14 14 14 15 15 15 14 13 12 13 13 13 13 12 13
9 10 10 11 12 13 13 14 14 14 14 14 14 14 14 15 15 15 16 16 15 15 14 13 13 13 13 14 14 14 15 15 15 14 13 13 13 13 13 13 12 12
9 9 9 10 11 12 13 13 14 14 14 14 14 14 14 14 14 15 15 15 15 15 14 14 13 13 13 14 14 14 14 14 15 15 14 14 13 13 12 12 12 12
9 9 9 9 10 12 13 13 13 13 14 14 14 13 13 14 14 14 14 14 15 16 15 14 13 13 13 14 13 14 14 14 14 14 15 14 14 13 13 12 12 12
8 9 9 9 9 11 12 12 12 13 13 14 14 14 14 14 14 13 13 14 14 15 15 15 15 14 14 13 13 13 13 14 14 14 14 14 14 14 13 13 13 13
7 7 7 8 8 9 9 10 11 11 12 13 13 13 14 14 14 14 13 13 14 14 15 15 15 15 15 14 13 12 13 13 13 13 14 14 14 14 14 13 13 13
8 7 6 7 7 7 7 8 8 8 10 10 11 13 14 14 14 15 14 13 13 14 15 16 16 16 16 15 14 12 12 12 12 13 13 13 13 14 14 14 14 13
11 10 9 8 8 8 8 8 7 7 7 8 9 11 13 14 14 15 15 14 13 13 15 16 16 16 16 16 15 14 13 12 12 12 12 13 13 13 14 14 14 14
13 13 13 12 11 9 9 10 9 8 6 6 7 9 11 12 13 15 15 14 13 13 14 15 16 16 16 16 16 15 14 13 13 12 12 12 12 12 13 13 14 14
13 14 14 13 13 12 11 11 11 10 7 7 7 8 10 11 12 12 13 14 14 13 14 14 15 16 16 16 16 16 15 15 14 13 12 12 11 11 11 12 12 13
13 14 14 14 14 14 13 13 12 11 9 7 7 8 10 11 11 10 10 12 13 14 14 14 15 15 15 15 16 16 15 15 15 14 13 13 12 12 11 11 11 11
14 14 15 15 15 15 15 14 14 13 10 9 8 9 9 10 10 10 9 10 11 13 14 14 15 15 15 15 16 16 15 15 15 15 15 14 13 13 13 12 12 11
14 15 15 15 15 15 15 15 15 14 12 10 9 9 10 11 11 11 10 10 11 14 14 14 15 15 16 16 16 16 15 15 15 15 15 15 15 14 14 13 13 13
14 14 14 15 15 15 15 15 15 15 14 12 9 9 10 12 13 13 12 11 13 14 15 15 15 15 15 16 16 16 16 15 15 15 15 15 15 15 14 14 14 14
14 14 14 15 15 15 15 15 15 16 16 14 11 10 11 13 13 13 13 13 13 14 15 15 15 15 15 15 15 15 15 15 15 15 15 15 15 15 15 15 14 14
15 15 15 15 15 15 15 14 14 15 16 15 14 13 14 15 14 14 14 14 14 14 15 15 15 15 14 14 14 14 14 15 15 15 15 15 15 15 15 15 15 15
16 16 16 16 16 15 15 15 15 15 16 15 15 15 15 16 15 15 15 15 15 15 15 15 15 15 14 14 14 14 14 14 14 14 14 15 15 15 15 15 15 15
16 16 16 16 16 17 17 16 16 16 16 16 16 16 16 15 15 15 15 15 16 16 16 16 16 15 15 15 14 14 14 14 14 14 14 14 14 14 14 14 14 14
16 16 16 16 16 17 17 17 17 17 16 16 16 16 16 15 15 14 14 15 16 17 17 17 16 16 16 15 14 14 14 14 14 14 14 14 14 14 14 14 14 13
16 16 16 16 16 16 17 17 17 17 17 17 17 16 16 15 15 14 14 15 16 17 17 17 17 17 16 16 15 14 13 14 14 14 14 13 14 14 13 13 13 13
16 16 16 16 16 16 16 17 17 17 17 17 17 16 16 16 15 15 15 15 16 17 17 17 17 17 17 16 15 15 14 14 14 14 14 14 14 14 13 14 14 13
14 14 14 15 15 15 16 16 17 17 17 17 16 16 16 16 16 16 16 16 16 17 17 17 17 17 17 16 16 15 15 15 15 15 15 15 14 14 14 14 14 14
13 13 14 14 14 14 14 15 15 15 15 15 15 16 16 16 16 16 16 16 16 17 17 17 17 17 17 16 16 16 16 16 15 16 16 16 15 15 15 14 14 14
10 10 11 11 11 11 12 13 13 13 13 13 14 14 14 15 15 15 16 16 16 16 16 16 17 16 17 17 17 16 16 16 16 16 16 16 16 16 16 16 15 15
6 6 6 7 8 8 9 10 10 10 10 11 11 12 12 13 13 14 14 14 15 15 15 15 16 16 16 16 16 16 16 16 16 16 16 16 16 16 16 16 16 16

ECMWFNIL_850_dewp_096.txt.gz
Dewpoint
11 12 14 15 16 17 17 17 17 17 17 17 17 17 17 17 16 16 17 17 15 15 14 13 13 13 14 14 14 14 14 14 16 16 13 13 14 16 16 16 16 16
11 12 12 14 16 16 16 16 17 17 17 16 17 17 17 16 16 15 16 16 16 16 14 12 13 13 13 15 13 13 14 14 15 17 15 13 15 16 16 16 16 15
11 12 12 14 16 16 16 16 16 16 17 17 17 17 17 17 16 16 15 15 16 17 15 13 14 14 13 14 13 14 15 14 15 17 15 13 14 16 16 16 17 16
11 12 13 15 16 16 16 16 16 16 16 17 17 17 17 17 17 17 15 14 14 15 15 14 14 14 13 13 13 14 15 14 14 15 15 14 14 14 16 17 16 16
11 11 13 15 16 16 16 16 16 16 16 16 16 17 16 16 16 17 17 16 14 15 15 15 14 14 14 13 13 14 15 16 16 14 13 14 15 15 16 16 15 15
12 10 10 12 14 15 16 16 16 16 16 16 16 17 16 16 16 17 17 17 16 17 17 17 16 16 16 15 13 14 15 17 17 15 13 14 15 16 17 17 14 14
13 12 11 10 13 14 14 16 16 16 16 16 16 16 16 17 17 17 17 17 17 17 17 17 16 15 16 16 14 13 13 14 14 13 13 14 15 15 16 16 14 13
12 14 12 11 13 14 14 15 15 16 16 16 16 16 16 16 17 17 17 17 17 17 17 17 15 14 15 17 16 15 14 15 16 14 13 14 14 13 14 15 14 13
12 13 13 12 13 14 14 14 14 15 15 15 15 15 15 16 16 17 17 16 17 16 15 15 15 14 16 17 15 14 14 16 17 17 15 15 15 15 15 16 15 15
12 13 13 13 13 14 14 14 13 14 15 15 14 14 15 16 16 17 17 15 15 15 13 13 14 16 17 17 15 14 14 14 16 16 15 15 16 16 16 16 16 16
13 13 13 13 13 13 13 14 14 13 14 14 14 13 14 16 16 17 16 15 15 16 15 14 14 16 17 17 17 16 15 15 16 15 14 14 15 15 14 15 15 16
13 14 14 14 14 13 13 13 14 14 14 14 14 14 14 15 16 16 16 15 15 16 17 16 15 15 16 16 18 18 17 16 16 16 15 14 14 15 15 15 15 16
13 14 14 14 14 14 13 13 13 14 15 15 15 15 14 14 15 16 16 16 15 14 16 16 15 15 15 14 16 18 18 17 17 17 16 16 15 16 16 16 16 16
13 13 14 14 14 14 14 14 14 14 15 15 15 15 15 15 14 15 15 16 15 15 16 16 16 15 15 14 14 16 17 17 17 17 17 17 17 17 17 16 16 16
13 13 13 13 14 14 14 14 14 14 14 14 13 13 15 15 15 15 15 15 16 16 16 16 16 16 16 16 15 16 17 17 17 17 17 17 17 17 17 17 16 16
13 13 13 13 13 14 14 14 14 14 14 14 12 12 14 14 14 15 16 16 16 16 15 16 16 16 16 16 15 16 16 17 17 17 17 17 17 17 17 17 16 16
13 13 13 13 13 14 14 14 14 14 14 15 13 12 12 12 12 13 14 16 16 16 15 15 15 16 16 15 14 14 14 15 16 16 17 16 17 17 17 17 17 16
14 14 14 14 14 14 14 14 14 14 15 15 14 12 11 11 12 13 14 16 17 17 16 16 16 16 15 14 14 14 14 14 14 16 16 17 17 17 17 17 17 16
16 16 16 16 15 15 15 15 14 14 15 15 14 13 13 13 14 16 16 16 17 18 17 17 17 15 14 14 14 15 15 14 14 15 16 16 17 17 17 17 16 16
17 17 17 17 16 16 16 16 16 15 15 15 14 14 15 15 15 16 17 17 17 18 18 18 16 15 14 15 15 15 15 15 14 14 14 16 16 17 16 17 16 15
17 16 17 17 16 16 17 17 17 16 15 16 16 16 16 16 16 16 17 17 17 17 17 17 17 15 15 15 15 15 16 15 15 14 14 15 16 15 15 15 15 14
16 16 16 16 16 16 16 17 17 17 16 16 17 17 17 16 16 17 17 17 17 17 17 17 17 16 15 15 15 15 16 16 15 14 14 15 15 15 14 14 14 14
16 16 16 16 16 16 16 16 16 16 17 17 17 17 17 16 17 17 17 17 17 17 17 17 17 16 16 16 16 16 16 16 16 16 16 16 16 15 14 14 15 14
14 14 14 14 15 16 16 16 16 16 16 16 17 17 17 17 17 17 16 17 17 17 17 17 17 17 16 16 16 16 16 16 16 17 17 17 16 16 16 16 16 15
13 13 13 12 13 14 14 14 15 15 16 16 16 16 16 16 16 16 16 16 16 16 17 17 17 17 16 16 16 16 16 16 17 17 17 17 17 17 17 17 16 15
10 10 10 10 10 11 11 11 11 12 13 14 14 15 15 15 15 15 16 16 16 16 16 16 16 16 16 16 16 16 16 17 17 17 17 17 17 17 17 17 17 16

ECMWFNIL_850_dewp_099.txt.gz
Dewpoint
16 16 16 17 17 17 18 17 17 17 17 17 16 16 17 17 17 17 17 17 15 14 14 12 13 13 14 15 13 14 15 15 16 16 16 16 16 17 16 16 16 16
17 17 17 17 17 17 17 17 17 17 17 17 17 17 17 17 17 16 16 16 16 16 14 12 13 13 14 16 14 13 14 13 15 17 17 15 16 17 16 16 16 16
16 17 17 17 17 16 17 17 17 17 17 17 17 17 17 17 17 16 16 16 17 18 16 13 13 13 14 15 13 14 16 14 14 18 17 14 15 18 17 16 16 16
16 17 17 16 16 16 17 17 17 17 16 17 17 17 16 16 17 17 16 15 15 17 18 16 14 14 14 14 13 15 17 15 15 16 15 13 14 15 17 17 17 17
16 16 16 16 16 16 16 16 16 16 16 16 17 16 17 17 17 17 17 16 15 16 17 17 16 16 15 13 12 15 16 16 16 15 14 14 14 15 16 17 17 17
17 16 15 16 16 16 16 16 16 16 16 16 16 16 16 17 16 16 17 17 17 17 17 18 17 18 17 16 13 14 16 17 17 16 15 15 16 17 17 17 17 16
17 16 15 15 16 16 16 16 16 16 16 16 16 16 16 17 16 17 17 17 17 17 17 18 18 18 18 18 16 13 14 16 16 14 14 15 16 16 17 18 17 15
16 16 16 16 15 15 15 16 16 16 16 16 16 16 16 16 17 17 17 17 17 17 17 18 18 17 17 18 18 15 15 16 16 14 12 14 15 14 14 17 17 15
15 15 16 15 15 15 15 15 15 15 15 15 15 16 16 16 16 16 17 17 17 17 17 18 17 16 16 18 18 16 15 16 17 17 16 16 16 16 15 17 17 17
15 15 15 15 14 14 14 14 13 14 14 15 15 15 15 15 16 16 17 17 17 17 17 16 16 16 16 18 17 16 15 16 16 17 17 17 17 18 17 17 18 18
15 15 15 15 15 14 13 13 12 12 13 14 14 14 13 14 15 17 18 17 17 17 17 16 16 16 16 17 18 18 17 17 17 16 16 16 17 17 16 16 16 16
16 16 15 15 15 15 13 13 13 12 12 13 14 13 13 13 14 16 17 18 17 17 17 17 16 16 16 16 17 18 18 17 17 17 17 16 16 17 16 16 15 15
16 17 16 16 16 15 12 11 13 13 12 12 13 13 13 13 13 15 17 17 17 17 17 17 16 16 16 15 16 18 18 18 18 17 17 17 17 17 17 17 16 16
14 16 17 16 16 16 13 11 12 13 13 12 12 13 13 13 12 14 15 16 17 17 17 17 16 16 16 15 15 17 17 18 18 17 17 17 17 17 17 16 16 16
12 13 15 15 15 15 15 13 13 14 15 14 14 14 14 14 13 12 13 15 16 16 16 16 16 16 17 16 16 16 16 17 17 17 17 17 17 17 17 16 16 16
13 13 13 13 13 13 14 15 14 14 15 15 16 16 16 15 14 13 13 14 14 15 15 15 15 15 16 17 17 17 16 16 17 17 18 18 17 17 17 16 16 16
14 14 14 13 13 13 13 14 15 15 15 15 16 16 16 16 16 15 14 14 14 15 15 15 14 14 15 16 16 16 16 16 17 17 18 18 17 17 17 17 16 16
14 14 14 13 13 13 13 14 14 14 15 15 15 16 16 15 15 16 15 15 15 15 15 14 14 14 14 15 15 15 15 15 15 16 17 17 17 17 17 17 16 16
15 14 14 13 13 13 13 14 14 14 14 14 15 15 15 15 16 16 16 15 15 15 16 15 15 15 15 15 15 15 14 14 13 14 15 16 16 16 17 17 17 17
16 16 16 15 14 15 15 15 15 14 14 14 14 14 15 15 16 16 16 16 16 16 16 16 16 15 15 15 16 15 14 14 14 14 14 15 15 16 16 17 17 17
17 17 17 16 16 16 16 16 16 16 16 16 15 15 15 15 15 16 16 17 17 17 17 17 16 15 16 16 16 15 14 15 15 15 15 15 15 16 16 17 17 18
17 17 17 17 17 17 17 17 17 17 17 17 16 16 16 15 15 15 15 16 17 17 17 17 15 15 16 16 15 15 15 15 16 16 16 16 16 17 18 18 18 18
17 17 17 16 17 17 17 17 17 17 17 17 17 16 16 15 15 16 16 16 17 16 15 16 15 15 15 15 15 15 15 16 17 17 16 16 16 17 18 18 18 17
16 16 16 16 16 16 16 16 16 16 17 17 17 17 16 16 16 16 17 17 16 15 15 15 15 15 15 15 15 16 16 16 17 17 16 16 16 17 17 16 16 15
14 15 15 15 15 16 16 16 16 16 16 16 17 17 17 17 17 17 17 17 16 16 15 15 15 15 16 16 16 16 16 16 16 17 17 16 17 17 16 16 16 16
12 12 12 13 14 14 14 14 14 14 14 15 16 16 16 16 16 16 16 16 16 16 16 16 16 16 16 16 17 16 16 17 17 17 17 17 17 17 16 16 16 16

ECMWFNIL_850_dewp_102.txt.gz
Dewpoint
13 13 13 13 14 15 16 16 16 16 16 16 15 15 16 16 16 16 16 16 14 13 13 13 13 13 13 14 14 13 13 13 14 16 15 14 15 16 16 16 16 15
14 13 13 14 15 16 16 16 16 16 16 16 16 16 16 16 16 16 17 16 15 14 13 12 13 13 14 15 14 13 14 13 13 15 15 15 15 16 16 16 16 16
15 14 13 14 15 16 17 17 17 16 16 16 16 16 16 15 15 16 16 16 16 16 15 13 13 13 13 15 13 13 14 13 14 16 16 15 14 15 16 16 16 16
15 15 15 14 14 15 16 17 17 17 16 16 16 16 16 15 15 15 15 15 15 17 17 15 13 13 13 13 13 13 14 13 14 15 15 14 13 13 16 17 16 16
16 16 16 16 15 15 15 15 16 16 16 16 16 16 15 16 16 16 15 14 14 15 16 14 13 13 12 13 13 13 13 14 14 14 14 14 13 13 15 16 16 16
16 16 16 16 16 15 15 15 16 15 15 16 16 16 15 15 16 16 16 15 14 16 16 15 15 15 14 14 13 13 14 15 16 15 14 14 13 15 17 17 17 17
16 15 16 16 16 16 16 15 15 16 16 16 16 16 16 16 16 16 17 17 16 17 16 15 16 16 16 15 14 13 14 15 16 15 14 13 13 15 16 17 18 17
16 16 16 16 16 16 16 16 16 16 16 16 16 16 16 16 16 16 16 17 17 17 16 16 16 16 15 15 15 15 15 16 16 15 14 13 12 13 14 15 16 16
16 17 16 16 16 16 15 15 15 16 16 16 16 16 16 16 16 16 16 16 16 17 16 16 16 16 16 16 16 16 16 16 16 17 16 15 13 13 14 14 15 15
16 16 16 16 16 15 15 14 14 15 15 16 15 15 16 16 16 16 16 16 16 16 16 16 16 15 14 15 16 16 16 16 16 16 17 17 16 16 17 17 16 16
15 16 16 15 15 15 15 14 14 13 14 14 15 15 15 15 15 15 16 16 16 16 16 16 16 15 14 14 16 16 16 16 16 16 17 17 17 16 17 17 16 16
15 15 15 15 15 15 15 14 13 13 12 13 14 14 14 14 14 14 15 16 16 16 15 15 15 14 14 14 16 16 16 16 16 17 17 17 16 16 16 16 15 15
15 15 15 15 15 15 15 14 13 13 12 12 12 13 14 13 13 14 15 16 16 15 15 16 16 15 15 14 15 16 17 17 17 17 17 17 17 16 16 16 16 16
15 15 16 16 15 15 15 14 13 13 13 12 12 12 13 13 13 13 13 15 16 16 15 16 17 17 16 15 15 16 17 17 17 17 17 16 17 17 16 16 16 16
14 15 16 16 16 16 16 15 13 12 12 12 13 12 12 13 13 13 12 13 15 16 16 16 17 17 16 15 15 15 16 17 17 17 17 16 16 17 17 16 16 16
14 15 16 16 16 16 16 15 13 11 11 11 12 13 13 12 13 13 13 13 13 14 15 15 16 16 15 15 15 16 16 17 17 17 16 15 16 16 17 16 16 16
14 14 15 15 16 16 15 15 14 13 12 12 12 13 13 13 13 13 13 13 13 13 14 15 15 15 15 14 15 16 16 17 17 16 16 16 16 16 16 16 16 16
16 16 15 15 15 16 15 15 14 13 13 13 13 13 13 14 14 14 15 15 14 13 14 14 15 15 14 14 14 15 15 16 16 16 16 16 15 15 15 16 16 16
17 17 16 16 15 15 15 15 14 14 13 13 13 14 14 14 14 14 15 16 15 14 14 13 14 15 14 14 14 14 14 15 15 16 15 15 15 16 16 16 16 16
16 17 17 16 15 15 15 14 14 13 13 13 13 13 14 14 14 15 15 16 15 15 14 12 14 15 15 14 14 14 14 15 15 15 15 15 14 15 15 15 15 15
16 17 17 17 16 16 15 15 14 14 14 13 13 13 14 14 14 15 15 15 15 16 15 13 13 15 16 16 15 15 15 15 15 16 15 15 14 14 15 15 15 15
17 17 17 17 17 17 17 16 16 15 15 14 14 15 14 14 14 14 14 15 15 15 15 14 13 14 16 16 16 16 15 16 16 16 15 15 14 15 15 16 15 15
17 17 16 16 17 17 17 17 16 16 16 16 16 16 15 15 16 16 15 15 15 15 15 14 14 14 15 16 16 16 16 16 16 16 15 15 15 16 16 15 15 15
16 16 16 16 17 17 17 16 16 16 16 16 16 16 16 16 17 17 16 15 15 15 15 15 15 15 14 15 16 15 15 16 16 16 16 15 16 16 16 15 15 16
15 15 15 15 15 16 15 15 15 16 16 16 16 16 17 17 17 17 17 16 15 15 15 15 16 15 14 15 15 15 15 16 16 16 16 16 16 16 16 16 16 16
14 14 14 14 14 15 14 14 14 15 15 15 15 16 16 16 16 17 17 16 16 16 16 16 16 16 15 16 15 15 16 16 16 16 16 16 15 16 16 16 16 16

ECMWFNIL_850_dewp_105.txt.gz
Dewpoint
14 14 14 14 14 13 13 13 14 15 14 13 13 14 15 15 15 15 15 14 13 13 13 13 13 12 12 13 14 15 15 14 13 14 14 12 13 14 14 15 16 16
13 13 13 13 13 13 14 14 15 15 14 14 13 13 15 16 15 15 15 15 15 13 13 12 12 12 12 12 13 14 13 13 13 14 14 14 14 15 15 16 16 16
13 13 13 13 13 14 14 15 15 15 15 15 15 14 15 16 14 14 15 15 15 13 13 13 12 12 12 13 13 13 13 13 13 13 14 15 15 15 15 16 16 16
13 13 13 14 14 14 15 16 16 16 16 16 15 16 16 16 15 14 14 15 14 14 14 14 13 13 13 13 13 12 13 13 13 13 14 15 14 14 15 16 17 16
12 13 13 13 14 14 16 17 16 16 17 16 15 16 16 16 15 15 15 14 14 14 15 15 14 13 13 12 13 13 13 13 13 13 14 14 13 13 15 16 17 16
12 13 13 14 14 14 16 16 16 16 16 15 15 16 16 15 15 15 15 15 14 14 15 15 14 13 13 13 13 13 13 13 13 14 14 14 13 13 14 16 16 16
13 13 14 15 15 15 15 15 15 15 15 15 15 16 16 16 15 16 15 16 16 15 15 15 15 15 15 14 14 13 13 13 14 14 15 15 14 13 14 16 17 17
15 13 14 15 16 16 16 15 15 16 15 15 16 15 16 16 16 16 16 16 17 16 16 16 16 16 15 14 14 14 14 14 14 14 15 15 14 14 14 16 16 16
16 14 14 15 16 16 16 15 15 16 16 16 16 16 16 16 16 16 16 16 16 16 17 17 16 16 16 15 15 15 15 15 15 15 15 16 16 15 14 14 15 15
16 16 15 15 15 16 16 15 15 16 16 16 16 16 16 16 16 16 16 16 16 16 17 17 17 16 16 16 16 15 15 15 16 16 16 16 17 16 16 16 16 16
16 16 17 16 16 16 16 15 15 15 15 15 15 15 15 15 16 16 16 16 16 17 17 17 17 16 16 16 16 16 16 16 16 16 15 16 16 16 16 17 17 17
15 16 16 17 16 16 16 15 15 14 14 14 14 14 14 15 15 15 15 15 15 16 16 16 16 16 16 16 15 16 17 17 17 16 16 16 16 16 16 16 16 17
15 15 15 16 16 16 16 15 14 14 14 13 13 13 13 14 14 14 14 14 14 14 14 15 16 16 16 16 16 16 17 18 17 17 17 17 17 17 17 16 17 17
14 15 15 15 15 15 15 15 14 14 13 13 13 13 13 13 13 14 13 13 13 13 13 13 15 16 17 17 17 17 17 17 17 17 17 17 17 17 17 17 17 17
15 15 15 15 15 15 15 15 14 13 13 13 13 12 13 13 13 13 13 13 14 13 13 14 15 16 16 16 17 17 17 16 17 17 17 17 17 17 17 16 16 16
15 15 15 15 15 15 15 15 14 13 13 13 13 12 12 12 13 13 13 13 14 14 14 15 15 15 15 15 16 16 16 16 16 17 17 17 17 16 16 16 16 16
16 15 15 15 15 16 16 16 15 14 12 12 12 12 12 12 12 13 12 13 13 13 14 14 14 15 15 15 15 15 15 16 16 17 17 17 17 16 16 16 16 16
17 16 15 14 14 15 15 15 15 15 14 12 12 12 12 12 12 12 13 13 13 13 13 13 14 14 14 14 14 15 15 15 16 16 16 16 16 16 16 16 16 16
16 16 16 15 15 15 14 14 15 16 16 15 14 12 12 11 11 12 12 12 13 12 13 13 14 14 13 13 14 15 15 15 16 16 16 15 15 15 15 15 15 15
16 16 16 16 16 16 15 15 16 17 17 16 14 13 13 12 12 12 12 13 13 13 13 14 14 14 14 14 14 14 15 15 15 15 15 15 15 15 14 14 14 13
15 15 16 16 16 16 16 16 16 16 15 15 14 14 14 13 13 13 13 13 13 13 14 14 14 14 15 14 13 14 15 15 14 14 14 14 15 15 15 14 14 12
15 15 15 16 16 16 16 16 16 15 15 15 14 14 14 14 13 13 13 13 13 13 13 14 15 15 15 14 13 13 15 15 15 15 15 15 15 15 15 15 14 13
16 16 16 16 16 16 17 17 16 16 16 15 15 15 15 14 14 14 14 14 14 13 13 13 15 15 15 15 14 13 13 15 16 16 16 15 15 15 15 14 14 14
16 16 16 17 17 17 17 17 16 16 16 16 16 16 16 16 16 16 16 16 16 15 14 14 14 15 15 16 15 13 13 15 16 17 16 16 16 16 15 15 15 15
16 16 16 16 16 16 16 16 16 16 16 16 16 16 16 16 16 17 17 17 17 16 16 15 15 15 16 16 15 15 14 15 16 16 16 16 15 15 15 15 15 16
15 15 15 15 15 15 15 15 15 15 15 16 16 16 16 16 16 16 16 16 16 16 17 17 16 16 16 16 16 16 15 14 14 15 16 15 15 15 15 16 16 16

ECMWFNIL_850_dewp_108.txt.gz
Dewpoint
14 14 14 15 15 15 14 14 14 14 14 13 13 14 14 14 14 13 13 12 12 13 13 14 14 13 13 13 13 13 14 14 14 14 13 13 13 12 14 15 15 15
14 14 15 15 14 14 13 13 13 14 13 13 13 14 15 15 15 15 14 14 13 13 13 13 13 13 13 13 13 13 14 13 13 13 14 13 13 12 13 15 15 16
14 14 14 14 13 13 13 12 13 14 13 13 13 13 14 15 15 15 15 15 15 14 13 13 13 12 12 12 12 12 12 13 12 13 13 13 13 12 13 15 16 16
14 14 14 14 13 12 13 13 14 15 14 14 14 13 14 15 15 15 15 15 15 14 13 12 12 13 12 13 13 13 12 12 13 13 12 13 13 13 13 15 16 16
13 13 13 13 13 13 14 14 14 14 15 15 15 15 15 16 15 15 15 14 14 14 14 13 13 13 13 12 13 13 13 13 13 13 12 13 14 13 13 15 16 16
12 13 13 13 13 14 14 14 14 14 15 16 16 15 15 16 15 15 14 14 13 13 14 14 13 13 13 12 12 13 13 13 13 13 12 13 13 13 13 14 16 16
12 13 13 13 14 14 15 15 15 15 15 16 16 15 15 15 15 15 15 14 14 13 13 14 14 14 13 13 12 12 13 13 12 13 13 14 14 13 13 13 14 16
12 13 13 13 13 14 15 15 15 15 15 16 15 15 16 15 15 15 15 15 15 15 14 14 15 15 15 14 14 13 13 13 12 13 14 14 14 13 13 13 14 15
12 12 13 14 14 14 15 15 15 15 15 15 15 15 16 16 16 16 16 16 16 15 15 16 16 16 16 15 15 14 14 14 14 14 14 14 14 15 15 14 13 14
13 13 14 14 14 15 15 16 15 15 15 15 15 16 16 16 16 16 16 16 16 16 16 16 16 16 16 16 16 15 14 15 15 15 15 15 15 16 16 15 14 15
14 15 15 14 14 15 16 16 16 15 15 16 16 16 16 16 16 16 16 16 16 16 16 16 16 16 16 16 16 15 14 15 15 16 15 15 15 16 17 17 16 17
15 16 16 15 14 15 16 16 16 15 16 16 16 15 15 15 15 16 16 16 15 15 15 15 15 15 15 15 15 15 15 15 15 16 16 16 16 16 16 16 16 16
15 16 16 16 15 15 16 16 15 15 15 16 15 15 14 14 14 15 15 15 15 14 14 14 14 14 15 15 15 15 15 14 15 16 17 17 16 15 15 16 16 16
15 15 16 16 16 16 16 16 15 15 15 15 15 15 14 14 14 14 15 15 14 14 14 14 14 14 15 15 14 14 14 14 14 15 16 17 16 15 16 16 16 15
15 16 16 16 16 16 16 16 16 16 15 15 14 14 14 14 14 14 14 14 14 14 14 13 14 14 15 15 15 15 15 15 15 15 16 17 17 16 16 16 15 15
15 16 16 16 16 16 16 16 16 16 15 15 14 14 14 14 14 14 14 14 13 14 14 14 14 15 15 15 15 16 16 16 16 15 16 17 17 17 16 16 16 16
15 15 15 15 15 15 15 15 16 15 15 15 14 14 14 14 14 14 13 13 13 13 13 14 14 15 15 15 15 16 16 16 15 16 16 17 17 17 16 16 15 15
14 14 15 15 15 15 15 15 15 15 15 14 14 13 13 14 14 13 13 13 13 13 13 14 14 14 14 13 13 14 15 15 15 15 16 17 17 16 16 16 15 15
15 15 15 15 15 15 15 15 15 15 15 15 14 13 13 13 13 13 13 13 13 13 13 14 14 14 13 13 13 13 14 14 15 15 16 17 17 16 15 15 14 15
16 16 15 15 15 15 15 15 16 16 16 16 15 14 14 14 13 13 13 13 13 13 13 13 13 14 14 14 14 13 13 14 14 15 15 16 17 16 15 14 14 13
16 16 15 15 15 15 15 15 16 16 16 16 16 15 15 16 15 14 14 13 13 13 13 13 14 14 15 15 15 15 14 14 14 14 15 16 17 17 16 15 14 14
16 16 16 15 15 16 16 16 16 16 16 16 16 16 16 17 16 16 15 14 14 13 13 14 15 15 15 15 15 16 15 15 14 14 15 16 16 17 16 16 15 15
15 15 15 16 16 15 16 16 16 16 16 16 16 16 16 16 16 15 15 15 14 14 13 14 14 15 14 14 14 15 16 16 15 14 15 15 15 16 16 16 16 15
15 15 15 15 15 15 16 16 16 16 16 16 16 16 16 16 16 16 15 15 15 14 14 14 14 14 14 13 13 13 15 16 16 15 15 15 15 15 16 16 16 16
16 16 16 16 16 16 16 16 17 17 17 16 16 16 16 16 16 16 16 16 16 15 15 15 15 15 15 14 14 13 13 15 16 15 14 15 16 16 16 16 16 15
15 16 16 16 16 16 16 16 16 16 16 16 16 16 16 16 16 16 16 16 16 16 16 16 16 16 16 16 15 14 14 15 16 16 15 15 16 16 16 15 15 15

ECMWFNIL_850_dewp_111.txt.gz
Dewpoint
14 14 14 14 14 14 14 14 15 15 14 14 14 13 13 13 13 12 12 12 12 12 13 13 14 14 15 14 13 14 14 14 14 14 13 13 12 12 13 14 14 14
15 14 14 14 14 14 15 14 15 15 14 14 14 13 14 14 13 13 13 13 12 12 13 13 14 14 14 14 13 13 13 14 15 14 13 14 13 13 13 13 14 15
14 14 14 14 14 14 15 15 14 14 14 14 14 13 14 15 14 14 14 14 13 13 13 13 13 13 13 13 13 13 13 13 14 13 12 12 13 13 13 13 14 15
13 14 14 14 14 14 15 15 14 13 14 14 13 13 13 14 14 15 15 14 14 14 13 13 13 13 13 12 12 12 13 13 13 13 12 12 12 13 13 13 14 15
12 13 14 15 15 14 14 14 13 13 14 14 13 13 13 14 14 15 15 15 15 15 14 13 13 13 12 12 12 13 13 13 13 12 12 12 12 13 14 13 13 14
13 13 14 14 14 14 14 14 13 13 14 14 14 14 14 14 15 15 15 15 15 15 14 14 13 13 13 13 13 13 13 13 13 13 13 13 12 13 13 13 13 14
13 13 13 14 14 14 14 13 13 14 14 15 15 15 15 15 15 15 15 15 15 15 14 14 14 14 14 13 13 12 12 13 13 13 13 13 13 13 13 13 13 13
12 12 13 13 14 14 13 13 14 14 15 15 15 16 16 15 15 15 15 15 15 15 14 14 14 15 15 14 14 13 13 13 13 13 13 13 14 14 14 14 13 13
11 12 12 13 13 13 13 14 14 15 16 16 16 16 16 16 16 15 15 15 15 15 15 15 15 15 16 16 15 15 14 14 13 13 13 14 14 14 14 15 14 13
10 11 12 13 13 13 13 14 14 15 15 15 15 15 15 16 16 16 16 16 16 16 16 16 15 15 15 15 16 16 15 15 14 14 14 14 15 15 15 16 16 14
11 11 12 12 13 13 13 13 14 15 15 15 15 15 15 15 16 16 16 16 16 16 16 16 16 16 15 15 15 15 15 15 15 15 15 15 15 15 15 16 16 15
11 11 11 12 12 13 13 13 15 15 15 15 15 15 15 16 16 16 16 16 16 16 15 15 15 15 15 15 15 15 15 15 14 14 15 15 15 15 15 15 15 15
11 12 12 12 13 13 13 14 15 16 16 16 15 16 16 16 16 16 16 16 16 15 15 14 14 14 14 15 15 15 15 14 14 14 15 15 15 15 16 15 15 15
13 13 14 14 15 15 15 15 15 15 16 16 16 16 16 15 15 15 15 15 15 15 15 15 14 14 14 14 15 15 15 15 14 14 14 14 14 15 16 16 16 15
13 14 15 15 16 16 16 15 15 15 16 16 15 16 16 15 15 14 14 14 15 15 15 15 15 14 14 14 14 14 15 15 15 15 15 14 14 14 15 16 16 15
14 14 15 15 16 16 16 16 16 16 16 16 16 16 15 15 15 14 14 14 14 15 15 15 15 14 14 14 14 14 14 15 15 16 16 16 15 15 15 15 16 16
15 15 15 15 16 16 16 16 16 16 16 16 16 16 16 15 15 14 14 14 14 14 14 14 14 14 14 14 14 14 14 15 15 15 16 16 16 15 15 15 16 16
16 15 15 15 16 16 16 16 16 16 16 16 16 16 16 15 15 15 14 14 14 14 14 14 13 13 14 14 14 14 15 15 15 15 16 16 16 15 15 15 16 16
15 15 15 16 16 16 16 16 16 16 16 16 16 16 16 15 15 15 15 14 14 14 14 14 13 13 13 14 14 14 14 14 14 14 15 15 15 15 15 15 15 16
15 15 16 16 16 16 16 16 15 15 15 15 15 15 15 15 15 15 14 14 14 14 14 14 14 14 14 14 14 14 14 14 13 13 14 14 15 15 15 15 15 16
16 16 16 16 15 15 15 15 15 15 15 15 15 15 15 15 15 15 15 15 14 14 14 14 13 14 14 14 14 15 14 14 13 13 14 14 14 14 15 15 15 16
16 16 16 16 16 15 15 16 15 16 16 16 16 16 16 16 16 17 16 16 16 16 15 15 14 14 13 14 14 15 15 15 14 13 13 13 14 14 14 15 16 16
16 17 16 17 17 17 17 16 16 16 16 17 17 17 17 17 17 16 16 16 16 17 17 16 15 15 14 14 14 15 15 16 15 15 13 12 13 14 15 15 16 16
16 16 16 16 17 17 17 17 16 16 17 17 17 17 16 16 15 15 15 16 16 16 16 16 16 15 15 14 14 14 15 16 16 15 15 14 14 14 15 16 16 16
15 15 15 16 16 16 16 16 16 16 17 16 16 16 16 16 16 16 16 16 16 16 16 15 15 15 15 15 15 15 15 15 15 15 15 15 15 15 16 16 17 17
16 16 16 16 16 16 16 16 16 16 16 16 16 16 16 16 16 16 16 16 16 16 16 16 16 16 16 16 16 16 16 16 16 16 15 15 14 15 15 16 16 16

ECMWFNIL_850_dewp_114.txt.gz
Dewpoint
15 15 15 15 15 15 15 15 15 14 14 15 14 13 13 14 14 15 14 13 13 13 13 13 13 13 14 15 15 15 15 15 15 14 14 13 13 12 12 12 12 12
15 15 15 15 15 15 15 15 15 15 15 15 15 15 15 14 14 15 14 14 13 13 13 13 13 14 14 15 15 14 14 14 15 15 15 14 14 14 14 13 13 13
14 15 15 15 14 15 15 15 15 15 15 15 15 15 15 15 15 15 14 14 14 13 13 13 14 14 14 14 14 14 13 13 13 14 15 14 14 14 14 14 14 14
13 13 14 14 15 15 15 15 15 15 15 15 15 15 15 15 15 15 15 15 15 14 14 13 13 13 13 14 14 13 13 12 13 13 14 14 13 13 13 14 14 14
12 12 13 14 14 15 15 15 15 15 15 15 15 15 15 14 14 15 15 15 15 15 15 15 14 13 13 13 13 13 13 13 13 13 13 13 13 13 13 14 14 14
12 12 12 12 13 14 15 15 15 15 15 15 14 14 15 14 14 14 14 15 15 15 15 15 15 14 13 13 13 12 12 13 13 13 13 12 13 13 13 13 14 14
12 12 12 12 13 14 14 15 15 15 15 14 14 14 14 14 14 14 15 15 16 15 15 15 15 14 14 14 13 13 12 12 13 13 13 13 13 13 14 14 14 13
11 12 12 12 13 13 14 14 14 14 14 14 14 14 14 14 14 15 15 16 16 15 15 14 14 14 14 15 14 13 13 13 13 13 13 13 13 13 14 15 14 14
10 11 12 12 13 13 13 13 13 13 13 13 14 14 15 15 15 15 15 16 15 15 15 15 14 14 14 14 14 14 14 14 14 13 13 13 13 13 14 14 14 14
10 10 11 12 13 13 13 12 12 12 13 13 14 14 15 15 15 15 16 16 16 16 15 15 15 15 15 15 15 15 15 15 15 15 14 14 14 14 14 14 14 14
10 10 10 11 12 12 12 13 13 12 13 13 14 15 15 16 16 16 16 16 16 16 16 16 16 16 16 16 16 16 16 16 16 15 15 15 14 14 14 14 14 14
10 10 9 9 11 12 12 13 13 13 13 13 14 15 15 15 15 16 16 16 16 16 16 16 16 16 16 16 16 16 16 16 16 16 16 15 14 14 14 14 14 14
10 10 10 9 10 11 12 13 13 13 13 13 14 15 15 15 15 15 16 16 16 16 16 16 16 16 16 16 16 16 16 16 16 16 16 15 15 14 14 15 15 15
10 11 11 10 10 11 11 12 13 13 13 14 15 15 15 15 15 15 16 16 16 16 16 16 16 15 15 15 15 15 16 16 16 16 16 16 15 14 14 14 15 15
11 11 11 11 11 11 11 12 13 13 14 15 15 16 15 15 15 15 16 16 15 15 15 15 15 15 15 15 15 15 15 15 15 15 16 16 16 15 15 14 14 15
11 11 12 12 11 12 12 13 13 14 15 15 16 16 16 16 16 16 16 15 15 15 15 14 15 15 15 15 15 15 15 15 15 15 15 15 16 16 15 15 15 14
12 12 12 12 12 12 14 15 15 15 15 16 15 15 16 16 16 16 16 15 15 15 14 14 14 14 14 14 14 14 15 15 15 15 15 15 15 15 16 16 16 16
14 13 12 13 13 14 15 15 16 16 16 16 15 15 16 16 16 16 16 16 15 15 14 14 14 13 13 14 14 14 14 14 14 14 15 15 15 15 15 15 15 16
15 14 14 14 15 15 15 15 16 16 16 16 16 16 16 16 16 16 16 16 15 15 15 15 14 14 14 14 14 13 13 13 14 14 14 15 15 14 14 15 15 15
16 16 15 16 16 15 15 15 16 16 16 16 16 16 16 16 15 15 15 15 16 15 15 15 14 14 14 14 14 13 13 13 14 14 14 15 14 14 14 14 14 15
17 17 17 17 16 16 16 16 16 17 17 17 16 16 15 15 14 15 15 16 16 16 16 16 15 15 14 14 14 14 13 13 14 14 14 14 14 14 14 13 14 14
17 16 16 16 16 16 16 16 17 17 17 16 16 16 16 15 15 16 16 16 15 15 15 16 16 16 15 15 15 14 14 14 14 14 14 14 14 14 14 14 13 13
16 15 16 16 17 17 17 17 17 17 16 16 16 16 16 16 16 17 17 16 16 16 16 16 16 16 16 16 16 15 15 15 14 14 14 14 14 14 14 14 14 14
16 16 16 16 16 16 17 17 17 16 17 17 16 16 16 16 16 16 17 16 16 16 16 15 15 15 16 16 16 16 16 16 15 15 14 15 15 15 15 15 15 14
17 17 16 16 16 16 16 16 16 16 16 16 16 16 16 15 15 16 16 16 16 16 15 15 15 16 16 16 16 16 16 16 16 16 15 15 15 15 15 15 15 15
16 16 16 16 16 16 15 15 15 15 15 15 15 15 15 15 15 15 15 15 15 16 16 16 16 16 16 16 16 16 16 16 16 16 16 16 15 15 15 15 15 15

ECMWFNIL_850_dewp_117.txt.gz
Dewpoint
14 14 15 15 15 15 15 15 15 15 15 15 14 14 14 14 14 15 15 15 14 13 13 13 13 13 13 14 14 15 15 15 15 15 14 14 13 13 13 13 13 12
13 14 15 15 15 15 15 15 15 15 15 15 15 15 15 15 15 15 15 15 14 13 13 13 13 13 13 13 14 15 15 15 15 15 15 15 15 14 14 14 14 13
13 14 15 15 15 15 15 15 15 15 15 15 15 15 16 15 15 15 15 15 14 14 14 13 13 13 13 14 14 14 15 14 14 14 14 15 15 15 14 14 14 14
13 14 14 14 14 14 14 14 15 15 15 15 15 15 15 15 15 15 15 15 14 14 14 14 13 13 13 14 13 13 14 14 13 13 13 14 14 14 14 13 13 14
12 14 14 14 14 14 14 14 14 14 15 15 15 15 15 15 15 15 14 14 15 15 15 14 14 14 14 14 13 13 13 13 13 13 13 13 13 13 13 13 13 14
12 13 13 13 13 14 14 13 13 14 14 15 15 15 15 15 15 14 14 14 15 15 16 15 15 15 15 15 14 13 13 13 13 13 13 13 13 13 13 13 13 13
11 12 13 13 12 13 13 13 13 14 14 15 15 14 14 14 14 14 13 14 14 15 16 16 16 16 16 16 14 13 13 14 13 13 13 13 13 13 13 14 14 13
11 12 12 12 12 12 12 13 14 14 14 14 14 14 13 14 14 14 14 14 15 15 16 16 16 16 16 15 15 15 15 14 14 13 13 13 13 13 13 14 14 14
10 11 11 12 12 11 12 12 13 14 14 14 14 13 13 13 14 14 15 15 16 16 16 16 15 15 15 15 14 15 15 15 15 15 14 14 14 14 13 14 14 14
11 10 11 11 11 11 12 12 13 13 14 14 14 13 13 14 14 15 15 15 16 16 16 15 15 15 15 15 15 15 15 16 16 16 16 16 15 15 15 15 15 15
12 10 10 10 11 11 11 12 12 13 13 13 13 13 14 14 14 15 15 15 16 16 16 16 16 16 16 16 15 15 16 16 16 16 16 16 16 16 15 15 16 16
13 12 10 10 10 11 11 12 12 12 13 13 13 13 14 14 15 15 16 16 16 16 16 16 16 16 16 16 16 16 16 16 16 16 16 16 16 16 16 15 16 16
15 14 12 10 10 10 11 12 12 12 13 13 12 13 14 15 15 16 16 16 16 16 16 16 16 16 16 16 16 16 16 16 16 16 16 16 16 16 16 16 15 16
14 15 13 11 10 10 10 11 11 12 12 13 13 13 13 15 15 16 16 16 16 16 16 16 16 16 16 16 16 16 16 16 16 15 16 15 15 15 15 15 15 15
14 14 14 12 11 10 10 10 10 11 12 13 13 13 13 14 15 15 16 16 16 16 16 16 16 15 15 15 15 15 15 15 15 15 15 15 15 15 15 15 15 15
14 14 14 12 11 11 11 10 10 11 12 12 13 13 13 14 15 15 16 16 16 16 16 16 15 15 15 15 15 15 15 15 15 15 15 15 15 15 15 15 15 15
14 14 14 13 12 11 11 11 10 11 11 12 13 14 14 15 15 16 16 16 16 16 16 15 15 15 15 14 14 14 14 14 14 14 14 14 15 15 15 15 15 15
16 16 15 15 14 13 13 12 12 12 14 15 15 15 15 16 16 16 16 16 16 16 16 15 15 15 15 14 14 14 14 14 14 14 14 14 14 14 14 14 15 15
16 17 17 16 16 16 16 15 14 14 15 16 16 16 16 16 16 16 16 16 16 16 16 16 15 15 15 15 15 14 14 14 14 13 13 13 13 13 13 14 14 14
15 16 16 16 16 16 17 17 16 15 16 16 16 16 16 15 14 15 15 15 15 16 16 15 15 15 15 15 15 15 15 14 14 14 13 13 13 13 13 14 14 14
15 15 16 16 16 14 16 17 17 16 16 16 16 16 16 15 15 15 15 15 15 15 15 15 15 15 15 15 15 15 15 15 14 14 14 14 13 14 14 14 14 14
15 14 15 16 17 15 15 16 16 16 16 15 15 15 16 15 15 16 16 15 15 15 15 15 15 15 15 15 15 15 15 15 15 15 15 14 14 14 14 14 14 14
15 14 15 16 17 16 16 16 16 16 16 15 15 15 16 15 15 15 15 15 16 16 16 16 16 16 16 16 16 16 16 16 15 15 15 15 15 15 15 14 15 14
15 15 16 16 16 16 16 16 16 16 16 16 16 16 16 16 15 16 16 16 16 16 16 16 16 16 16 16 16 16 15 15 15 15 15 15 16 16 15 15 15 15
16 16 16 16 16 16 16 16 16 16 16 16 16 15 15 15 15 16 16 16 16 16 16 16 16 16 16 16 16 16 16 15 15 15 16 16 15 16 16 16 16 16
16 16 16 16 16 16 16 16 15 15 15 15 15 14 15 15 14 15 15 15 15 15 15 15 15 15 15 15 15 15 15 15 15 15 15 15 15 15 15 15 15 15

ECMWFNIL_850_dewp_120.txt.gz
Dewpoint
13 15 15 16 16 16 17 17 17 17 17 17 17 17 17 16 15 15 16 16 14 13 13 13 13 13 13 14 13 13 14 15 16 17 17 16 17 17 17 17 17 17
12 13 14 16 16 15 15 16 17 17 17 16 16 17 17 17 16 14 15 15 15 15 14 13 13 13 13 14 14 13 14 14 14 17 18 17 17 17 17 17 17 17
12 13 14 15 16 16 16 16 16 16 17 17 17 17 17 17 17 16 15 15 16 17 17 15 15 14 14 14 13 14 16 15 15 17 17 16 16 17 17 17 17 17
12 13 15 16 16 17 17 17 16 16 16 17 17 17 17 17 17 17 16 15 14 15 16 16 15 16 16 15 13 15 16 16 15 15 15 15 15 16 17 17 17 17
13 14 15 16 17 17 17 17 17 16 16 17 17 17 17 16 16 17 17 16 15 15 16 16 15 16 16 15 14 16 17 17 17 15 13 13 15 16 17 17 17 17
14 13 14 16 16 17 17 17 17 17 17 17 17 17 17 16 16 16 17 17 16 17 17 17 17 17 17 17 16 16 16 16 17 16 14 14 15 17 17 17 17 17
15 14 14 15 16 16 16 17 17 16 17 17 17 17 17 17 17 16 16 16 17 17 17 17 17 17 17 18 17 16 15 15 15 15 13 14 15 16 16 17 17 16
16 15 15 16 16 16 16 16 17 17 17 17 17 17 17 17 17 17 16 16 17 17 17 17 17 16 16 18 18 17 17 17 16 16 15 15 15 15 15 16 17 16
15 16 16 16 16 16 16 16 16 17 17 16 17 17 17 17 17 17 17 16 16 17 16 16 17 16 17 18 17 17 17 17 17 18 18 18 17 17 17 17 17 17
15 16 16 16 16 16 16 16 16 16 17 17 17 16 17 17 16 17 17 16 16 16 16 16 17 17 17 17 17 17 17 16 16 17 17 17 18 18 17 17 17 18
16 16 16 17 16 16 16 16 16 16 16 17 16 16 16 17 17 17 17 16 16 17 17 17 17 17 17 17 17 17 17 17 17 17 17 17 17 17 17 17 17 17
16 16 17 17 16 16 16 16 16 15 16 17 17 16 16 17 17 17 17 17 17 18 18 17 17 17 17 17 17 17 17 18 18 18 17 17 18 17 17 17 17 17
15 17 17 17 17 15 14 16 16 16 16 16 16 16 16 16 17 17 17 18 18 18 17 17 17 17 17 17 17 17 17 17 17 17 17 17 17 17 17 17 17 17
13 16 17 17 16 14 13 13 15 16 16 16 17 17 16 16 16 16 17 17 17 17 17 17 17 17 17 17 17 17 17 17 17 17 17 17 17 17 17 17 17 17
13 15 15 15 15 14 13 12 13 15 16 17 17 17 16 16 16 16 16 16 17 17 17 17 17 16 16 16 16 17 16 16 16 16 16 16 16 17 17 17 17 17
14 14 15 15 15 15 15 13 12 14 16 17 17 17 17 16 16 16 16 16 16 17 17 16 16 16 16 16 16 16 16 15 15 15 15 14 15 15 16 16 17 17
14 15 15 16 16 16 16 16 14 14 16 17 16 16 16 15 16 16 17 17 16 16 16 16 16 16 16 15 15 15 15 15 15 15 15 15 15 16 16 16 16 16
14 15 16 16 16 16 16 16 16 15 15 14 14 15 15 15 16 16 16 16 17 16 16 16 16 16 16 15 15 14 14 14 14 15 16 16 16 17 17 17 16 16
15 15 15 15 16 15 14 14 15 16 15 15 15 17 16 15 15 15 15 16 17 17 17 16 16 15 15 15 15 15 14 14 14 15 15 16 16 17 16 16 16 16
15 15 14 13 14 15 15 14 14 15 15 16 16 16 16 16 16 16 16 16 16 17 17 16 16 15 16 15 15 15 15 14 15 15 15 15 16 16 16 16 16 16
16 16 15 14 13 14 14 15 15 14 15 15 15 15 15 16 17 17 16 16 15 16 17 16 16 15 15 15 15 15 15 15 15 15 15 15 16 16 16 16 16 15
16 16 16 16 15 14 13 15 15 15 15 15 15 15 15 15 16 16 16 16 16 17 17 16 15 15 15 15 15 15 15 15 16 16 16 16 16 17 16 16 16 16
15 15 16 16 15 14 14 15 15 15 15 15 15 16 16 16 16 16 16 16 16 16 16 16 15 15 15 15 16 16 16 16 16 16 16 16 16 16 16 16 16 16
15 15 16 16 15 14 15 15 16 16 16 16 16 16 16 17 17 16 16 16 16 16 16 16 15 16 16 16 16 16 16 16 16 16 16 16 16 16 16 16 16 16
16 16 16 15 15 15 15 16 16 16 16 16 16 16 16 16 16 16 16 16 16 16 16 16 16 16 16 16 16 15 15 15 15 15 15 15 15 15 15 15 15 16
16 16 16 16 15 16 16 16 16 17 16 16 16 15 15 15 16 16 16 16 16 16 16 16 16 16 15 15 15 14 14 14 14 14 14 14 14 14 14 14 14 14

ECMWFNIL_850_dewp_123.txt.gz
Dewpoint
17 16 16 16 16 17 17 17 17 17 17 17 17 17 17 17 17 16 18 18 16 16 15 12 13 12 13 15 14 13 15 15 16 17 17 17 17 17 17 17 17 16
16 17 17 17 17 17 17 17 17 17 17 17 17 17 17 17 17 16 17 17 16 16 15 13 14 12 13 16 15 13 14 14 14 17 18 18 17 17 17 17 17 17
16 17 17 17 17 17 17 17 17 17 17 17 17 17 17 17 17 16 16 16 17 17 17 16 16 14 14 15 14 13 15 15 14 16 18 17 17 17 17 17 16 16
16 16 16 16 16 16 17 17 17 17 17 17 17 17 17 17 17 17 16 15 15 16 17 17 16 16 17 16 14 14 16 16 14 15 15 15 15 16 16 16 16 16
16 17 17 16 16 16 16 17 17 17 16 16 17 17 17 17 17 18 18 16 14 14 16 16 15 16 17 16 15 15 17 17 16 16 15 14 15 16 17 17 17 17
16 17 17 17 17 17 17 17 17 17 16 16 16 17 17 17 17 17 17 17 16 16 17 17 17 17 17 17 16 16 16 17 17 18 16 14 15 16 17 17 17 17
16 16 16 17 17 17 17 17 17 16 16 16 16 16 17 17 17 17 17 17 17 17 16 16 17 17 17 18 17 16 15 15 16 16 15 14 16 16 16 17 17 17
16 16 16 16 16 16 17 17 17 16 16 16 16 16 17 17 17 17 17 17 17 17 16 17 18 18 17 18 18 17 16 16 16 16 15 15 16 15 15 16 17 17
16 16 16 16 15 16 16 16 16 16 16 16 16 16 16 17 17 17 17 17 17 17 17 17 18 18 17 17 18 18 17 17 17 17 17 16 16 16 16 16 17 17
16 16 16 16 15 15 15 16 16 16 16 16 16 16 16 16 16 16 17 18 17 18 18 17 17 18 18 17 18 17 17 17 16 17 17 17 17 18 17 17 17 17
17 16 16 16 16 15 15 15 15 15 15 16 16 15 15 15 16 16 17 18 18 18 17 16 16 18 18 17 17 17 17 17 17 17 17 17 18 18 18 17 17 17
17 16 16 16 16 16 16 16 15 15 15 15 16 16 15 15 16 16 17 17 18 18 17 17 16 17 18 18 17 16 17 17 17 17 17 17 17 17 17 17 17 17
16 16 16 16 16 17 16 16 16 15 15 14 15 16 15 15 15 16 16 17 17 17 17 17 17 17 18 17 17 17 17 16 16 17 16 15 15 14 14 15 15 16
17 16 16 16 16 17 17 17 16 16 15 15 15 15 16 16 15 15 16 16 16 17 17 17 17 17 17 16 16 16 16 15 15 16 16 15 14 14 14 15 15 15
18 17 17 17 17 18 18 18 17 16 16 16 16 15 16 16 15 15 15 15 16 16 16 16 16 17 17 16 15 15 16 16 16 15 15 15 15 15 15 15 14 14
18 17 18 19 18 18 17 16 16 16 16 16 17 16 16 16 16 15 15 15 16 15 15 16 16 16 16 16 15 16 16 16 15 15 15 15 15 14 15 15 14 14
17 16 17 17 17 16 14 13 13 13 15 16 17 17 17 17 17 16 16 15 15 15 15 16 16 16 16 16 16 16 15 15 15 16 16 15 15 15 15 15 15 15
15 14 15 15 14 14 14 14 13 12 13 14 15 16 17 18 17 17 17 16 16 16 15 15 16 16 16 16 16 16 15 15 15 16 16 16 15 15 15 15 15 16
14 14 15 14 14 15 15 15 14 14 13 12 13 15 17 18 17 17 17 17 17 16 15 15 16 16 16 16 16 16 15 15 15 15 16 16 16 16 16 16 16 17
15 14 15 15 15 16 16 16 15 15 14 13 13 14 17 18 17 18 18 17 16 15 15 15 16 16 16 16 15 15 15 15 15 15 15 15 15 16 17 16 16 16
17 14 15 16 16 16 16 15 14 15 15 14 14 15 17 18 17 18 18 16 16 16 15 15 15 15 15 16 16 15 15 15 15 15 14 15 15 16 16 16 15 16
17 16 16 17 17 17 16 15 14 15 15 15 15 16 17 17 16 16 17 17 17 18 16 16 16 16 15 15 15 15 15 14 15 15 15 15 15 16 16 15 16 16
17 17 17 18 17 16 16 16 15 15 15 16 16 17 17 16 16 16 16 16 17 17 17 17 16 16 15 15 15 15 14 15 15 16 16 16 16 16 16 16 16 16
18 18 17 17 16 15 15 16 16 15 15 15 15 16 16 17 17 17 16 15 15 16 17 16 15 15 15 15 15 15 15 15 16 16 16 16 16 15 16 16 16 16
17 17 17 16 15 15 15 16 16 15 15 15 15 16 17 17 17 16 16 16 16 16 16 15 15 16 16 16 16 15 15 15 15 15 15 14 14 14 14 14 15 15
17 17 17 16 16 16 16 16 16 16 16 16 16 16 17 17 17 17 17 16 16 16 16 15 15 16 16 15 15 14 14 14 13 13 13 13 13 13 13 12 12 12